[[{"header":{"parameterUnit":"m.s-1","parameterCategory":1,"la1":30.6,"la2":28.766,"lo1":-90.7593,"lo2":-88.6598,"dy":0.0162,"dx":0.0183,"nx":116,"ny":114,"refTime":"2024-05-11T06:00:00:Z","depth":0,"parameterNumber":2,"parameterNumberName":"U-component_of_WINDS"},"data":[0.0,0.0,0.0,0.0,0.0,0.0,0.0,0.0,0.0,0.0,0.0,0.0,0.0,0.0,0.0,0.0,0.0,0.0,0.0,0.0,0.0,0.0,0.0,0.0,0.0,0.0,0.0,0.0,0.0,0.0,0.0,0.0,0.0,0.0,0.0,0.0,0.0,0.0,0.0,0.0,0.0,0.0,0.0,0.0,0.0,0.0,0.0,0.0,0.0,0.0,0.0,0.0,0.0,0.0,0.0,0.0,0.0,0.0,0.0,0.0,0.0,0.0,0.0,0.0,0.0,0.0,0.0,0.0,0.0,0.0,0.0,0.0,0.0,0.0,0.0,0.0,0.0,0.0,0.0,0.0,0.0,0.0,0.0,0.0,0.0,0.0,0.0,0.0,0.0,0.0,0.0,0.0,0.0,0.0,0.0,0.0,0.0,0.0,0.0,0.0,0.0,0.0,0.0,0.0,0.0,0.0,0.0,0.0,0.0,0.0,0.0,0.0,0.0,0.0,0.0,0.0,0.0,0.0,0.0,0.0,0.0,0.0,0.0,0.0,0.0,0.0,0.0,0.0,0.0,0.0,0.0,0.0,0.0,0.0,0.0,0.0,0.0,0.0,0.0,0.0,0.0,0.0,0.0,0.0,0.0,0.0,0.0,0.0,0.0,0.0,0.0,0.0,0.0,0.0,0.0,0.0,0.0,0.0,0.0,0.0,0.0,0.0,0.0,0.0,0.0,0.0,0.0,0.0,0.0,0.0,0.0,0.0,0.0,0.0,0.0,0.0,0.0,0.0,0.0,0.0,0.0,0.0,0.0,0.0,0.0,0.0,0.0,0.0,0.0,0.0,0.0,0.0,0.0,0.0,0.0,0.0,0.0,0.0,0.0,0.0,0.0,0.0,0.0,0.0,0.0,0.0,0.0,0.0,0.0,0.0,0.0,0.0,0.0,0.0,0.0,0.0,0.0,0.0,0.0,0.0,0.0,0.0,0.0,0.0,0.0,0.0,0.0,0.0,0.0,0.0,0.0,0.0,0.0,0.0,0.0,0.0,0.0,0.0,0.0,0.0,0.0,0.0,0.0,0.0,0.0,0.0,0.0,0.0,0.0,0.0,0.0,0.0,0.0,0.0,0.0,0.0,0.0,0.0,0.0,0.0,0.0,0.0,0.0,0.0,0.0,0.0,0.0,0.0,0.0,0.0,0.0,0.0,0.0,0.0,0.0,0.0,0.0,0.0,0.0,0.0,0.0,0.0,0.0,0.0,0.0,0.0,0.0,0.0,0.0,0.0,0.0,0.0,0.0,0.0,0.0,0.0,0.0,0.0,0.0,0.0,0.0,0.0,0.0,0.0,0.0,0.0,0.0,0.0,0.0,0.0,0.0,0.0,0.0,0.0,0.0,0.0,0.0,0.0,0.0,0.0,0.0,0.0,0.0,0.0,0.0,0.0,0.0,0.0,0.0,0.0,0.0,0.0,0.0,0.0,0.0,0.0,0.0,0.0,0.0,0.0,0.0,0.0,0.0,0.0,0.0,0.0,0.0,0.0,0.0,0.0,0.0,0.0,0.0,0.0,0.0,0.0,0.0,0.0,0.0,0.0,0.0,0.0,0.0,0.0,0.0,0.0,0.0,0.0,0.0,0.0,0.0,0.0,0.0,0.0,0.0,0.0,0.0,0.0,0.0,0.0,0.0,0.0,0.0,0.0,0.0,0.0,0.0,0.0,0.0,0.0,0.0,0.0,0.0,0.0,0.0,0.0,0.0,0.0,0.0,0.0,0.0,0.0,0.0,0.0,0.0,0.0,0.0,0.0,0.0,0.0,0.0,0.0,0.0,0.0,0.0,0.0,0.0,0.0,0.0,0.0,0.0,0.0,0.0,0.0,0.0,0.0,0.0,0.0,0.0,0.0,0.0,0.0,0.0,0.0,0.0,0.0,0.0,0.0,0.0,0.0,0.0,0.0,0.0,0.0,0.0,0.0,0.0,0.0,0.0,0.0,0.0,0.0,0.0,0.0,0.0,0.0,0.0,0.0,0.0,0.0,0.0,0.0,0.0,0.0,0.0,0.0,0.0,0.0,0.0,0.0,0.0,0.0,0.0,0.0,0.0,0.0,0.0,0.0,0.0,0.0,0.0,0.0,0.0,0.0,0.0,0.0,0.0,0.0,0.0,0.0,0.0,0.0,0.0,0.0,0.0,0.0,0.0,0.0,0.0,0.0,0.0,0.0,0.0,0.0,0.0,0.0,0.0,0.0,0.0,0.0,0.0,0.0,0.0,0.0,0.0,0.0,0.0,0.0,0.0,0.0,0.0,0.0,0.0,0.0,0.0,0.0,0.0,0.0,0.0,0.0,0.0,0.0,0.0,0.0,0.0,0.0,0.0,0.0,0.0,0.0,0.0,0.0,0.0,0.0,0.0,0.0,0.0,0.0,0.0,0.0,0.0,0.0,0.0,0.0,0.0,0.0,0.0,0.0,0.0,0.0,0.0,0.0,0.0,0.0,0.0,0.0,0.0,0.0,0.0,0.0,0.0,0.0,0.0,0.0,0.0,0.0,0.0,0.0,0.0,0.0,0.0,0.0,0.0,0.0,0.0,0.0,0.0,0.0,0.0,0.0,0.0,0.0,0.0,0.0,0.0,0.0,0.0,0.0,0.0,0.0,0.0,0.0,0.0,0.0,0.0,0.0,0.0,0.0,0.0,0.0,0.0,0.0,0.0,0.0,0.0,0.0,0.0,0.0,0.0,0.0,0.0,0.0,0.0,0.0,0.0,0.0,0.0,0.0,0.0,0.0,0.0,0.0,0.0,0.0,0.0,0.0,0.0,0.0,0.0,0.0,0.0,0.0,0.0,0.0,0.0,0.0,0.0,0.0,0.0,0.0,0.0,0.0,0.0,0.0,0.0,0.0,0.0,0.0,0.0,0.0,0.0,0.0,0.0,0.0,0.0,0.0,0.0,0.0,0.0,0.0,0.0,0.0,0.0,0.0,0.0,0.0,0.0,0.0,0.0,0.0,0.0,0.0,0.0,0.0,0.0,0.0,0.0,0.0,0.0,0.0,0.0,0.0,0.0,0.0,0.0,0.0,0.0,0.0,0.0,0.0,0.0,0.0,0.0,0.0,0.0,0.0,0.0,0.0,0.0,0.0,0.0,0.0,0.0,0.0,0.0,0.0,0.0,0.0,0.0,0.0,0.0,0.0,0.0,0.0,0.0,0.0,0.0,0.0,0.0,0.0,0.0,0.0,0.0,0.0,0.0,0.0,0.0,0.0,0.0,0.0,0.0,0.0,0.0,0.0,0.0,0.0,0.0,0.0,0.0,0.0,0.0,0.0,0.0,0.0,0.0,0.0,0.0,0.0,0.0,0.0,0.0,0.0,0.0,0.0,0.0,0.0,0.0,0.0,0.0,0.0,0.0,0.0,0.0,0.0,0.0,0.0,0.0,0.0,0.0,0.0,0.0,0.0,0.0,0.0,0.0,0.0,0.0,0.0,0.0,0.0,0.0,0.0,0.0,0.0,0.0,0.0,0.0,0.0,0.0,0.0,0.0,0.0,0.0,0.0,0.0,0.0,0.0,0.0,0.0,0.0,0.0,0.0,0.0,0.0,0.0,0.0,0.0,0.0,0.0,0.0,0.0,0.0,0.0,0.0,0.0,0.0,0.0,0.0,0.0,0.0,0.0,0.0,0.0,0.0,0.0,0.0,0.0,0.0,0.0,0.0,0.0,0.0,0.0,0.0,0.0,0.0,0.0,0.0,0.0,0.0,0.0,0.0,0.0,0.0,0.0,0.0,0.0,0.0,0.0,0.0,0.0,0.0,0.0,0.0,0.0,0.0,0.0,0.0,0.0,0.0,0.0,0.0,0.0,0.0,0.0,0.0,0.0,0.0,0.0,0.0,0.0,0.0,0.0,0.0,0.0,0.0,0.0,0.0,0.0,0.0,0.0,0.0,0.0,0.0,0.0,0.0,0.0,0.0,0.0,0.0,0.0,0.0,0.0,0.0,0.0,0.0,0.0,0.0,0.0,0.0,0.0,0.0,0.0,0.0,0.0,0.0,0.0,0.0,0.0,0.0,0.0,0.0,0.0,0.0,0.0,0.0,0.0,0.0,0.0,0.0,0.0,0.0,0.0,0.0,0.0,0.0,0.0,0.0,0.0,0.0,0.0,0.0,0.0,0.0,0.0,0.0,0.0,0.0,0.0,0.0,0.0,0.0,0.0,0.0,0.0,0.0,0.0,0.0,0.0,0.0,0.0,0.0,0.0,0.0,0.0,0.0,0.0,0.0,0.0,0.0,0.0,0.0,0.0,0.0,0.0,0.0,0.0,0.0,0.0,0.0,0.0,0.0,0.0,0.0,0.0,0.0,0.0,0.0,0.0,0.0,0.0,0.0,0.0,0.0,0.0,0.0,0.0,0.0,0.0,0.0,0.0,0.0,0.0,0.0,0.0,0.0,0.0,0.0,0.0,0.0,0.0,0.0,0.0,0.0,0.0,0.0,0.0,0.0,0.0,0.0,0.0,0.0,0.0,0.0,0.0,0.0,0.0,0.0,0.0,0.0,0.0,0.0,0.0,0.0,0.0,0.0,0.0,0.0,0.0,0.0,0.0,0.0,0.0,0.0,0.0,0.0,0.0,0.0,0.0,0.0,0.0,0.0,0.0,0.0,0.0,0.0,0.0,0.0,0.0,0.0,0.0,0.0,0.0,0.0,0.0,0.0,0.0,0.0,0.0,0.0,0.0,0.0,0.0,0.0,0.0,0.0,0.0,0.0,0.0,0.0,0.0,0.0,0.0,0.0,0.0,0.0,0.0,0.0,0.0,0.0,0.0,0.0,0.0,0.0,0.0,0.0,0.0,0.0,0.0,0.0,0.0,0.0,0.0,0.0,0.0,0.0,0.0,0.0,0.0,0.0,0.0,0.0,0.0,0.0,0.0,0.0,0.0,0.0,0.0,0.0,0.0,0.0,0.0,0.0,0.0,0.0,0.0,0.0,0.0,0.0,0.0,0.0,0.0,0.0,0.0,0.0,0.0,0.0,0.0,0.0,0.0,0.0,0.0,0.0,0.0,0.0,0.0,0.0,0.0,0.0,0.0,0.0,0.0,0.0,0.0,0.0,0.0,0.0,0.0,0.0,0.0,0.0,0.0,0.0,0.0,0.0,0.0,0.0,0.0,0.0,0.0,0.0,0.0,0.0,0.0,0.0,0.0,0.0,0.0,0.0,0.0,0.0,0.0,0.0,0.0,0.0,0.0,0.0,0.0,0.0,0.0,0.0,0.0,0.0,0.0,0.0,0.0,0.0,0.0,0.0,0.0,0.0,0.0,0.0,0.0,0.0,0.0,0.0,0.0,0.0,0.0,0.0,0.0,0.0,0.0,0.0,0.0,0.0,0.0,0.0,0.0,0.0,0.0,0.0,0.0,0.0,0.0,0.0,0.0,0.0,0.0,0.0,0.0,0.0,0.0,0.0,0.0,0.0,0.0,0.0,0.0,0.0,0.0,0.0,0.0,0.0,0.0,0.0,0.0,0.0,0.0,0.0,0.0,0.0,0.0,0.0,0.0,0.0,0.0,0.0,0.0,0.0,0.0,0.0,0.0,0.0,0.0,0.0,0.0,0.0,0.0,0.0,0.0,0.0,0.0,0.0,0.0,0.0,0.0,0.0,0.0,0.0,0.0,0.0,0.0,0.0,0.0,0.0,0.0,0.0,0.0,0.0,0.0,0.0,0.0,0.0,0.0,0.0,0.0,0.0,0.0,0.0,0.0,0.0,0.0,0.0,0.0,0.0,0.0,0.0,0.0,0.0,0.0,0.0,0.0,0.0,0.0,0.0,0.0,0.0,0.0,0.0,0.0,0.0,0.0,0.0,0.0,0.0,0.0,0.0,0.0,0.0,0.0,0.0,0.0,0.0,0.0,0.0,0.0,0.0,0.0,0.0,0.0,0.0,0.0,0.0,0.0,0.0,0.0,0.0,0.0,0.0,0.0,0.0,0.0,0.0,0.0,0.0,0.0,0.0,0.0,0.0,0.0,0.0,0.0,0.0,0.0,0.0,0.0,0.0,0.0,0.0,0.0,0.0,0.0,0.0,0.0,0.0,0.0,0.0,0.2429,0.2493,0.0,0.0,0.0,0.0,0.0,0.0,0.0,0.0,0.0,0.0,0.0,0.0,0.0,0.0,0.0,0.0,0.0,0.0,0.0,0.0,0.0,0.0,0.0,0.0,0.0,0.0,0.0,0.0,0.0,0.0,0.0,0.0,0.0,0.0,0.0,0.0,0.0,0.0,0.0,0.0,0.0,0.0,0.0,0.0,0.0,0.0,0.0,0.0,0.0,0.0,0.0,0.0,0.0,0.0,0.0,0.0,0.0,0.0,0.0,0.0,0.0,0.0,0.0,0.0,0.0,0.0,0.0,0.0,0.0,0.0,0.0,0.0,0.0,0.0,0.0,0.0,0.0,0.0,0.0,0.0,0.0,0.0,0.0,0.0,0.0,0.0,0.0,0.0,0.0,0.0,0.0,0.0,0.0,0.0,0.0,0.0,0.0,0.0,0.0,0.0,0.0,0.0,0.0,0.0,0.0,0.0,0.0,0.0,0.0,0.0,0.0,0.0,0.0,0.0,0.4017,0.3826,0.0,0.0,0.0,0.0,0.0,0.0,0.0,0.0,0.0,0.0,0.0,0.0,0.0,0.0,0.0,0.0,0.0,0.0,0.0,0.0,0.0,0.0,0.0,0.0,0.0,0.0,0.0,0.0,0.0,0.0,0.0,0.0,0.0,0.0,0.0,0.0,0.0,0.0,0.0,0.0,0.0,0.0,0.0,0.0,0.0,0.0,0.0,0.0,0.0,0.0,0.0,0.0,0.0,0.0,0.0,0.0,0.0,0.0,0.0,0.0,0.0,0.0,0.0,0.0,0.0,0.0,0.0,0.0,0.0,0.0,0.0,0.0,0.0,0.0,0.0,0.0,0.0,0.0,0.0,0.0,0.0,0.0,0.0,0.0,0.0,0.0,0.0,0.0,0.0,0.0,0.0,0.0,0.0,0.0,0.0,0.0,0.0,0.0,0.0,0.0,0.0,0.0,0.0,0.0,0.0,0.0,0.0,0.0,0.171,0.2428,0.4422,0.351,0.4364,0.6531,0.5375,0.5195,0.5763,0.5813,0.0,0.0,0.0,0.0,0.0,0.0,0.0,0.0,0.0,0.0,0.0,0.0,0.0,0.0,0.0,0.0,0.0,0.0,0.0,0.0,0.0,0.0,0.0,0.0,0.0,0.0,0.0,0.0,0.0,0.0,0.0,0.0,0.0,0.0,0.0,0.0,0.0,0.0,0.0,0.0,0.0,0.0,0.0,0.0,0.0,0.0,0.0,0.0,0.0,0.0,0.0,0.0,0.0,0.0,0.0,0.0,0.0,0.0,0.0,0.0,0.0,0.0,0.0,0.0,0.0,0.0,0.0,0.0,0.0,0.0,0.0,0.0,0.0,0.0,0.0,0.0,0.0,0.0,0.0,0.0,0.0,0.0,0.0,0.0,0.0,0.0,-0.6098,-0.5156,0.0,0.0,0.0,0.0,0.0,0.0,0.0,0.0,0.0,0.0,0.0,0.0,0.0,0.0074,0.0202,0.0213,0.0271,0.0404,0.0272,0.0381,0.0727,0.1501,0.2841,0.4608,0.5226,0.0,0.6355,0.6079,0.0,0.0,0.0,0.0,0.0,0.0,0.0,0.0,0.0,0.0,0.0,0.0,0.0,0.0,0.0,0.0,0.0,0.0,0.0,0.0,0.0,-0.1414,-0.1007,-0.1015,-0.0393,0.0,0.0,0.0,0.0,0.0,0.0,0.0,0.0,0.0,0.0,0.0,0.0,0.0,0.0,0.0,0.0,0.0,0.0,0.0,0.0,0.0,0.0,0.0,0.0,0.0,0.0,0.0,0.0,0.0,0.0,0.0,0.0,0.0,0.0,0.0,0.0,0.0,0.0,0.0,0.0,0.0,0.0,0.0,0.0,0.0,0.0,0.0,0.0,0.0,0.0,0.0,0.0,0.0,0.0,0.0,0.0,0.0,0.0,0.0,0.0,-0.6427,-0.6708,-0.5905,-0.4637,-0.3501,0.0,0.0,0.0,0.0,0.0,0.0,0.0,0.0,0.0,0.0,0.0,0.0,0.0,0.0,0.0,0.0,0.0,0.0441,0.1245,0.1647,0.2708,0.426,0.5553,0.6159,0.6256,0.6632,0.6634,0.6383,0.0,0.0,0.0,0.0,0.662,0.679,0.0,0.0,0.0,0.0,0.0,0.0,0.0,0.0,0.0,0.0,0.0,0.0,-0.316,-0.2327,-0.1676,-0.1357,-0.0517,0.0,0.0,0.0,0.0,0.0,-0.0319,-0.0345,0.0,0.0,-0.0194,-0.0555,-0.0182,0.0,0.0,0.0,0.0,0.0,0.0,0.0,0.0,0.0,0.0,0.0,0.0,0.0,0.0,0.0,0.0,0.0,0.0,0.0,0.0,0.0,0.0,0.0,0.0,0.0,0.0,0.0,0.0,0.0,0.0,0.0,0.0,0.0,0.0,0.0,0.0,0.0,0.0,0.0,0.0,0.0,0.0,0.0,0.0,0.0,0.0,0.0,0.0,-0.6458,-0.6608,-0.543,-0.4632,-0.3748,0.0,0.0,0.0,0.0,0.0,0.0,0.0,0.0,0.0,0.0,0.0,0.0,0.0,0.0,0.0,0.0,0.0,0.0562,0.1623,0.1532,0.2316,0.3837,0.4937,0.5715,0.6305,0.7186,0.7319,0.6987,0.7027,0.7046,0.7093,0.7195,0.7256,0.7337,0.0,0.0,0.0,0.0,0.0,0.0,0.0,0.0,0.0,0.0,0.0,-0.2943,-0.2002,-0.1831,-0.1328,-0.0184,-0.0046,0.0,0.0,0.0,0.0,0.0,-0.1223,-0.1305,-0.0024,0.0,-0.0682,-0.2091,-0.0681,0.0,0.0,0.0,0.0,0.0,0.0,0.0,0.0,0.0,0.0,0.0,0.0,0.0,0.0,0.0,0.0,0.0,0.0,0.0,0.0,0.0,0.0,0.0,0.0,0.0,0.0,0.0,0.0,0.0,0.0,0.0,0.0,0.0,0.0,0.0,0.0,0.0,0.0,0.0,0.0,0.0,0.0,0.0,0.0,0.0,0.0,0.0,0.0,0.0,0.0,-0.235,-0.3595,0.0,0.0,0.0,0.0,0.0,0.0,0.0,0.0,0.0,0.0,0.0,0.0,0.0,0.0,0.0,0.0,0.0,0.0,0.0033,0.0099,0.0097,0.0995,0.2588,0.2452,0.4092,0.6916,0.7668,0.7885,0.7726,0.7478,0.7464,0.7563,0.757,0.7658,0.7756,0.0,0.0,0.0,0.0,0.0,-0.2131,-0.2501,-0.3145,-0.3805,-0.4378,-0.5131,-0.5593,-0.5526,-0.4072,-0.2938,-0.2604,-0.1002,0.0,0.0,0.0,-0.0382,-0.1246,-0.1754,-0.233,-0.301,-0.3035,-0.3417,-0.4255,-0.3726,-0.3484,-0.3477,-0.3477,-0.3477,-0.3475,-0.3335,-0.27,-0.1654,-0.0499,0.0,0.0,0.0,0.0,0.0,0.0,0.0,0.0,0.0,0.0,0.0,0.0,0.0,0.0,0.0,0.0,0.0,0.0,0.0,0.0,0.0,0.0,0.0,0.0,0.0,0.0,0.0,0.0,0.0,0.0,0.0,0.0,0.0,0.0,0.0,0.0,0.0,0.0,0.0,0.0,0.0,-0.3095,-0.3024,0.0,-0.1284,-0.0447,0.0,0.0,0.0,0.0,0.0,0.0,0.0,0.0,0.0,0.0,0.0,0.0,0.0,0.0,0.0,0.0,0.0,0.0,0.0327,0.0946,0.1949,0.2966,0.3982,0.5315,0.6916,0.85,0.8392,0.8385,0.8432,0.8432,0.8466,0.8514,0.0,0.0,0.0,-0.29,-0.2981,-0.3172,-0.3589,-0.4239,-0.4925,-0.5549,-0.638,-0.6917,-0.6998,-0.5533,-0.4434,-0.4187,-0.2483,-0.1406,-0.1423,-0.1373,-0.175,-0.264,-0.283,-0.3918,-0.6068,-0.5352,-0.5319,-0.6145,-0.5635,-0.5402,-0.5392,-0.5392,-0.5392,-0.5388,-0.525,-0.4609,-0.353,-0.2331,-0.112,0.0,0.0,0.0,0.0,0.0,0.0,0.0,0.0,0.0,0.0,0.0,0.0,0.0,0.0,0.0,0.0,0.0,0.0,0.0,0.0,0.0,0.0,0.0,0.0,0.0,0.0,0.0,0.0,0.0,0.0,0.0,0.0,0.0,0.0,0.0,0.0,0.0,0.0,-0.3061,-0.3274,-0.2489,-0.2375,-0.2062,-0.128,-0.0469,0.0,0.0,0.0,0.0,0.0,0.0,0.0,0.0,0.0,0.0,0.0,0.0,0.0,0.0,0.0,0.0,0.0,0.0,0.0,0.0066,0.1175,0.1891,0.2391,0.3484,0.538,0.7605,0.8055,0.8576,0.9061,0.9061,0.8717,0.8148,0.0,-0.2789,-0.2833,-0.2962,-0.2994,-0.3381,-0.4569,-0.4739,-0.5221,-0.6537,-0.6816,-0.6647,-0.5933,-0.5946,-0.5625,-0.4661,-0.4347,-0.421,-0.4207,-0.4076,-0.4032,-0.4093,-0.4575,-0.6109,-0.8891,-0.6704,-0.6258,-0.7713,-0.6296,-0.5568,-0.5565,-0.5565,-0.5565,-0.5557,-0.5571,-0.5534,-0.5491,-0.5418,-0.334,-0.0082,-0.0081,-0.0054,0.0,0.0,0.0,0.0,0.0,0.0,0.0,0.0,0.0,0.0,0.0,0.0,0.0,0.0,0.0,0.0,0.0,0.0,0.0,0.0,0.0,0.0,0.0,0.0,0.0,0.0,0.0,0.0,0.0,0.0,0.0,0.0,0.0,0.0,0.0,-0.1498,-0.1981,-0.0218,-0.1539,-0.1925,-0.0163,0.0,0.0,0.0,0.0,0.0,0.0,0.0,0.0,0.0,0.0,0.0,0.0,0.0,0.0,0.0,0.0,0.0,0.0,0.0,0.0,0.0,0.0,0.0922,0.2426,0.2425,0.3367,0.497,0.6302,0.7834,0.9249,0.9249,0.8241,0.6594,-0.4677,-0.4735,-0.481,-0.4844,-0.4943,-0.5157,-0.5576,-0.5651,-0.5906,-0.6606,-0.6904,-0.7125,-0.7364,-0.6772,-0.6289,-0.6101,-0.5074,-0.4355,-0.4215,-0.4077,-0.4591,-0.5913,-0.7115,-0.8414,-0.9897,-0.9281,-0.9375,-1.0208,-0.9802,-0.9535,-0.9379,-0.9379,-0.9326,-0.9231,-0.9127,-0.8419,-0.7181,-0.578,-0.3942,-0.1961,-0.1955,-0.1173,0.0,0.0,0.0,0.0,0.0,0.0,0.0,0.0,0.0,0.0,0.0,0.0,0.0,0.0,0.0,0.0,0.0,0.0,0.0,0.0,0.0,0.0,0.0,0.0,0.0,0.0,0.0,0.0,0.0,0.0,0.0,0.0,0.0,0.0,0.0,-0.0426,-0.0555,-0.0072,-0.0439,-0.0555,-0.0037,0.0,0.0,0.0,0.0,0.0,0.0,0.0,0.0,0.0,0.0,0.0,0.0,0.0,0.0,0.0,0.0,0.0,0.0,0.0,0.0,0.0,0.0,0.0266,0.0691,0.0685,0.1669,0.3327,0.4838,0.5732,0.6125,0.6125,0.5782,0.5078,-0.5412,-0.5467,-0.5532,-0.56,-0.5657,-0.5766,-0.5897,-0.5971,-0.6147,-0.6552,-0.6973,-0.7418,-0.7934,-0.7599,-0.7377,-0.7452,-0.6621,-0.6001,-0.5813,-0.589,-0.6495,-0.7684,-0.8877,-0.9774,-1.0358,-1.0587,-1.0853,-1.12,-1.12,-1.1152,-1.1036,-1.1036,-1.0989,-1.09,-1.0846,-1.0265,-0.9212,-0.7275,-0.5457,-0.3858,-0.3032,-0.1616,0.0,0.0,0.0,0.0,0.0,0.0,0.0,0.0,0.0,0.0,0.0,0.0,0.0,0.0,0.0,0.0,0.0,0.0,0.0,0.0,0.0,0.0,0.0,0.0,0.0,0.0,0.0,0.0,0.0,0.0,0.0,0.0,0.0,0.0,0.0,0.0,0.0,0.0,0.0,0.0,0.0,0.0,0.0,0.0,0.0,0.0,0.0,0.0,0.0,0.0,0.0,0.0,0.0,0.0,0.0,0.0,0.0,0.0,0.0,0.0,0.0,0.0,0.0,0.0,0.0,0.0,0.0587,0.1601,0.0,0.0,0.0,0.0,0.3852,0.3555,-0.5392,-0.5392,-0.544,-0.5559,-0.5579,-0.5627,-0.5752,-0.589,-0.6099,-0.645,-0.7001,-0.7509,-0.7918,-0.8269,-0.8485,-0.8485,-0.8369,-0.8228,-0.8094,-0.8507,-0.8933,-0.9294,-1.0002,-1.0439,-1.0616,-1.1043,-1.1268,-1.1302,-1.1281,-1.1274,-1.1274,-1.1274,-1.1261,-1.1247,-1.1247,-1.124,-1.1082,-0.9157,-0.7404,-0.5744,-0.359,-0.1642,0.0,0.0,0.0,0.0,0.0,0.0,0.0,0.0,0.0,0.0,0.0,0.0,0.0,0.0,0.0,0.0,0.0,0.0,0.0,0.0,0.0,0.0,0.0,0.0,0.0,0.0,0.0,0.0,0.0,0.0,0.0,0.0,0.0,0.0,0.0,0.0,0.0,0.0,0.0,0.0,0.0,0.0,0.0,0.0,0.0,0.0,0.0,0.0,0.0,0.0,0.0,0.0,0.0,0.0,0.0,0.0,0.0,0.0,0.0,0.0,0.0,0.0,0.0,0.0,0.0,0.0,0.0,0.0131,0.1625,0.3091,0.4161,0.2746,0.2225,0.2012,-0.5392,-0.5392,-0.5405,-0.5433,-0.544,-0.5487,-0.5627,-0.5752,-0.5996,-0.6437,-0.6892,-0.729,-0.7651,-0.8083,-0.8335,-0.8335,-0.8315,-0.8383,-0.8541,-0.9001,-0.9526,-1.007,-1.0515,-1.0968,-1.1389,-1.1491,-1.1647,-1.1928,-1.1762,-1.1665,-1.1665,-1.1665,-1.164,-1.1531,-1.1531,-1.1463,-1.1243,-0.939,-0.8358,-0.7647,-0.4218,-0.172,0.0,0.0,0.0,0.0,0.0,0.0,0.0,0.0,0.0,0.0,0.0,0.0,0.0,0.0,0.0,0.0,0.0,0.0,0.0,0.0,0.0,0.0,0.0,0.0,0.0,0.0,0.0,0.0,0.0,0.0,0.0,0.0,0.0,0.0,0.0,0.0,0.0,0.0,0.0,0.0,0.0,0.0,0.0,0.0,0.0,0.0,0.0,0.0,0.0,0.0,0.0,0.0,0.0,0.0,0.0,0.0,0.0,0.0,0.0,0.0,0.0,0.0,0.0,0.0,0.0,0.0,0.0,0.0033,0.0351,0.0661,0.0911,0.0597,0.0475,0.0447,-0.5392,-0.5392,-0.5392,-0.5392,-0.5392,-0.5419,-0.5494,-0.562,-0.5827,-0.62,-0.662,-0.7012,-0.7317,-0.8103,-0.8573,-0.8515,-0.8683,-0.8791,-0.8791,-0.9456,-1.0131,-1.073,-1.1151,-1.1496,-1.1837,-1.1843,-1.1911,-1.2098,-1.1986,-1.1945,-1.1945,-1.1945,-1.1911,-1.1843,-1.1843,-1.1796,-1.1612,-0.9736,-0.8904,-0.8586,-0.5642,-0.3882,-0.2782,-0.0774,0.0,0.0,0.0,0.0,0.0,0.0,0.0,0.0,0.0,0.0,0.0,0.0,0.0,0.0,0.0,0.0,0.0,0.0,0.0,0.0,0.0,0.0,0.0,0.0,0.0,0.0,0.0,0.0,0.0,0.0,0.0,0.0,0.0,0.0,0.0,0.0,0.0,0.0,0.0,0.0,0.0,0.0,0.0,0.0,0.0,0.0,0.0,0.0,0.0,0.0,0.0,0.0,0.0,0.0,0.0,0.0,0.0,0.0,0.0,0.0,0.0,0.0,0.0,0.0,0.0,0.0,0.0,0.0,0.0,0.0,0.0,0.0,-0.5392,-0.5392,-0.5392,-0.5392,-0.5392,-0.5392,-0.5392,-0.5511,-0.5684,-0.593,-0.6356,-0.6798,-0.7239,-0.8171,-0.8821,-0.8944,-0.9505,-0.9677,-0.9285,-1.024,-1.0956,-1.1261,-1.1653,-1.1945,-1.2139,-1.2173,-1.22,-1.2227,-1.22,-1.2213,-1.2275,-1.2241,-1.2227,-1.2227,-1.2227,-1.22,-1.2033,-1.0471,-0.9793,-0.9571,-0.7454,-0.6604,-0.6219,-0.2558,-0.113,-0.1085,-0.105,-0.0995,-0.0904,-0.0937,-0.0927,-0.0908,-0.0973,-0.102,-0.1037,-0.0962,-0.0927,0.0,0.0,0.0,0.0,0.0,0.0,0.0,0.0,0.0,-0.2463,-0.1419,-0.123,-0.1288,-0.1322,-0.1328,-0.1363,-0.1381,-0.1389,-0.1208,-0.0783,-0.0698,-0.0525,-0.0044,0.0,0.0,0.0,0.0,0.0,0.0,0.0,0.0,0.0,0.0,0.0,0.0,0.0,0.0,0.0,0.0,0.0,0.0,0.0,0.0,0.0,0.0,0.0,0.0,0.0,0.0,0.0,0.0,0.0,0.0,0.0,0.0,0.0,0.0,0.0,0.0,-0.5392,-0.5392,-0.5392,-0.5392,-0.5392,-0.5392,-0.5392,-0.5511,-0.5644,-0.5806,-0.613,-0.6736,-0.7777,-0.8127,-0.8709,-0.9766,-1.1101,-1.1482,-1.0552,-1.1823,-1.2275,-1.1609,-1.187,-1.2145,-1.2264,-1.2386,-1.2522,-1.2618,-1.2522,-1.2589,-1.2894,-1.2718,-1.2618,-1.2618,-1.2618,-1.2508,-1.2264,-1.2036,-1.1868,-1.158,-0.9643,-0.8859,-0.8565,-0.6228,-0.5194,-0.4947,-0.4854,-0.4539,-0.4183,-0.4304,-0.4268,-0.4229,-0.4456,-0.466,-0.4746,-0.4446,0.0,-0.4136,-0.4041,-0.3995,-0.406,-0.4329,-0.4643,-0.4942,0.0,0.0,-0.5422,-0.5562,-0.5681,-0.5863,-0.6098,-0.6147,-0.6159,-0.6273,-0.6307,-0.5569,-0.3473,-0.3193,-0.241,-0.0268,0.0,0.0,0.0,0.0,0.0,0.0,0.0,0.0,0.0,0.0,0.0,0.0,0.0,0.0,0.0,0.0,0.0,0.0,0.0,0.0,0.0,0.0,0.0,0.0,0.0,0.0,0.0,0.0,0.0,0.0,0.0,0.0,0.0,0.0,0.0,0.0,-0.5392,-0.5392,-0.5392,-0.5392,-0.5392,-0.5392,-0.5392,-0.5446,-0.5525,-0.5657,-0.5811,-0.6306,-0.7364,-0.8666,-0.9784,-1.0509,-1.1856,-1.2566,-1.234,-1.2756,-1.3178,-1.3494,-1.2749,-1.2386,-1.2542,-1.2515,-1.2623,-1.2868,-1.2712,-1.2698,-1.2827,-1.2854,-1.282,-1.2693,-1.2693,-1.2712,-1.2717,-1.2583,-1.2508,-1.2363,-1.1498,-1.1032,-1.078,-0.9694,-0.8908,-0.8148,-0.5923,-0.495,0.0,-0.4535,-0.4533,-0.4617,-0.4798,-0.4876,-0.4871,-0.479,-0.4595,0.0,-0.4481,-0.5337,-0.6168,-0.6107,-0.7133,-0.7941,-0.7182,-0.7134,-0.7107,-0.6539,-0.6452,-0.6594,-0.6835,-0.6913,-0.6937,0.0,-0.7097,-0.626,-0.3911,-0.362,-0.2719,-0.0306,0.0,0.0,0.0,0.0,0.0,0.0,0.0,0.0,0.0,0.0,0.0,0.0,0.0,0.0,0.0,0.0,0.0,0.0,0.0,0.0,0.0,0.0,0.0,0.0,0.0,0.0,0.0,0.0,0.0,0.0,0.0,0.0,0.0,0.0,0.0,0.0,-0.5392,-0.5392,-0.5392,-0.5392,-0.5392,-0.5392,-0.5392,-0.5392,-0.5433,-0.5532,-0.5545,-0.5938,-0.6987,-0.9321,-1.0834,-1.0898,-1.2445,-1.3474,-1.3594,-1.3958,-1.4322,-1.4642,-1.3702,-1.3,-1.2664,-1.2644,-1.2778,-1.3003,-1.2888,-1.2874,-1.2915,-1.299,-1.2996,-1.2854,-1.2854,-1.2895,-1.2989,-1.2793,-1.2693,-1.2672,-1.2522,-1.2329,-1.205,-1.1592,-1.1043,-1.0136,-0.7316,-0.6079,-0.5764,-0.5566,-0.5558,-0.5687,-0.5889,-0.589,-0.5876,-0.5981,-0.5762,-0.5509,-0.563,-0.6784,-0.7838,-0.7315,-0.8469,-0.9489,-0.8414,-0.8385,-0.8474,-0.8192,-0.8218,-0.8371,-0.8634,-0.8689,-0.8534,-0.811,-0.8052,-0.6982,-0.401,-0.3587,-0.2707,-0.0297,0.0,0.0,0.0,0.0,0.0,0.0,0.0,0.0,0.0,0.0,0.0,0.0,0.0,0.0,0.0,0.0,0.0,0.0,0.0,0.0,0.0,0.0,0.0,0.0,0.0,0.0,0.0,0.0,0.0,0.0,0.0,0.0,0.0,0.0,0.0,0.0,-0.5392,-0.5392,-0.5392,-0.5392,-0.5392,-0.5392,-0.5392,-0.5392,-0.5399,-0.5399,-0.5399,-0.5838,-0.6967,-0.9944,-1.152,-1.0677,-1.2959,-1.4284,-1.3917,-1.579,-1.6022,-1.4106,-1.4549,-1.4099,-1.254,-1.2839,-1.2989,-1.3003,-1.3132,-1.3234,-1.3376,-1.3234,-1.3207,-1.32,-1.32,-1.3125,-1.2989,-1.2793,-1.2693,-1.2665,-1.2413,-1.2203,-1.2016,-1.1212,-1.0738,-1.0453,-1.0004,-0.9284,-0.8608,-0.8713,-0.8667,-0.8628,-0.897,-0.9151,0.0,-0.9258,-0.9022,-0.8741,-0.8601,-0.8958,-0.9018,-0.7704,-0.765,-0.8025,-0.8558,-0.8935,-0.978,-1.1863,-1.2568,-1.2876,-1.3171,-1.3196,-1.2581,-1.071,-1.0418,-0.8794,-0.4228,-0.359,-0.271,-0.0291,0.0,0.0,0.0,0.0,0.0,0.0,0.0,0.0,0.0,0.0,0.0,0.0,0.0,0.0,0.0,0.0,0.0,0.0,0.0,0.0,0.0,0.0,0.0,0.0,0.0,0.0,0.0,0.0,0.0,0.0,0.0,0.0,0.0,0.0,0.0,0.0,-0.5392,-0.5392,-0.5392,-0.5392,-0.5392,-0.5392,-0.5392,-0.5392,-0.5392,-0.5392,-0.5897,0.0,0.0,0.0,0.0,0.0,-1.2804,-1.399,-1.485,-1.4603,-1.445,-1.4544,-1.3282,-1.2395,-1.2047,-1.2295,-1.2547,-1.2807,-1.2854,-1.2956,-1.3152,-1.3193,-1.3214,-1.3214,-1.3214,-1.3186,-1.3125,-1.2834,-1.2632,-1.2542,-1.2142,-1.1837,-1.1545,-1.0894,-1.0276,-0.9713,0.0,-0.9027,-0.8689,-0.854,-0.8526,0.0,-0.8798,0.0,0.0,-0.8702,-0.7962,-0.7177,-0.7227,0.0,-0.6203,-0.5952,-0.6189,-0.6539,-0.6856,-0.7102,-0.7507,-0.8352,-0.862,-0.877,-0.9027,-0.907,-0.892,-0.8334,-0.8226,-0.7141,-0.4052,-0.3619,-0.2707,-0.0281,0.0,0.0,0.0,0.0,0.0,0.0,0.0,0.0,0.0,0.0,0.0,0.0,0.0,0.0,0.0,0.0,0.0,0.0,0.0,0.0,0.0,0.0,0.0,0.0,0.0,0.0,0.0,0.0,0.0,0.0,0.0,0.0,0.0,0.0,0.0,0.0,0.0,-0.5392,-0.5392,-0.5392,-0.5392,0.0,0.0,0.0,0.0,0.0,0.0,0.0,0.0,0.0,0.0,0.0,0.0,-1.3587,-1.4843,-1.4311,-1.416,-1.4704,-1.3407,-1.2584,-1.2357,-1.1995,-1.2045,-1.2514,-1.2226,-1.2223,-1.2488,-1.263,-1.2725,-1.2812,-1.2812,-1.2812,-1.2799,-1.2461,-1.2216,-1.1986,-1.1531,-1.1145,-1.0765,-1.0168,-0.9605,0.0,-0.8716,-0.8527,-0.8419,-0.8255,-0.8248,0.0,0.0,0.0,0.0,-0.7549,-0.6604,-0.5684,-0.5831,-0.5321,-0.4675,-0.4315,-0.4495,-0.4796,-0.4932,-0.5095,-0.5453,-0.6267,-0.645,-0.6552,-0.672,-0.6761,-0.654,-0.585,-0.5755,-0.4972,-0.2634,-0.2318,-0.1747,-0.0198,0.0,0.0,0.0,0.0,0.0,0.0,0.0,0.0,0.0,0.0,0.0,0.0,0.0,0.0,0.0,0.0,0.0,0.0,0.0,0.0,0.0,0.0,0.0,0.0,0.0,0.0,0.0,0.0,0.0,0.0,0.0,0.0,0.0,0.0,0.0,0.0,0.0,0.0,-0.5392,0.0,0.0,0.0,0.0,0.0,0.0,0.0,0.0,0.0,0.0,0.0,0.0,0.0,0.0,0.0,-1.3899,-1.4754,-1.498,-1.4495,-1.4695,-1.433,-1.3255,-1.2017,-1.1625,-1.2138,-1.1342,-1.1159,-1.1552,-1.1658,-1.1843,-1.203,-1.203,-1.203,-1.1996,-1.1667,-1.1369,-1.1097,-1.0602,-1.0168,-0.9704,-0.9109,-0.8798,-0.8642,-0.8182,-0.7995,-0.7988,0.0,0.0,0.0,0.0,0.0,0.0,0.0,-0.5168,-0.44,-0.453,-0.4598,-0.431,-0.2921,-0.2676,-0.2782,-0.2927,-0.3047,-0.3668,-0.5567,-0.6079,-0.6169,0.0,0.0,-0.5514,-0.3464,-0.3176,-0.2469,-0.0324,0.0,0.0,0.0,0.0,0.0,0.0,0.0,0.0,0.0,0.0,0.0,0.0,0.0,0.0,0.0,0.0,0.0,0.0,0.0,0.0,0.0,0.0,0.0,0.0,0.0,0.0,0.0,0.0,0.0,0.0,0.0,0.0,0.0,0.0,0.0,0.0,0.0,0.0,0.0,0.0,0.0,0.0,0.0,0.0,0.0,0.0,0.0,0.0,0.0,0.0,0.0,0.0,0.0,0.0,0.0,0.0,0.0,-1.1888,-1.2373,-1.2662,-1.2729,-1.2612,-1.2491,-1.2338,-1.2379,-1.2143,-1.1533,-1.1542,-1.1251,-1.0622,-1.0765,-1.0914,-1.1063,-1.1063,-1.1002,-1.0907,-1.0542,-1.0373,-1.0245,-0.9575,-0.9395,-0.9429,-0.8825,-0.8574,-0.8513,-0.8289,-0.814,-0.7988,0.0,0.0,0.0,0.0,-0.484,-0.4627,0.0,0.0,-0.2658,-0.2666,-0.2,-0.1166,-0.0795,-0.0716,-0.0749,-0.0777,-0.0802,-0.1001,-0.1501,-0.1644,-0.1652,0.0,0.0,0.0,-0.0922,-0.0839,0.0,-0.0083,0.0,0.0,0.0,0.0,0.0,0.0,0.0,0.0,0.0,0.0,0.0,0.0,0.0,0.0,0.0,0.0,0.0,0.0,0.0,0.0,0.0,0.0,0.0,0.0,0.0,0.0,0.0,0.0,0.0,0.0,0.0,0.0,0.0,0.0,0.0,0.0,0.0,0.0,0.0,0.0,0.0,0.0,0.0,0.0,0.0,0.0,0.0,0.0,0.0,0.0,0.0,0.0,0.0,0.0,0.0,0.0,0.0,0.0,-1.1863,-1.2107,-1.2381,-1.2124,-1.2141,-1.2512,-1.246,-1.2131,-1.1556,-1.119,-1.0677,-1.0091,-0.982,-0.9788,-0.9907,-0.9907,-0.9859,-0.9795,-0.9535,-0.9359,0.0,0.0,-0.8574,-0.8655,-0.8316,-0.8228,-0.8275,-0.8194,-0.7725,0.0,0.0,0.0,-0.4996,-0.4242,-0.3605,-0.3116,-0.3116,0.0,-0.1121,-0.1127,-0.0586,0.0,0.0,0.0,0.0,0.0,0.0,0.0,0.0,0.0,0.0,0.0,0.0,0.0,0.0,0.0,0.0,0.0,0.0,0.0,0.0,0.0,0.0,0.0,0.0,0.0,0.0,0.0,0.0,0.0,0.0,0.0,0.0,0.0,0.0,0.0,0.0,0.0,0.0,0.0,0.0,0.0,0.0,0.0,0.0,0.0,0.0,0.0,0.0,0.0,0.0,0.0,0.0,0.0,0.0,0.0,0.0,0.0,0.0,0.0,0.0,0.0,0.0,0.0,0.0,0.0,0.0,-0.5446,-0.581,-0.6796,-0.7827,0.0,0.0,0.0,0.0,0.0,0.0,-1.243,-1.2717,-1.2497,-1.2612,-1.3133,-1.2432,-1.1996,-1.1837,-1.0756,-1.0104,-0.9855,-0.9246,-0.9033,-0.9183,-0.9028,-0.8947,-0.8933,-0.8647,-0.8397,-0.8192,-0.7966,-0.7851,-0.7807,0.0,-0.7864,-0.7988,-0.7789,0.0,0.0,0.0,-0.2767,-0.3718,-0.3534,-0.2679,-0.1735,-0.175,-0.0902,0.0,0.0,0.0,0.0,0.0,0.0,0.0,0.0,0.0,0.0,0.0,0.0,0.0,0.0,0.0,0.0,0.0,0.0,0.0,0.0,0.0,0.0,0.0,0.0,0.0,0.0,0.0,0.0,0.0,0.0,0.0,0.0,0.0,0.0,0.0,0.0,0.0,0.0,0.0,0.0,0.0,0.0,0.0,0.0,0.0,0.0,0.0,0.0,0.0,0.0,0.0,0.0,0.0,0.0,0.0,0.0,0.0,0.0,0.0,0.0,0.0,0.0,0.0,0.0,0.0,0.0,0.0,0.0,0.0,-0.5698,-0.5641,0.0,0.0,0.0,0.0,0.0,0.0,0.0,0.0,0.0,-1.2371,-1.2596,-1.2757,-1.2864,-1.2943,-1.2501,-1.1578,-1.1469,-1.1012,-1.0295,-1.0282,-1.0426,-1.0668,-0.9675,-0.9228,-0.9172,-0.8084,-0.7668,-0.7692,-0.7384,-0.7479,-0.7801,-0.7678,0.0,0.0,0.0,0.0,0.0,0.0,-0.2158,-0.215,-0.1041,-0.0548,-0.0346,-0.0356,-0.0202,0.0,0.0,0.0,0.0,0.0,0.0,0.0,0.0,0.0,0.0,0.0,0.0,0.0,0.0,0.0,0.0,0.0,0.0,0.0,0.0,0.0,0.0,0.0,0.0,0.0,0.0,0.0,0.0,0.0,0.0,0.0,0.0,0.0,0.0,0.0,0.0,0.0,0.0,0.0,0.0,0.0,0.0,0.0,0.0,0.0,0.0,0.0,0.0,0.0,0.0,0.0,0.0,0.0,0.0,0.0,0.0,0.0,0.0,0.0,0.0,0.0,0.0,0.0,0.0,0.0,0.0,-0.5698,-0.5806,-0.6112,-0.611,-0.6008,-0.5815,-0.6394,-0.6982,0.0,0.0,0.0,0.0,0.0,0.0,-1.2551,-1.2556,-1.2537,-1.2537,-1.312,-1.2988,-1.2187,0.0,-1.1892,-1.1165,-1.0775,-1.0696,-1.0795,-0.962,-0.9089,-0.9013,-0.7773,-0.7269,-0.733,-0.7285,-0.7434,-0.7699,0.0,0.0,0.0,0.0,0.0,0.0,0.0,-0.0953,-0.0832,-0.022,0.0,0.0,0.0,0.0,0.0,0.0,0.0,0.0,0.0,0.0,0.0,0.0,0.0,0.0,0.0,0.0,0.0,0.0,0.0,0.0,0.0,0.0,0.0,0.0,0.0,0.0,0.0,0.0,0.0,0.0,0.0,0.0,0.0,0.0,0.0,0.0,0.0,0.0,0.0,0.0,0.0,0.0,0.0,0.0,0.0,0.0,0.0,0.0,0.0,0.0,0.0,0.0,0.0,0.0,0.0,0.0,0.0,0.0,0.0,0.0,0.0,0.0,0.0,0.0,0.0,0.0,0.0,0.0,0.0,-0.58,-0.5847,-0.5983,-0.6375,-0.6491,-0.645,-0.6181,-0.6832,-0.7357,0.0,0.0,0.0,0.0,0.0,0.0,0.0,0.0,0.0,0.0,0.0,0.0,-1.2985,-1.2904,0.0,0.0,0.0,0.0,0.0,-0.941,-0.8894,-0.8829,-0.7621,-0.7098,0.0,0.0,-0.7485,0.0,0.0,0.0,0.0,0.0,0.0,0.0,0.0,-0.0431,-0.0472,-0.0763,-0.0465,0.0,0.0,0.0,0.0,0.0,0.0,0.0,0.0,0.0,0.0,0.0,0.0,0.0,0.0,0.0,0.0,0.0,0.0,0.0,0.0,0.0,0.0,0.0,0.0,0.0,0.0,0.0,0.0,0.0,0.0,0.0,0.0,0.0,0.0,0.0,0.0,0.0,0.0,0.0,0.0,0.0,0.0,0.0,0.0,0.0,0.0,0.0,0.0,0.0,0.0,0.0,0.0,0.0,0.0,0.0,0.0,0.0,0.0,0.0,0.0,0.0,0.0,0.0,0.0,0.0,0.0,0.0,0.0,-0.5924,-0.5991,-0.6194,-0.6769,-0.6756,-0.6668,-0.6641,-0.6612,-0.6901,0.0,0.0,0.0,0.0,0.0,0.0,0.0,0.0,0.0,0.0,0.0,0.0,-1.352,-1.328,0.0,0.0,0.0,0.0,0.0,0.0,-0.8894,-0.8829,-0.7621,0.0,0.0,0.0,0.0,0.0,0.0,0.0,0.0,0.0,0.0,0.0,0.0,0.0,-0.2021,-0.3241,-0.1947,0.0,0.0,0.0,0.0,0.0,0.0,0.0,0.0,0.0,0.0,0.0,0.0,0.0,0.0,0.0,0.0,0.0,0.0,0.0,0.0,0.0,0.0,0.0,0.0,0.0,0.0,0.0,0.0,0.0,0.0,0.0,0.0,0.0,0.0,0.0,0.0,0.0,0.0,0.0,0.0,0.0,0.0,0.0,0.0,0.0,0.0,0.0,0.0,0.0,0.0,0.0,0.0,0.0,0.0,0.0,0.0,0.0,0.0,0.0,0.0,0.0,0.0,0.0,0.0,0.0,0.0,0.0,0.0,-0.5944,-0.5993,-0.6209,-0.683,-0.6857,-0.6816,-0.6816,-0.6702,-0.6693,-0.6875,-0.7461,0.0,0.0,0.0,0.0,0.0,0.0,0.0,0.0,0.0,-1.3788,-1.3908,-1.417,0.0,0.0,0.0,0.0,0.0,0.0,-0.8965,-0.8829,-0.7621,0.0,0.0,0.0,0.0,0.0,0.0,0.0,0.0,0.0,0.0,-0.3083,0.0,0.0,0.0,-0.3706,-0.3193,0.0,0.0,-0.3148,-0.344,-0.3828,-0.3047,-0.2184,-0.2186,-0.1084,0.0,0.0,0.0,0.0,0.0,0.0,0.0,0.0,0.0,0.0,0.0,0.0,0.0,0.0,0.0,0.0,0.0,0.0,0.0,0.0,0.0,0.0,0.0,0.0,0.0,0.0,0.0,0.0,0.0,0.0,0.0,0.0,0.0,0.0,0.0,0.0,0.0,0.0,0.0,0.0,0.0,0.0,0.0,0.0,0.0,0.0,0.0,0.0,0.0,0.0,0.0,0.0,0.0,0.0,0.0,0.0,0.0,0.0,-0.5532,-0.5944,-0.5993,-0.6209,-0.683,-0.6904,-0.6924,-0.6965,-0.6837,-0.6681,-0.6498,-0.7058,0.0,0.0,0.0,0.0,0.0,0.0,0.0,0.0,0.0,-1.4277,-1.437,-1.4785,-1.4166,0.0,0.0,-1.1525,-0.9764,0.0,0.0,0.0,0.0,0.0,0.0,0.0,0.0,0.0,0.0,0.0,0.0,0.0,0.0,0.0,0.0,0.0,0.0,0.0,0.0,0.0,0.0,-0.5057,-0.5539,-0.6043,-0.5302,-0.4389,-0.4335,-0.2909,-0.1508,0.0,0.0,-0.0593,-0.0582,-0.0278,0.0,0.0,-0.0328,-0.0459,-0.0053,-0.0343,-0.0442,-0.0063,0.0,0.0,0.0,0.0,0.0,0.0,0.0,0.0,0.0,0.0,0.0,0.0,0.0,0.0,0.0,0.0,0.0,0.0,0.0,0.0,0.0,0.0,0.0,0.0,0.0,0.0,0.0,0.0,0.0,0.0,0.0,0.0,0.0,0.0,0.0,0.0,0.0,0.0,0.0,0.0,0.0,0.0,0.0,0.0,-0.5532,-0.5944,-0.5993,-0.6209,-0.683,-0.6904,-0.6958,-0.7078,-0.697,-0.6904,-0.6897,-0.6668,0.0,0.0,0.0,0.0,0.0,0.0,0.0,-1.406,-1.4362,-1.4656,-1.4995,-1.5008,-1.3879,-1.1714,-1.143,-0.9939,-0.7442,0.0,0.0,0.0,0.0,0.0,0.0,0.0,0.0,0.0,0.0,0.0,0.0,0.0,0.0,0.0,0.0,0.0,0.0,0.0,-0.7748,-0.7284,0.0,-0.4642,-0.5165,-0.5366,-0.585,-0.6211,-0.6036,-0.5515,-0.502,0.0,-0.3357,-0.1981,-0.197,-0.0932,0.0,0.0,-0.1084,-0.1545,-0.0207,-0.1121,-0.1507,-0.0191,0.0,0.0,0.0,0.0,0.0,0.0,0.0,0.0,0.0,0.0,0.0,0.0,0.0,0.0,0.0,0.0,0.0,0.0,0.0,0.0,0.0,0.0,0.0,0.0,0.0,0.0,0.0,0.0,0.0,0.0,0.0,0.0,0.0,0.0,0.0,0.0,0.0,0.0,0.0,0.0,0.0,0.0,0.0,0.0,0.0,-0.5691,-0.5813,-0.6017,-0.6443,-0.658,-0.6675,-0.6803,-0.6797,-0.6796,-0.6897,-0.6742,0.0,0.0,0.0,0.0,0.0,0.0,0.0,-1.3191,-1.4282,-1.4986,-1.5257,-1.5458,-1.4264,-1.1839,-1.1744,-1.0263,-0.7665,-0.757,-0.7441,0.0,0.0,0.0,0.0,0.0,0.0,-0.7844,0.0,0.0,0.0,0.0,0.0,0.0,0.0,0.0,0.0,0.0,0.0,0.0,-0.7016,-0.7527,-0.8383,-0.8781,-0.813,-0.7302,-0.713,-0.5722,-0.4337,-0.4306,-0.3808,-0.3363,-0.3369,-0.304,-0.2465,-0.1536,-0.2465,-0.3045,-0.2003,-0.2973,-0.3382,0.0,0.0,0.0,-0.0149,0.0,0.0,0.0,0.0,0.0,0.0,0.0,0.0,0.0,0.0,0.0,0.0,0.0,0.0,0.0,0.0,0.0,0.0,0.0,0.0,0.0,0.0,0.0,0.0,0.0,0.0,0.0,0.0,0.0,0.0,0.0,0.0,0.0,0.0,0.0,0.0,0.0,0.0,0.0,0.0,0.0,0.0,-0.5586,-0.5664,-0.5872,-0.6252,-0.6375,-0.6512,-0.6756,-0.6762,-0.6871,-0.7075,-0.7007,0.0,0.0,0.0,0.0,0.0,0.0,0.0,-1.2775,-1.3798,-1.4718,-1.5565,-1.5835,-1.4643,-1.2096,-1.2096,-1.0547,-0.7801,-0.7665,-0.7516,0.0,0.0,0.0,0.0,0.0,0.0,-0.7794,0.0,0.0,0.0,0.0,0.0,0.0,0.0,0.0,0.0,0.0,0.0,0.0,0.0,-0.8412,-0.9211,-0.989,-0.9424,-0.8695,-0.8555,-0.723,-0.5943,-0.5869,-0.529,-0.4743,-0.4743,-0.4343,-0.3742,-0.2914,-0.3842,-0.4409,-0.3361,-0.4422,-0.4697,0.0,0.0,0.0,-0.0224,0.0,0.0,0.0,0.0,0.0,0.0,0.0,0.0,0.0,0.0,0.0,0.0,0.0,0.0,0.0,0.0,0.0,0.0,0.0,0.0,0.0,0.0,0.0,0.0,0.0,0.0,0.0,0.0,0.0,0.0,0.0,0.0,0.0,0.0,0.0,0.0,0.0,0.0,0.0,0.0,0.0,0.0,0.0,-0.5652,-0.5845,-0.6306,-0.6426,-0.6621,-0.7021,-0.7026,-0.7114,-0.7448,-0.7435,0.0,0.0,0.0,0.0,0.0,0.0,-1.0067,-1.2536,-1.2902,-1.3935,-1.5666,-1.5978,-1.4851,-1.2353,-1.2353,-1.0728,-0.7821,-0.7665,-0.7516,0.0,0.0,0.0,0.0,-0.7939,-0.7905,0.0,0.0,0.0,0.0,0.0,0.0,0.0,0.0,0.0,0.0,0.0,0.0,0.0,0.0,0.0,0.0,0.0,-0.9703,-1.0073,-0.9893,-0.9469,-0.9056,-0.8872,-0.7439,0.0,-0.6132,-0.5147,-0.4271,-0.4182,-0.5256,-0.5712,-0.443,-0.5606,-0.5641,0.0,-0.2274,0.0,0.0,0.0,0.0,0.0,0.0,0.0,0.0,0.0,0.0,0.0,0.0,0.0,0.0,0.0,0.0,0.0,0.0,0.0,0.0,0.0,0.0,0.0,0.0,0.0,0.0,0.0,0.0,0.0,0.0,0.0,0.0,0.0,0.0,0.0,0.0,0.0,0.0,0.0,0.0,0.0,0.0,0.0,0.0,0.0,0.0,0.0,0.0,-0.7741,-0.8356,-0.8699,-0.8226,-0.7974,0.0,0.0,0.0,0.0,0.0,0.0,0.0,-0.8631,-0.9514,-1.0487,-1.1425,-1.2698,-1.434,-1.4424,-1.3628,-1.2021,-1.2021,-1.0551,-0.7952,-0.7712,-0.7516,0.0,0.0,0.0,0.0,-0.7824,-0.778,0.0,0.0,0.0,0.0,-0.7188,-0.7371,0.0,0.0,0.0,0.0,0.0,0.0,0.0,0.0,-0.7529,-0.7706,-0.795,0.0,-0.8384,-0.8324,-0.8228,-0.8147,0.0,-0.7863,-0.7534,-0.7534,0.0,-0.6838,-0.6065,-0.6805,-0.7273,-0.6483,-0.7599,-0.7504,-0.45,0.0,0.0,-0.0041,0.0,0.0,0.0,0.0,0.0,0.0,0.0,0.0,0.0,0.0,0.0,0.0,0.0,0.0,0.0,0.0,0.0,0.0,0.0,0.0,0.0,0.0,0.0,0.0,0.0,0.0,0.0,0.0,0.0,0.0,0.0,0.0,0.0,0.0,0.0,0.0,0.0,0.0,0.0,0.0,0.0,0.0,0.0,0.0,0.0,0.0,-0.8511,-0.9079,-0.9451,-0.919,-0.89,0.0,0.0,0.0,0.0,0.0,0.0,-0.7597,-0.8112,-0.8846,-0.9778,-1.0397,-1.1552,-1.3195,-1.3195,-1.2534,-1.1213,-1.1213,-1.0053,-0.7982,-0.7776,-0.7611,0.0,0.0,0.0,0.0,-0.8569,0.0,0.0,0.0,0.0,0.0,-0.8056,-0.7845,0.0,-0.7364,-0.7587,-0.7851,0.0,0.0,0.0,0.0,-0.738,-0.7377,-0.7475,-0.7651,-0.7814,-0.7814,-0.7837,-0.7898,-0.7905,0.0,0.0,0.0,0.0,-0.7835,-0.7297,-0.7718,-0.8039,-0.778,-0.7911,0.0,0.0,0.0,0.0,0.0,0.0,0.0,0.0,0.0,0.0,0.0,0.0,0.0,0.0,0.0,0.0,0.0,0.0,0.0,0.0,0.0,0.0,0.0,0.0,0.0,0.0,0.0,0.0,0.0,0.0,0.0,0.0,0.0,0.0,0.0,0.0,0.0,0.0,0.0,0.0,0.0,0.0,0.0,0.0,0.0,0.0,0.0,0.0,0.0,0.0,0.0,0.0,0.0,0.0,0.0,0.0,0.0,0.0,0.0,0.0,0.0,-0.7794,-0.7672,-0.7645,-0.8215,-0.9492,-0.9516,-1.0347,-1.2034,-1.2034,-1.146,-1.0331,-1.0331,-0.9488,-0.7979,-0.8112,-0.8069,-0.7968,0.0,0.0,0.0,-0.983,0.0,0.0,0.0,0.0,0.0,0.0,0.0,0.0,-0.7766,-0.7793,-0.7801,-0.7709,0.0,0.0,0.0,0.0,0.0,-0.7387,-0.7651,-0.7868,-0.7821,-0.7905,-0.7979,-0.7851,0.0,0.0,0.0,0.0,0.0,0.0,-0.8262,0.0,-0.8648,0.0,0.0,-0.3289,-0.1271,0.0,0.0,0.0,0.0,0.0,0.0,0.0,0.0,0.0,0.0,0.0,0.0,0.0,0.0,0.0,0.0,0.0,0.0,0.0,0.0,0.0,0.0,0.0,0.0,0.0,0.0,0.0,0.0,0.0,0.0,0.0,0.0,0.0,0.0,0.0,0.0,0.0,0.0,0.0,0.0,0.0,0.0,0.0,0.0,0.0,0.0,0.0,0.0,0.0,0.0,0.0,0.0,0.0,0.0,0.0,0.0,0.0,-0.8605,-0.7973,-0.7946,-0.7824,-0.7921,-0.8269,-0.8269,-0.8958,-1.0356,-1.0356,-1.0258,-1.006,-1.006,-0.9257,-0.7879,-0.9243,-0.9698,-0.9546,-1.0763,0.0,-1.1317,-1.1536,0.0,0.0,0.0,0.0,0.0,0.0,0.0,0.0,-0.8732,-0.8306,-0.7722,-0.7337,0.0,0.0,0.0,0.0,0.0,-0.7631,-0.7963,-0.8165,-0.7875,-0.7905,-0.7982,-0.7986,0.0,0.0,0.0,0.0,0.0,0.0,-0.8689,-0.8818,0.0,0.0,-0.5028,-0.5109,-0.2152,0.0,0.0,0.0,0.0,0.0,0.0,0.0,0.0,0.0,0.0,0.0,0.0,0.0,0.0,0.0,0.0,0.0,0.0,0.0,0.0,0.0,0.0,0.0,0.0,0.0,0.0,0.0,0.0,0.0,0.0,0.0,0.0,0.0,0.0,0.0,0.0,0.0,0.0,0.0,0.0,0.0,0.0,0.0,0.0,0.0,0.0,0.0,0.0,0.0,0.0,0.0,0.0,0.0,0.0,0.0,0.0,0.0,-0.865,-0.8054,-0.816,-0.7993,-0.7946,-0.7988,-0.8094,-0.8463,-0.9085,-0.9142,-0.9515,-1.0112,-1.0726,-1.0621,-0.9938,-1.0754,-1.101,-1.0868,-1.1584,-1.1901,-1.1974,0.0,0.0,0.0,0.0,0.0,0.0,0.0,0.0,0.0,0.0,-0.9335,-0.8573,-0.8268,0.0,0.0,0.0,0.0,0.0,-0.7574,-0.7855,-0.8065,-0.8248,-0.8472,-0.856,-0.8235,-0.8263,0.0,0.0,0.0,0.0,0.0,0.0,-0.9402,-0.9396,-0.8114,-0.6524,-0.4766,-0.2922,-0.1334,-0.0127,0.0,0.0,0.0,0.0,0.0,0.0,0.0,0.0,0.0,0.0,0.0,0.0,0.0,0.0,0.0,0.0,0.0,0.0,0.0,0.0,0.0,0.0,0.0,0.0,0.0,0.0,0.0,0.0,0.0,0.0,0.0,0.0,0.0,0.0,0.0,0.0,0.0,0.0,0.0,0.0,0.0,0.0,0.0,0.0,0.0,0.0,0.0,0.0,0.0,0.0,0.0,0.0,0.0,0.0,0.0,-0.9022,-0.8392,-0.8233,-0.814,-0.8081,-0.8115,-0.8228,-0.8328,-0.8403,-0.8471,-0.9113,-1.0349,-1.1527,-1.198,-1.1874,-1.2266,-1.2335,-1.2244,-1.2641,-1.2823,-1.2896,0.0,0.0,0.0,0.0,0.0,0.0,0.0,0.0,0.0,0.0,0.0,0.0,0.0,0.0,0.0,-0.7296,-0.7202,-0.7256,-0.7651,-0.7834,-0.8045,-0.8581,-0.8859,-0.892,-0.8709,-0.873,0.0,0.0,0.0,0.0,0.0,-0.9883,0.0,-0.9841,-0.9488,-0.8089,-0.4767,-0.3727,-0.2493,-0.0254,0.0,0.0,0.0,0.0,0.0,0.0,0.0,0.0,0.0,0.0,0.0,0.0,0.0,0.0,0.0,0.0,0.0,0.0,0.0,0.0,0.0,0.0,0.0,0.0,0.0,0.0,0.0,0.0,0.0,0.0,0.0,0.0,0.0,0.0,0.0,0.0,0.0,0.0,0.0,0.0,0.0,0.0,0.0,0.0,0.0,0.0,0.0,0.0,0.0,0.0,0.0,0.0,0.0,0.0,-1.1421,-1.0418,-0.932,-0.8083,-0.818,-0.8342,-0.8471,-0.8355,-0.843,-0.8676,-0.8547,-0.925,-1.0699,-1.1968,-1.2486,-1.2407,-1.346,-1.3876,-1.3825,-1.5008,-1.551,-1.5534,-1.5605,0.0,0.0,0.0,0.0,0.0,0.0,0.0,0.0,0.0,0.0,0.0,0.0,0.0,-0.7597,-0.757,-0.7468,-0.7505,-0.809,-0.8253,-0.8342,-0.8628,-0.852,-0.86,-0.9496,-0.9401,0.0,-0.9792,0.0,0.0,0.0,-1.0588,-1.1212,-1.1567,-1.0374,-0.8647,-0.6563,-0.4574,-0.2481,-0.0263,0.0,0.0,0.0,0.0,0.0,0.0,0.0,0.0,0.0,0.0,0.0,0.0,0.0,0.0,0.0,0.0,0.0,0.0,0.0,0.0,0.0,0.0,0.0,0.0,0.0,0.0,0.0,0.0,0.0,0.0,0.0,0.0,0.0,0.0,0.0,0.0,0.0,0.0,0.0,0.0,0.0,0.0,0.0,0.0,0.0,0.0,0.0,0.0,0.0,0.0,0.0,0.0,0.0,0.0,-1.2446,-1.1488,-1.0453,-0.9411,-0.9355,-0.9092,-0.8505,-0.8615,-0.8784,-0.9015,-1.0558,-1.1459,-1.1801,-1.3906,-1.4752,-1.4522,-1.4969,-1.5123,-1.5116,-1.5605,-1.5808,-1.5808,-1.5808,-1.5484,0.0,0.0,0.0,0.0,0.0,0.0,0.0,0.0,-1.2136,-1.034,-1.0228,-0.9058,-0.7692,-0.7532,-0.7505,-0.7584,-0.7902,-0.8213,-0.8498,-0.875,-0.8838,0.0,0.0,-0.9978,-1.0222,-1.0508,-1.0677,0.0,0.0,0.0,-1.1789,-1.2427,-1.212,-1.0596,-0.7204,-0.5969,-0.4074,-0.0432,0.0,0.0,0.0,0.0,0.0,0.0,0.0,0.0,0.0,0.0,0.0,0.0,0.0,0.0,0.0,0.0,0.0,0.0,0.0,0.0,0.0,0.0,0.0,0.0,0.0,0.0,0.0,0.0,0.0,0.0,0.0,0.0,0.0,0.0,0.0,0.0,0.0,0.0,0.0,0.0,0.0,0.0,0.0,0.0,0.0,0.0,0.0,0.0,0.0,0.0,0.0,0.0,0.0,0.0,-1.289,-1.2397,-1.1656,-1.0638,-1.0251,-0.9751,-0.9119,-0.8967,-0.9008,-0.9207,-1.1887,-1.2972,-1.2605,-1.5306,-1.6417,-1.6075,-1.6005,-1.5965,-1.5941,-1.5848,-1.5808,-1.5808,-1.5808,-1.5538,0.0,0.0,0.0,0.0,0.0,0.0,0.0,0.0,-1.276,-1.0918,-1.0846,-0.9409,-0.7712,-0.758,-0.7584,-0.7699,-0.7817,-0.8072,-0.8357,-0.8683,0.0,0.0,-1.0086,-1.0561,-1.0982,-1.1387,-1.1482,-1.1545,-1.157,0.0,-1.1996,-1.269,-1.303,-1.1694,-0.7423,-0.6769,-0.5025,-0.0553,0.0,0.0,0.0,0.0,0.0,0.0,0.0,0.0,0.0,0.0,0.0,0.0,0.0,0.0,0.0,0.0,0.0,0.0,0.0,0.0,0.0,0.0,0.0,0.0,0.0,0.0,0.0,0.0,0.0,0.0,0.0,0.0,0.0,0.0,0.0,0.0,0.0,0.0,0.0,0.0,0.0,0.0,0.0,0.0,-0.9301,-1.0454,-1.1871,0.0,0.0,0.0,0.0,0.0,0.0,0.0,-1.2699,-1.3134,-1.2842,-1.1573,-1.0695,-1.0298,-1.0405,-0.9421,-0.9008,-0.9207,-1.223,-1.3384,-1.2852,-1.5826,-1.7006,-1.6687,-1.6417,-1.6297,-1.627,-1.5928,-1.5808,-1.5808,-1.5808,-1.5635,-1.5364,0.0,0.0,0.0,0.0,0.0,0.0,0.0,-1.2752,-1.0686,-1.1131,-0.9583,-0.7631,-0.7767,-0.7814,-0.7824,-0.7973,-0.7905,-0.7929,-0.8403,0.0,0.0,-1.0927,-1.12,-1.1506,-1.2522,-1.2219,-1.1759,-1.1617,-1.1705,-1.1895,-1.2244,-1.2786,-1.1652,-0.7296,-0.6683,-0.5049,-0.0546,0.0,0.0,0.0,0.0,0.0,0.0,0.0,0.0,0.0,0.0,0.0,0.0,0.0,0.0,0.0,0.0,0.0,0.0,0.0,0.0,0.0,0.0,0.0,0.0,0.0,0.0,0.0,0.0,0.0,0.0,0.0,0.0,0.0,0.0,0.0,0.0,0.0,0.0,0.0,0.0,0.0,0.0,0.0,0.0,-0.9301,-1.0454,-1.1683,0.0,0.0,0.0,0.0,0.0,0.0,0.0,-1.3939,-1.4096,-1.3777,-1.2878,-1.2585,-1.2142,-1.1464,-1.0474,-0.9646,-0.9001,-1.1949,-1.3048,-1.244,-1.5455,-1.6567,-1.6075,-1.6244,-1.6152,-1.5928,-1.5848,-1.5808,-1.5808,-1.5808,-1.5635,-1.5364,0.0,0.0,0.0,0.0,0.0,0.0,0.0,0.0,0.0,-0.9855,-0.8751,-0.774,-0.7678,-0.7783,-0.7959,-0.7975,-0.8209,0.0,-0.8893,0.0,0.0,0.0,-1.1558,0.0,0.0,-1.2651,-1.2291,-1.225,-1.2196,-1.2182,-1.2277,-1.261,-1.1388,-0.7133,-0.6577,-0.4933,-0.0534,0.0,0.0,0.0,0.0,0.0,0.0,0.0,0.0,0.0,0.0,0.0,0.0,0.0,0.0,0.0,0.0,0.0,0.0,0.0,0.0,0.0,0.0,0.0,0.0,0.0,0.0,0.0,0.0,0.0,0.0,0.0,0.0,0.0,0.0,0.0,0.0,0.0,0.0,0.0,0.0,0.0,0.0,0.0,0.0,-0.8601,-0.9771,-1.0519,-1.1585,0.0,0.0,0.0,0.0,0.0,0.0,-1.4474,-1.4629,-1.4509,-1.4057,-1.3742,-1.3087,-1.2047,-1.1075,-1.0195,-0.9404,-1.1377,-1.23,-1.2249,-1.4864,-1.6121,-1.6168,-1.6607,-1.6567,-1.6155,-1.6155,-1.6021,-1.5808,-1.5808,-1.5635,-1.5364,0.0,0.0,0.0,0.0,0.0,0.0,0.0,0.0,0.0,-0.9139,-0.8321,-0.7631,-0.7604,-0.7743,-0.7952,-0.8074,-0.8411,0.0,-0.9328,-1.0053,-1.09,-1.1769,0.0,0.0,0.0,-1.3037,-1.2664,-1.2603,-1.2427,-1.2311,-1.2366,-1.2576,-1.154,-0.8201,-0.7738,-0.611,-0.1734,-0.1246,-0.0924,-0.0081,0.0,0.0,0.0,0.0,0.0,0.0,0.0,0.0,0.0,0.0,0.0,0.0,0.0,0.0,0.0,0.0,0.0,0.0,0.0,0.0,0.0,0.0,0.0,0.0,0.0,0.0,0.0,0.0,0.0,0.0,0.0,0.0,0.0,0.0,0.0,-0.6904,-0.6904,0.0,0.0,0.0,0.0,-0.7533,-0.8741,-0.8894,-0.9771,0.0,0.0,0.0,-1.4374,0.0,0.0,0.0,-1.4798,-1.4981,-1.5008,-1.4437,-1.3636,-1.2644,-1.1695,-1.0941,-1.0415,-1.0697,-1.1305,-1.2228,-1.4228,-1.5704,-1.6687,-1.7248,-1.7181,-1.662,-1.6593,-1.6235,-1.5728,-1.5728,-1.5591,-1.5324,-1.5053,0.0,0.0,0.0,0.0,0.0,0.0,0.0,0.0,-0.8785,-0.8109,-0.7423,-0.7556,-0.7699,-0.7882,-0.8247,-0.852,-0.8892,-0.9677,-1.0481,0.0,-1.2379,-1.3003,-1.3451,-1.3666,-1.3356,-1.2949,-1.2779,-1.2508,-1.2345,-1.2461,-1.2589,-1.1924,-0.9852,-0.9531,-0.7918,-0.3612,-0.3104,-0.2275,-0.0199,0.0,0.0,0.0,0.0,0.0,0.0,0.0,0.0,0.0,0.0,0.0,0.0,0.0,0.0,0.0,0.0,0.0,0.0,0.0,0.0,0.0,0.0,0.0,0.0,0.0,0.0,0.0,0.0,0.0,0.0,0.0,0.0,0.0,0.0,0.0,-0.6904,-0.6904,0.0,0.0,0.0,0.0,-0.7533,-0.8741,-0.8894,-0.9771,-1.2044,-1.2301,0.0,-1.4374,-1.4255,0.0,0.0,-1.4576,-1.4723,-1.4995,-1.5502,-1.5761,-1.5732,-1.4321,-1.3043,-1.1924,-1.0982,-1.1005,-1.1996,-1.3956,-1.5407,-1.6404,-1.674,-1.6567,-1.5981,-1.5778,-1.5471,-1.5173,-1.5173,-1.5133,-1.5053,-1.4723,-1.4554,0.0,0.0,0.0,0.0,0.0,0.0,0.0,-0.7775,-0.7446,-0.7423,-0.7556,-0.7699,-0.7929,-0.8472,-0.8723,-0.9122,-1.0224,-1.1408,-1.249,-1.3186,-1.3302,-1.3248,-1.3159,-1.3234,-1.3227,-1.2963,-1.2664,-1.2427,-1.2345,-1.2264,-1.1523,-0.957,-0.9142,-0.7578,-0.3562,-0.2992,-0.2173,-0.0192,0.0,0.0,0.0,0.0,0.0,0.0,0.0,0.0,0.0,0.0,0.0,0.0,0.0,0.0,0.0,0.0,0.0,0.0,0.0,0.0,0.0,0.0,0.0,0.0,0.0,0.0,0.0,0.0,0.0,0.0,0.0,0.0,0.0,0.0,0.0,0.0,0.0,0.0,0.0,0.0,0.0,-0.7447,-0.7959,-0.813,-0.881,-1.0496,-1.1049,0.0,0.0,-1.3791,-1.4122,-1.4696,-1.4736,-1.4923,-1.5364,-1.5976,-1.6273,-1.6262,-1.4986,-1.3895,-1.312,-1.1159,-1.0488,-1.1033,-1.2259,-1.3833,-1.5581,-1.5283,-1.5178,-1.5115,-1.4388,-1.3766,-1.337,-1.3925,-1.4052,-1.4002,-1.4357,-1.4407,-1.421,-1.3506,0.0,0.0,0.0,0.0,0.0,0.0,0.0,-0.7292,-0.7448,-0.7597,-0.7841,-0.8438,-0.8927,-0.9568,-1.1009,0.0,-1.2739,-1.32,-1.3186,-1.3071,-1.2881,-1.303,-1.3139,-1.2839,-1.261,-1.2433,-1.2254,-1.2152,-1.1744,-1.0712,-1.0514,-0.8948,-0.4945,-0.4429,-0.3247,-0.0303,0.0,0.0,0.0,0.0,0.0,0.0,0.0,0.0,0.0,0.0,0.0,0.0,0.0,0.0,0.0,0.0,0.0,0.0,0.0,0.0,0.0,0.0,0.0,0.0,0.0,0.0,0.0,0.0,0.0,0.0,0.0,0.0,0.0,0.0,0.0,0.0,0.0,0.0,0.0,0.0,0.0,0.0,-0.7168,-0.7272,-0.7758,-0.8821,-0.9554,-1.0739,0.0,0.0,0.0,-1.4932,-1.5039,-1.5297,-1.5861,-1.6139,-1.6179,-1.5968,-1.5095,-1.4423,-1.3967,-1.1765,-1.0488,-1.0121,-1.0519,-1.2023,-1.438,-1.3651,-1.3566,-1.3935,-1.2807,-1.1959,-1.1434,-1.2372,-1.2628,-1.2519,-1.3483,-1.3703,-1.337,-1.2355,-1.1873,-1.1423,-0.9531,0.0,0.0,0.0,0.0,-0.7148,-0.7348,-0.7505,-0.7726,-0.8349,-0.911,-1.012,-1.1649,-1.221,0.0,-1.2887,-1.2921,-1.2853,-1.2712,-1.2793,-1.2839,-1.2515,-1.242,-1.2305,-1.2098,-1.2036,-1.2023,-1.2023,-1.2002,-1.049,-0.6436,-0.5931,-0.4359,-0.0375,0.0,0.0,0.0,0.0,0.0,0.0,0.0,0.0,0.0,0.0,0.0,0.0,0.0,0.0,0.0,0.0,0.0,0.0,0.0,0.0,0.0,0.0,0.0,0.0,0.0,0.0,0.0,0.0,0.0,0.0,0.0,0.0,0.0,0.0,0.0,0.0,0.0,0.0,0.0,0.0,0.0,0.0,0.0,-0.7244,-0.7627,-0.8926,-0.9072,-1.0088,-1.2576,-1.2602,-1.3204,-1.4901,0.0,0.0,-1.6217,-1.627,-1.6404,-1.658,-1.6232,-1.5452,-1.425,-1.3663,-1.2432,-1.0615,-1.0672,-1.1491,-1.2869,-1.2643,-1.2365,-1.2047,-1.1512,-1.1093,-1.0718,-1.0892,-1.0925,-1.0916,-1.1068,-1.109,-1.1047,-1.0886,-1.0183,-0.9301,-0.8995,-0.8215,0.0,0.0,0.0,-0.7148,-0.7348,-0.7505,-0.7726,-0.8349,-0.9408,-1.0582,-1.1457,-1.1898,-1.2268,0.0,-1.2562,-1.2406,-1.2508,-1.2549,-1.2515,-1.2345,-1.2101,-1.1868,-1.187,-1.1726,-1.1681,-1.1681,-1.1565,-1.0084,-0.6268,-0.5723,-0.4148,-0.036,0.0,0.0,0.0,0.0,0.0,0.0,0.0,0.0,0.0,0.0,0.0,0.0,0.0,0.0,0.0,0.0,0.0,0.0,0.0,0.0,0.0,0.0,0.0,0.0,0.0,0.0,0.0,0.0,0.0,0.0,0.0,0.0,0.0,0.0,0.0,0.0,0.0,0.0,0.0,0.0,0.0,0.0,0.0,0.0,-0.746,-0.7923,-0.8364,-0.9147,-1.0496,-1.0941,-1.1885,-1.3651,-1.4191,-1.4846,-1.5765,-1.5939,-1.6005,-1.5979,-1.5845,-1.5518,-1.4923,-1.4052,-1.3007,-1.1863,-1.1157,-1.1227,-1.1937,-1.0807,-1.0578,-1.0901,-0.966,-0.8945,-0.8703,-0.9379,-0.9683,-0.9809,-1.0396,-1.0643,-1.069,-1.0634,-1.0291,-0.9749,-0.9104,-0.8544,-0.7995,-0.7312,0.0,0.0,0.0,-0.7353,-0.7695,-0.8634,-0.9444,-1.0215,-1.1138,-1.1525,-1.1782,-1.2104,-1.2196,-1.2155,-1.2128,-1.206,-1.1986,-1.1925,-1.1735,-1.1558,-1.147,-1.1402,-1.1362,-1.1362,-1.0455,-0.8744,-0.5997,-0.4747,-0.3015,-0.0283,0.0,0.0,0.0,0.0,0.0,0.0,0.0,0.0,0.0,0.0,0.0,0.0,0.0,0.0,0.0,0.0,0.0,0.0,0.0,0.0,0.0,0.0,0.0,0.0,0.0,0.0,0.0,0.0,0.0,0.0,0.0,0.0,0.0,0.0,0.0,0.0,0.0,0.0,0.0,0.0,0.0,0.0,0.0,0.0,-0.7285,-0.7188,0.0,0.0,0.0,-0.949,-1.0578,-1.2268,-1.3133,-1.3984,-1.4916,-1.5441,-1.5595,-1.5404,-1.5391,-1.5364,-1.5307,-1.4031,-1.3193,-1.2764,-1.15,-1.1004,-1.112,-0.9481,-0.9157,-0.9768,-0.8237,-0.7465,-0.7351,-0.8183,-0.8546,-0.8678,-0.9527,-0.9846,-0.9851,-0.9794,-0.9752,-0.9575,-0.8733,-0.8456,-0.8281,-0.7379,-0.7098,0.0,0.0,0.0,-0.7614,-0.8621,-0.9089,-0.9557,-1.056,-1.0975,-1.1206,-1.1579,-1.1748,-1.1846,-1.1735,-1.1536,-1.1414,-1.1414,-1.1382,-1.1329,-1.122,-1.12,-1.1186,-1.1145,-0.9963,-0.8228,-0.5833,-0.4367,-0.2601,-0.0244,0.0,0.0,0.0,0.0,0.0,0.0,0.0,0.0,0.0,0.0,0.0,0.0,0.0,0.0,0.0,0.0,0.0,0.0,0.0,0.0,0.0,0.0,0.0,0.0,0.0,0.0,0.0,0.0,0.0,0.0,0.0,0.0,0.0,0.0,0.0,0.0,0.0,0.0,0.0,0.0,0.0,0.0,0.0,0.0,-0.7181,-0.7369,-0.7246,-0.7636,-0.8798,-0.8951,-0.9591,-1.1085,-1.2462,-1.3399,-1.3765,-1.4849,0.0,-1.5391,-1.5391,-1.528,-1.5035,-1.3933,-1.3195,-1.2756,-1.1507,-1.0705,-1.0321,-0.932,-0.8709,-0.8369,-0.7835,-0.7665,-0.7753,-0.7567,-0.7361,-0.725,-0.7607,-0.7554,-0.7325,-0.7509,-0.7444,-0.7268,-0.7202,-0.7187,-0.718,-0.7121,-0.7098,-0.7098,0.0,0.0,0.0,-0.7939,-0.8316,-0.8723,-0.9496,-1.0019,-1.0519,-1.1097,-1.124,-1.1281,-1.1389,-1.1151,-1.0948,-1.0948,-1.109,-1.1206,-1.12,-1.12,-1.1118,-1.0948,-1.0826,-0.9449,-0.5823,-0.5319,-0.3886,-0.0343,0.0,0.0,0.0,0.0,0.0,0.0,0.0,0.0,0.0,0.0,0.0,0.0,0.0,0.0,0.0,0.0,0.0,0.0,0.0,0.0,0.0,0.0,0.0,0.0,0.0,0.0,0.0,0.0,0.0,0.0,0.0,0.0,0.0,0.0,0.0,0.0,0.0,0.0,0.0,0.0,0.0,0.0,0.0,0.0,0.0,0.0,-0.7154,-0.7332,-0.7885,-0.7938,-0.847,-0.9732,-1.0446,-1.1258,-1.2256,-1.2844,-1.3069,-1.29,-1.2801,-1.3066,-1.3709,-1.2507,-1.21,-1.2397,-1.13,-1.0361,-0.9567,-0.9095,-0.877,-0.8513,-0.7868,-0.757,-0.7532,-0.7305,-0.7283,-0.7405,-0.7317,-0.7337,-0.7391,-0.7249,-0.7161,-0.7098,-0.7098,-0.7098,0.0,0.0,0.0,0.0,0.0,-0.7154,-0.7296,-0.7749,-0.797,-0.8235,-0.896,-0.9517,-0.9958,-1.0326,-1.0744,-1.1016,-1.0968,-1.0921,-1.0887,-1.0786,-1.0846,-1.088,-1.088,-1.088,-1.0826,-1.0677,-0.9728,-0.81,-0.5501,-0.4281,-0.269,-0.0237,0.0,0.0,0.0,0.0,0.0,0.0,0.0,0.0,0.0,0.0,0.0,0.0,0.0,0.0,0.0,0.0,0.0,0.0,0.0,0.0,0.0,0.0,0.0,0.0,0.0,0.0,0.0,0.0,0.0,0.0,0.0,0.0,0.0,0.0,0.0,0.0,0.0,0.0,-0.7269,-0.7269,-0.738,-0.7414,-0.7283,0.0,0.0,0.0,0.0,-0.7317,-0.7464,-0.7471,-0.7786,-0.855,-0.9114,-0.985,-1.0796,-1.1421,-1.1656,-1.1448,-1.1354,-1.1813,-1.2867,-1.1234,-1.0968,-1.1921,-1.0492,-0.9548,-0.9097,-0.8743,-0.8662,-0.8716,-0.8099,-0.7791,-0.7682,-0.7425,-0.7438,-0.7597,-0.7567,-0.7574,-0.7584,-0.7459,-0.7323,-0.7188,-0.7112,-0.7098,-0.7098,0.0,0.0,0.0,0.0,0.0,0.0,-0.7479,0.0,0.0,-0.8568,-0.9008,-0.9347,-0.9771,-1.0218,-1.0508,-1.0407,-1.059,-1.0718,-1.0602,-1.0609,-1.0643,-1.0643,-1.0643,-1.0595,-1.0439,-0.9486,-0.8061,-0.6158,-0.4994,-0.3644,-0.1867,-0.1701,-0.1504,-0.0941,-0.0908,-0.0639,-0.0034,0.0,0.0,0.0,0.0,0.0,0.0,0.0,0.0,0.0,0.0,0.0,0.0,0.0,0.0,0.0,0.0,0.0,0.0,0.0,0.0,0.0,0.0,0.0,0.0,0.0,0.0,0.0,0.0,0.0,-0.7767,-0.7631,-0.7604,-0.7597,-0.7597,-0.7604,-0.7604,-0.7597,0.0,0.0,0.0,0.0,0.0,-0.7597,-0.7604,-0.7604,-0.7604,-0.8644,-0.9304,-0.9444,-1.0698,-1.1341,-1.1211,-1.1201,-1.1636,-1.249,-1.018,-0.9867,-1.1385,-0.9074,-0.8317,-0.8858,-0.8251,-0.8338,-0.8852,-0.8438,-0.8281,-0.8267,-0.7929,-0.7733,-0.7685,-0.8267,-0.8106,-0.7658,-0.7912,-0.7753,-0.7389,-0.7188,-0.7112,-0.7112,0.0,0.0,0.0,0.0,0.0,0.0,0.0,0.0,0.0,-0.8294,-0.8485,-0.8655,-0.9401,-0.9656,-0.9765,-0.9785,-1.0168,-1.0432,-1.0335,-1.0392,-1.048,-1.048,-1.048,-1.0432,-1.0297,-1.0308,-0.9634,-0.7827,-0.7603,-0.6937,-0.5272,-0.5083,-0.4421,-0.2812,-0.2682,-0.1912,-0.0101,0.0,0.0,0.0,0.0,0.0,0.0,0.0,0.0,0.0,0.0,0.0,0.0,0.0,0.0,0.0,0.0,0.0,0.0,0.0,0.0,0.0,0.0,0.0,0.0,0.0,0.0,0.0,0.0,-0.7864,-0.7801,-0.776,-0.7665,-0.7597,-0.7597,-0.7685,-0.7719,0.0,0.0,0.0,-0.7611,-0.7692,-0.7712,-0.7611,-0.7692,-0.7753,-0.7753,-0.8034,-0.8275,-0.8415,-0.8777,-0.8948,-0.8902,-0.8828,-0.924,-1.02,-0.8641,-0.852,-0.9731,-0.8344,-0.7898,-0.8231,-0.8062,-0.8083,-0.8243,-0.7929,-0.8002,-0.826,-0.7821,-0.7889,-0.8233,-0.7943,-0.7943,-0.809,-0.7923,-0.7844,-0.781,-0.7655,-0.7601,-0.7567,0.0,0.0,0.0,0.0,0.0,0.0,-0.7098,0.0,0.0,0.0,0.0,0.0,-0.8566,-0.892,-0.9244,-0.9568,-0.9849,-1.0066,-1.0249,-1.0222,-1.0143,-1.0143,-1.0263,-1.0283,-1.0103,-1.0209,-0.9596,-0.7681,-0.7553,-0.691,-0.5132,-0.4939,-0.4303,-0.2667,-0.2571,-0.1798,-0.0099,0.0,0.0,0.0,0.0,0.0,0.0,0.0,0.0,0.0,0.0,0.0,0.0,0.0,0.0,0.0,0.0,0.0,0.0,0.0,0.0,0.0,0.0,0.0,0.0,0.0,0.0,0.0,-0.7975,-0.7946,-0.7885,-0.7885,-0.781,-0.7756,-0.7756,-0.7831,-0.7851,0.0,0.0,0.0,-0.777,-0.797,-0.8004,-0.7776,-0.7837,-0.7885,-0.7885,-0.7885,-0.7891,-0.7918,-0.7979,-0.7986,-0.7918,-0.7831,-0.8311,-0.9389,-0.8111,-0.8076,-0.9161,-0.8109,-0.7692,-0.7831,-0.7763,-0.777,-0.7866,-0.8226,-0.8278,-0.8122,-0.8583,-0.8672,-0.8498,-0.8377,-0.8431,-0.8526,-0.8317,-0.827,-0.8243,-0.7898,-0.7773,-0.7672,0.0,0.0,0.0,0.0,0.0,0.0,0.0,0.0,0.0,-0.7489,0.0,0.0,-0.8092,-0.8351,-0.8628,-0.8981,-0.9266,-0.9481,-0.9686,-0.9747,-0.9717,-0.9686,-0.9802,-0.9917,-0.992,-1.0032,-0.9679,-0.8526,-0.846,-0.8115,-0.7117,-0.7022,-0.6375,-0.475,-0.4622,-0.3868,-0.2148,-0.1402,-0.1043,-0.1043,-0.0356,0.0,0.0,0.0,0.0,0.0,0.0,0.0,0.0,0.0,0.0,0.0,0.0,0.0,0.0,0.0,0.0,0.0,0.0,0.0,0.0,0.0,0.0,0.0,0.0,-0.7988,-0.7995,-0.804,-0.804,-0.8047,-0.806,-0.8047,-0.8054,0.0,-0.8076,-0.8083,-0.8088,-0.8336,-0.8377,-0.8088,-0.8008,-0.7988,-0.7988,-0.7988,-0.7952,-0.7817,-0.7946,-0.7952,-0.7817,-0.781,-0.8304,-0.9316,-0.8177,-0.8121,-0.9095,-0.8083,-0.7597,-0.759,-0.7464,-0.7478,-0.7691,-0.911,-0.9067,-0.8188,-0.9942,-1.0012,-0.9113,-0.9659,-0.9716,-0.9473,-0.9437,-0.9235,-0.891,-0.8135,-0.778,-0.7597,-0.7283,-0.7285,0.0,0.0,-0.7141,0.0,0.0,0.0,0.0,0.0,-0.759,0.0,-0.7858,-0.7966,-0.8033,-0.824,-0.8574,-0.8845,-0.8879,-0.913,-0.9294,-0.9179,-0.9274,-0.9442,-0.9724,-0.9765,-0.9771,-0.9792,-0.9792,-0.9846,-0.9981,-0.9994,-0.9318,-0.7685,-0.7419,-0.6591,-0.4993,-0.3557,-0.2757,-0.2757,-0.1155,-0.0287,-0.0283,-0.0094,0.0,0.0,0.0,0.0,0.0,0.0,0.0,0.0,0.0,0.0,0.0,0.0,0.0,0.0,0.0,0.0,0.0,0.0,0.0,0.0,-0.7982,-0.7988,-0.8054,-0.8201,-0.8253,-0.8287,-0.8377,-0.8296,-0.8309,-0.8547,-0.8662,-0.8689,-0.8568,-0.852,-0.8485,-0.8397,-0.8155,-0.7988,-0.7988,-0.7988,-0.7975,-0.7973,-0.7975,-0.7975,-0.7973,-0.7973,-0.801,-0.8121,-0.7876,-0.7825,-0.7919,-0.7715,-0.7597,-0.759,-0.7464,-0.7478,-0.7762,-1.0098,-1.045,-0.9573,-1.1529,-1.2404,-1.2558,-1.2777,-1.2959,-1.3049,-1.2731,-1.1882,-1.069,-0.8953,-0.8174,-0.7898,-0.7716,-0.7536,-0.7389,-0.7355,0.0,0.0,0.0,0.0,0.0,0.0,-0.759,0.0,-0.7536,-0.7685,-0.7871,-0.8027,-0.8255,-0.8472,-0.871,-0.8804,-0.8872,-0.894,-0.898,-0.9142,-0.9591,-0.9652,-0.9693,-0.9778,-0.9792,-0.9805,-0.9832,-0.9832,-0.9167,-0.7547,-0.6197,-0.5262,-0.4916,-0.4602,-0.4445,-0.4445,-0.2872,-0.2017,-0.201,-0.0681,0.0,0.0,0.0,0.0,0.0,0.0,0.0,0.0,0.0,0.0,0.0,0.0,0.0,0.0,0.0,0.0,0.0,0.0,0.0,0.0,-0.7988,-0.7988,-0.8088,-0.8362,-0.8342,-0.8396,-0.8662,-0.8587,-0.8567,-0.877,-0.8954,-0.896,-0.8737,-0.8642,-0.8533,-0.8417,-0.8148,-0.7988,-0.7988,-0.7988,-0.7988,-0.7988,-0.7988,-0.7988,-0.7988,-0.7988,-0.7979,-0.7898,-0.7898,-0.7864,-0.7797,-0.7797,-0.7716,-0.7597,-0.759,-0.7916,-0.859,-1.0696,-1.1669,-1.1877,-1.3394,-1.3747,-1.3467,-1.3951,-1.4145,-1.41,-1.3821,-1.2633,-1.0906,-0.9104,-0.8336,-0.8099,-0.7801,-0.7651,-0.7587,-0.7437,-0.7396,-0.7396,0.0,0.0,0.0,-0.7512,-0.7597,0.0,0.0,-0.7597,-0.7746,-0.7871,-0.7991,-0.8085,-0.8235,-0.8391,-0.8492,-0.8466,-0.8588,-0.8818,-0.9117,-0.9354,-0.9523,-0.9591,-0.9598,-0.9598,-0.9598,-0.9673,-0.9409,-0.8647,-0.7813,-0.7352,-0.7352,-0.6575,-0.6091,-0.5988,-0.372,-0.2443,-0.2346,-0.0795,0.0,0.0,0.0,0.0,0.0,0.0,0.0,0.0,0.0,0.0,0.0,0.0,0.0,0.0,0.0,0.0,0.0,0.0,0.0,0.0,-0.7988,-0.7988,-0.8101,-0.8417,-0.8396,-0.8471,-0.8804,-0.8764,-0.8777,-0.8926,-0.913,-0.9186,-0.8947,-0.8798,-0.8716,-0.8621,-0.8236,-0.8074,-0.8216,-0.8094,-0.7975,-0.7973,-0.7975,-0.7975,-0.7973,-0.8,-0.7988,-0.7988,-0.7988,-0.7988,-0.7988,-0.7988,-0.7891,-0.7685,-0.7746,-0.8233,-0.9158,-1.0641,-1.2123,-1.3517,-1.443,-1.4467,-1.4014,-1.4627,-1.4877,-1.4877,-1.4441,-1.302,-1.1105,-0.9482,-0.8664,-0.8267,-0.7814,-0.774,-0.7767,-0.7553,-0.7498,0.0,0.0,-0.7546,-0.7614,-0.7631,-0.7706,-0.774,0.0,0.0,0.0,-0.776,-0.7794,-0.7814,-0.7814,-0.8038,-0.8174,-0.7993,-0.8248,-0.8472,-0.8567,-0.894,-0.9267,-0.9356,-0.9342,-0.932,-0.9403,-0.9462,-0.9591,-0.9737,-0.9754,-0.9761,-0.9785,-0.8538,-0.7744,-0.7592,-0.4818,-0.3131,-0.27,-0.118,-0.0275,0.0,0.0,0.0,0.0,0.0,0.0,0.0,0.0,0.0,0.0,0.0,0.0,0.0,0.0,0.0,0.0,0.0,0.0,0.0,-0.7988,-0.7988,-0.8067,-0.8287,-0.841,-0.852,-0.871,-0.8723,-0.8811,-0.9117,-0.9381,-0.9591,-0.9656,-0.9197,-0.9136,-0.9765,-0.871,-0.8297,-0.9009,-0.8404,-0.7952,-0.7817,-0.7946,-0.7952,-0.7817,-0.7946,-0.7988,-0.7988,-0.7988,-0.7988,-0.7988,-0.7988,-0.7975,-0.7952,-0.7733,-0.7818,-0.8213,-0.9304,-1.0824,-1.2602,-1.307,-1.449,-1.6278,-1.5905,-1.6506,-1.7409,-1.6144,-1.4522,-1.2761,-1.1028,-0.9573,-0.843,-0.8067,-0.7885,-0.7801,-0.7773,-0.7831,-0.7912,-0.7801,-0.8052,-0.8287,-0.7882,-0.8085,-0.8267,-0.7719,0.0,-0.7898,-0.7672,0.0,-0.7814,-0.7814,0.0,0.0,-0.7837,-0.8092,-0.8281,-0.8108,-0.8384,-0.8757,-0.9158,-0.9069,-0.9061,-0.9383,-0.9301,-0.9349,-0.9612,-0.951,-0.9544,-0.9778,-0.952,-0.9357,-0.9308,-0.7413,-0.5764,-0.4425,-0.2779,-0.1297,0.0,0.0,0.0,0.0,0.0,0.0,0.0,0.0,0.0,0.0,0.0,0.0,0.0,0.0,0.0,0.0,0.0,0.0,0.0,-0.8162,-0.7988,-0.8088,-0.8376,-0.8403,-0.8808,-1.001,-1.0444,-1.0366,-0.9641,-0.9697,-0.992,-1.0181,-0.9724,-0.9582,0.0,-0.9293,-0.8879,-0.9022,-0.8567,-0.8269,-0.8201,-0.8074,-0.8027,-0.8079,-0.8027,-0.7988,-0.7988,-0.7988,-0.7988,-0.7988,-0.7988,-0.7966,-0.7885,-0.7844,-0.8282,-0.9089,-0.9673,-1.0769,-1.2147,-1.2516,-1.3222,-1.4139,-1.4663,-1.5652,-1.6683,-1.5878,-1.4618,-1.3052,-1.1371,-0.9779,-0.8471,-0.8241,-0.804,-0.7898,-0.781,-0.7831,-0.7871,-0.7804,-0.8079,-0.8321,-0.7986,-0.8214,-0.837,-0.7925,-0.7925,-0.7979,-0.7858,0.0,0.0,0.0,0.0,0.0,0.0,-0.7916,-0.7984,-0.7891,-0.7943,-0.8192,-0.873,-0.871,-0.8757,-0.8974,-0.8933,-0.8988,-0.9176,-0.9239,-0.9369,-0.9551,-0.951,-0.9476,-0.9476,-0.7792,-0.6589,-0.5981,-0.347,-0.1955,-0.1446,-0.0459,0.0,0.0,0.0,0.0,0.0,0.0,0.0,0.0,0.0,0.0,0.0,0.0,0.0,0.0,0.0,0.0,0.0,-0.9262,-0.9065,-0.9049,-0.8933,-0.9167,-0.9922,-1.1598,-1.2148,-1.2086,-1.1323,-1.0851,-1.0813,-1.1337,-1.059,-1.0229,0.0,-1.0097,-0.9612,-0.9406,-0.8947,-0.86,-0.837,-0.8209,-0.8153,-0.8172,-0.8119,-0.8054,-0.7988,-0.7988,-0.7988,-0.7988,-0.7988,-0.7952,-0.7851,-0.7966,-0.8516,-0.9405,-0.9612,-1.0423,-1.1619,-1.1438,-1.1347,-1.1467,-1.3121,-1.4085,-1.4609,-1.4784,-1.3911,-1.2505,-1.1309,-0.9845,-0.8539,-0.8355,-0.8194,-0.8047,-0.7891,-0.7929,-0.7977,-0.7871,-0.8126,-0.8336,-0.8074,-0.8235,-0.8357,-0.8074,-0.8047,-0.8067,-0.802,-0.8047,0.0,0.0,0.0,-0.7966,-0.781,0.0,-0.7794,-0.776,-0.7665,-0.7787,-0.8303,-0.8431,-0.8539,-0.8581,-0.8587,-0.8669,-0.8831,-0.8933,-0.9097,-0.9335,-0.9349,-0.9349,-0.9349,-0.8176,-0.7101,-0.6247,-0.4383,-0.3121,-0.248,-0.1216,-0.0645,-0.0679,-0.0216,0.0,0.0,0.0,0.0,0.0,0.0,0.0,0.0,0.0,0.0,0.0,0.0,0.0,0.0,-1.178,-1.178,-1.139,-1.0158,-1.1117,-1.2343,-1.312,-1.3241,-1.3643,-1.4691,-1.3235,-1.2546,-1.3595,-1.19,-1.1104,-1.2128,-1.1138,-1.0514,-1.0623,-0.973,-0.8839,-0.806,-0.8316,-0.8269,-0.7834,-0.8138,-0.8187,-0.7988,-0.7988,-0.7988,-0.7988,-0.7988,-0.7988,-0.7982,-0.7988,-0.8119,-0.8357,-0.8371,-0.9354,-1.0797,-0.9387,-0.8893,-0.9285,-1.187,-1.2194,-1.1437,-1.2859,-1.2426,-1.113,-1.097,-0.9923,-0.8655,-0.8389,-0.8294,-0.826,-0.8054,-0.8209,-0.8397,-0.8088,-0.8331,-0.8587,-0.8121,-0.816,-0.826,-0.8047,-0.8153,-0.8247,-0.8047,-0.816,-0.824,-0.8033,-0.7988,-0.7966,-0.781,-0.7814,0.0,0.0,-0.7604,-0.7712,-0.7993,-0.8309,-0.8457,-0.8321,-0.8308,-0.843,-0.8696,-0.8581,-0.8723,-0.9193,-0.9214,-0.9214,-0.9214,-0.9157,-0.7669,-0.4613,-0.5908,-0.5196,-0.2498,-0.224,-0.2244,-0.237,-0.074,0.0,0.0,0.0,0.0,0.0,0.0,0.0,0.0,0.0,0.0,0.0,0.0,0.0,0.0,-1.2385,-1.3628,-1.4059,-1.1678,-1.1668,-1.2324,-1.3293,-1.4693,-1.5814,-1.6368,-1.6107,-1.6338,-1.7706,-1.59,-1.4703,-1.5007,-1.2969,-1.1531,-1.1185,-1.0403,-0.9741,-0.9359,-0.8967,-0.8757,-0.873,-0.8539,-0.8362,-0.8194,-0.8067,-0.7988,-0.7988,-0.7988,-0.7988,-0.7995,-0.8147,-0.8247,-0.8315,-0.8587,-0.8979,-0.9409,-0.9009,-0.8947,-0.9286,-1.103,-1.1379,-1.1157,-1.259,-1.2132,-1.0843,-1.0885,-0.9853,-0.856,-0.856,-0.8492,-0.8423,-0.835,-0.8472,-0.8615,-0.8486,-0.8811,-0.9049,-0.8568,-0.8574,-0.8621,-0.8269,-0.8328,-0.8343,-0.8067,-0.8235,-0.8336,-0.806,-0.7988,-0.8,-0.7946,-0.7851,-0.776,0.0,-0.7597,-0.7638,-0.774,-0.7923,-0.8018,-0.797,-0.8058,-0.8094,-0.8113,-0.8255,-0.8478,-0.8723,-0.8832,-0.8906,-0.9008,-0.8053,-0.7085,-0.6097,-0.5528,-0.4814,-0.3931,-0.2775,-0.2238,-0.2273,-0.185,-0.1647,-0.1725,-0.277,-0.3231,-0.3169,-0.2094,-0.1663,-0.154,-0.0432,0.0,0.0,0.0,0.0,0.0,-1.4136,-1.5295,-1.5651,-1.3182,-1.333,-1.4131,-1.5121,-1.7111,-1.8688,-1.9147,-1.9315,-1.9804,-2.0922,-1.9264,-1.8062,-1.7965,-1.5559,-1.3663,-1.2838,-1.1627,-1.0629,-0.9961,-0.9629,-0.9381,0.0,-0.8947,-0.8655,-0.8294,-0.8221,-0.8115,-0.7988,-0.7988,-0.7988,-0.7995,-0.8201,-0.8321,-0.8396,-0.8743,-0.8885,-0.8879,-0.8974,-0.9042,-0.9167,-0.9944,-1.0225,-1.0296,-1.1107,-1.0792,-1.0013,-1.0097,-0.9472,-0.8655,-0.8696,-0.8642,-0.856,-0.856,-0.8669,-0.8764,-0.8764,-0.9042,-0.9247,-0.8879,-0.8838,-0.8804,-0.8464,-0.8485,-0.8492,-0.8223,-0.8309,-0.8397,-0.8338,-0.8137,-0.8033,-0.8088,-0.7902,-0.7665,0.0,-0.7482,-0.7536,-0.759,-0.7749,-0.7864,-0.7864,-0.7959,-0.7973,-0.7871,-0.8079,-0.8255,-0.8423,-0.8601,-0.873,-0.8825,-0.7499,-0.6547,-0.604,-0.5019,-0.4303,-0.3901,-0.2759,-0.2524,-0.3151,-0.2699,-0.2804,-0.3413,-0.4456,-0.4885,-0.4763,-0.3169,-0.2493,-0.2339,-0.0648,0.0,0.0,0.0,0.0,0.0,-1.686,-1.678,-1.6311,-1.4774,-1.6011,-1.7515,-1.8438,-2.0298,-2.193,-2.288,-2.2838,-2.2891,-2.3312,-2.1981,-2.1045,-2.1003,-1.8727,-1.6785,-1.5638,-1.3607,-1.1797,-1.0307,-1.0534,-1.0301,-0.9446,0.0,0.0,0.0,-0.8444,-0.833,-0.8027,-0.7995,-0.7988,-0.7995,-0.8208,-0.8376,-0.8519,-0.8784,-0.9028,-0.9207,-0.9221,-0.9076,-0.8906,-0.8743,-0.877,-0.8858,-0.8581,-0.8567,-0.8689,-0.8696,-0.877,-0.8879,-0.8737,-0.8723,-0.8723,-0.8723,-0.8811,-0.8933,-0.8933,-0.9069,-0.9179,-0.898,-0.894,-0.8858,-0.8581,-0.8635,-0.8696,-0.854,-0.843,-0.8464,-0.8818,-0.8412,-0.8074,-0.826,-0.7896,-0.7509,-0.7173,-0.7299,-0.7471,-0.759,-0.7837,-0.7988,-0.7982,-0.7982,-0.7988,-0.7982,-0.7988,-0.8081,-0.8274,-0.854,-0.8703,-0.871,-0.7444,-0.6097,-0.4644,-0.4474,-0.3777,-0.2608,-0.2403,-0.3217,-0.4845,-0.3408,-0.3564,-0.5039,-0.51,-0.5131,-0.5008,-0.3323,-0.2616,-0.2431,-0.0679,0.0,0.0,0.0,0.0,0.0,-1.7395,-1.7729,-1.7928,-1.7486,-1.745,-1.7943,-1.9252,-2.0686,-2.2305,-2.4285,-2.5437,-2.6338,-2.7126,-2.5506,-2.4175,-2.375,-2.144,-1.9801,-1.9284,-1.8174,-1.7207,-1.6526,-1.4499,-1.3145,-1.2621,-1.0589,-0.9347,-0.8982,-0.8546,-0.8315,-0.8208,-0.8067,-0.7988,-0.8027,-0.8309,-0.8417,-0.8383,-0.8907,-0.9145,-0.9221,-0.9308,-0.926,-0.9097,-0.8811,-0.871,-0.8703,-0.8457,-0.8376,-0.8423,-0.8532,-0.8642,-0.8757,-0.8831,-0.8852,-0.8852,-0.8852,-0.9034,-0.9266,-0.9266,-0.9456,-0.9612,-0.9447,-0.9354,-0.9218,-0.9049,-0.9124,-0.9137,-0.8845,-0.8879,-0.8886,-0.8642,-0.8384,-0.8187,-0.8088,-0.7885,-0.7733,-0.7628,-0.7672,-0.7712,-0.7753,-0.7898,-0.7973,-0.7858,-0.7946,-0.7966,-0.7851,-0.7952,-0.8033,-0.8074,-0.8377,-0.8594,-0.871,-0.636,-0.5499,-0.628,-0.3961,-0.3199,-0.3991,-0.4036,-0.4306,-0.4779,-0.5706,-0.638,-0.6808,-0.8039,-0.8532,-0.8318,-0.5468,-0.4272,-0.3996,-0.111,0.0,0.0,0.0,0.0,0.0,-1.8063,-1.8664,-1.9252,-1.9252,-1.9492,-1.9973,-2.0815,-2.1737,-2.3033,-2.501,-2.6547,-2.7549,-2.7802,-2.7367,-2.6847,-2.6286,-2.4028,-2.2452,-2.2007,-2.0681,-1.9641,-1.9009,-1.7276,-1.5603,-1.4088,-1.2257,0.0,-0.9207,-0.8716,-0.8423,-0.8294,-0.8088,-0.7988,-0.8002,-0.8282,-0.8403,-0.8423,-0.8954,-0.926,-0.9376,-0.9328,-0.926,0.0,-0.8777,-0.8608,-0.8574,-0.8275,-0.8255,-0.8403,-0.8485,-0.8628,-0.8811,-0.8988,-0.9028,-0.9055,-0.9163,-0.9347,-0.9496,-0.9557,-0.9693,-0.9771,-0.969,-0.9639,-0.9517,-0.9328,-0.9349,-0.9334,-0.9164,-0.9042,-0.8968,-0.8913,-0.8573,-0.8226,-0.7952,-0.779,-0.7719,-0.7719,-0.7773,-0.7814,-0.7814,-0.7918,-0.7979,-0.7898,-0.7966,-0.7979,-0.7891,-0.7966,-0.7988,-0.7988,-0.8262,-0.8485,-0.8608,-0.6631,-0.564,-0.5858,-0.3566,-0.2446,-0.2546,-0.3337,-0.4112,-0.4861,-0.6591,-0.779,-0.8495,-0.942,-0.9792,-0.9542,-0.6263,-0.4885,-0.4579,-0.1295,0.0,0.0,0.0,0.0,0.0,-1.8758,-1.9599,-2.0357,-2.0277,-2.1504,-2.2571,-2.2792,-2.3332,-2.4239,-2.5625,-2.7041,-2.7722,-2.7134,-2.8188,-2.8751,-2.8232,-2.6321,-2.4945,-2.4421,-2.2606,-2.1118,-2.025,-1.9643,-1.7926,-1.4938,-1.3982,-1.209,0.0,-0.8859,-0.854,-0.8294,-0.8088,-0.7988,-0.7995,-0.8201,-0.8376,-0.8539,-0.8968,-0.9294,-0.9469,-0.9274,-0.9172,-0.9111,-0.8716,-0.8526,-0.8479,-0.8196,-0.8282,-0.8505,-0.8505,-0.8682,-0.8933,-0.9111,-0.9165,-0.9233,-0.9469,-0.9578,-0.9639,-0.9731,-0.9778,-0.9792,-0.9792,-0.9792,-0.9754,-0.9496,-0.9442,-0.9442,-0.9442,-0.911,-0.8933,-0.9315,-0.8784,-0.8199,-0.7889,-0.774,-0.7658,-0.7658,-0.7767,0.0,-0.7817,-0.7932,0.0,-0.7988,-0.7988,-0.7988,-0.7988,-0.7988,-0.7988,-0.7988,-0.8187,-0.8369,-0.8532,-0.7238,-0.6005,-0.4832,-0.3165,-0.164,-0.0295,-0.1793,-0.3335,-0.4957,-0.664,-0.8282,-0.9792,-0.9572,-0.9481,-0.9238,-0.5927,-0.4456,-0.3965,-0.111,0.0,0.0,0.0,0.0,0.0,-1.9586,-2.0521,-2.1194,-2.0712,-2.2017,-2.3545,-2.4783,-2.5678,-2.648,-2.7215,-2.8404,-2.9032,-2.8641,-2.8671,-2.8537,-2.8219,-2.7841,-2.7538,-2.7453,-2.6809,-2.6177,-2.5487,-2.3239,-2.0568,-1.7526,-1.485,-1.2189,-0.953,-0.8852,-0.8464,-0.8294,-0.8088,-0.7988,-0.7995,-0.8201,-0.8376,-0.8532,-0.8838,-0.8906,-0.8886,-0.9104,-0.9111,-0.894,-0.8858,-0.875,-0.8662,-0.8588,-0.8547,-0.8505,-0.8505,-0.8682,-0.8912,-0.894,-0.9055,-0.9221,-0.9247,-0.9437,-0.9612,-0.9639,-0.9734,-0.9792,-0.9792,-0.9792,-0.9778,-0.9754,-0.9741,-0.9741,-0.9741,-0.9591,-0.9401,-0.9254,-0.8716,-0.8233,-0.8006,-0.7952,-0.7939,-0.7939,-0.7959,-0.7973,0.0,-0.7975,-0.7988,-0.7988,-0.7988,-0.7988,-0.7988,-0.7988,-0.7988,-0.7988,-0.8187,-0.8417,-0.8662,-0.6065,-0.526,-0.6482,-0.2485,-0.0921,-0.1827,-0.2282,-0.3335,-0.4957,-0.664,-0.8282,-0.9731,-0.8404,-0.782,-0.7576,-0.4272,-0.2094,-0.0802,-0.0216,0.0,0.0,0.0,0.0,0.0,-2.1122,-2.1617,-2.2111,-2.2445,-2.3714,-2.513,-2.644,-2.7655,-2.8257,-2.7762,-2.807,-2.8217,-2.7881,-2.8323,-2.8484,-2.8219,-2.8179,-2.8179,-2.8179,-2.7911,-2.7509,-2.7068,-2.536,-2.2987,-1.9982,-1.7724,-1.4826,-1.1299,-1.0327,-0.9354,-0.8403,-0.8121,-0.7988,-0.7995,-0.8201,-0.8417,-0.8615,-0.8818,-0.896,-0.9069,-0.924,-0.926,-0.915,-0.8967,-0.8818,-0.8703,-0.8621,-0.8594,-0.8601,-0.8601,-0.8798,-0.9062,-0.9144,-0.9273,-0.943,-0.9476,-0.9605,-0.972,-0.972,-0.9737,-0.9792,-0.9792,-0.9792,-0.9792,-0.9792,-0.9792,-0.9792,-0.9792,-0.9677,-0.9496,-0.911,-0.8648,-0.8294,-0.8269,-0.8208,-0.816,-0.816,-0.816,-0.8108,-0.8027,0.0,0.0,-0.7988,-0.7988,-0.7988,-0.7988,-0.7988,-0.7988,-0.7988,-0.7422,-0.7224,-0.7452,-0.5499,-0.4453,-0.4476,-0.2416,-0.1275,-0.1084,-0.2032,-0.3333,-0.4927,-0.573,-0.6996,-0.8465,-0.6813,-0.611,-0.5923,-0.3505,-0.1509,0.0,0.0,0.0,0.0,0.0,0.0,0.0,-2.2632,-2.2859,-2.33,-2.4302,-2.5596,-2.6734,-2.7482,-2.8871,-2.9406,-2.823,-2.7829,-2.7522,-2.7228,-2.7989,-2.8417,-2.8205,-2.8179,-2.8179,-2.8179,-2.7911,-2.7562,-2.7322,-2.6466,-2.4622,-2.1653,-1.9848,-1.6904,-1.2786,-1.1386,-0.9903,-0.8384,-0.8155,-0.8047,-0.7995,-0.8235,-0.8471,-0.8676,-0.8865,-0.9117,-0.9362,-0.9396,-0.939,-0.9335,-0.9076,-0.8865,-0.8716,-0.8621,-0.8655,-0.873,-0.873,-0.8933,-0.9228,-0.9322,-0.9462,-0.9632,-0.971,-0.9765,-0.9792,-0.9792,-0.9792,-0.9792,-0.9792,-0.9792,-0.9792,-0.9792,-0.9792,-0.9792,-0.9792,-0.968,-0.9442,-0.9027,-0.8642,-0.8417,-0.8498,-0.8417,-0.8321,-0.8253,-0.8274,-0.8214,-0.8033,0.0,0.0,-0.7988,-0.7988,-0.7988,-0.7988,-0.7988,-0.7889,-0.7584,-0.6581,-0.5966,-0.5867,-0.4722,-0.3496,-0.2201,-0.214,-0.1576,-0.0548,-0.1871,-0.3514,-0.5429,-0.5072,-0.5804,-0.7296,-0.525,-0.418,-0.3751,-0.2493,-0.1202,0.0,0.0,0.0,0.0,0.0,0.0,0.0,-2.3562,-2.4325,-2.4943,-2.5331,-2.6841,-2.7844,-2.7416,-2.8607,-2.9472,-2.9339,-2.9058,-2.8721,-2.847,-2.8326,-2.8219,-2.8192,-2.8179,-2.8179,-2.8179,-2.7911,-2.7562,-2.7322,-2.6466,-2.4622,-2.1653,-1.884,-1.578,-1.2451,-1.0389,-0.8919,-0.806,-0.8194,-0.8174,-0.8002,-0.8336,-0.8505,-0.856,-0.8981,-0.9179,-0.9241,-0.9356,-0.9328,-0.9228,-0.9172,-0.9042,-0.8885,-0.8872,-0.8879,-0.8892,-0.8892,-0.9022,-0.9214,-0.9228,-0.9403,-0.9612,-0.9625,-0.969,-0.9792,-0.9792,-0.9792,-0.9792,-0.9792,-0.9792,-0.9792,-0.9792,-0.9792,-0.9792,-0.9792,-0.9598,-0.9376,-0.9192,-0.8907,-0.8628,-0.8532,-0.8498,-0.837,-0.8074,-0.818,-0.8214,-0.8033,-0.7988,0.0,-0.7988,-0.7988,-0.7988,-0.7988,-0.7988,-0.7459,-0.6257,-0.6077,-0.5503,-0.442,-0.3009,-0.2242,-0.2201,-0.0899,-0.0919,-0.2257,-0.2416,-0.4144,-0.7104,-0.5586,-0.5804,-0.7235,-0.4088,-0.1848,-0.0432,-0.0308,-0.0154,0.0,0.0,0.0,0.0,0.0,0.0,0.0,-2.5558,-2.5598,-2.5957,-2.6961,-2.7228,-2.7575,-2.823,-2.8831,-2.9152,-2.8978,-2.8858,-2.8738,-2.8617,-2.8366,-2.8179,-2.8179,-2.8179,-2.8179,-2.8179,-2.8072,-2.7804,-2.7322,-2.676,-2.5608,-2.3726,-2.1834,-1.8907,-1.4904,-1.3411,-1.1317,-0.8703,-0.8519,-0.8389,-0.8309,-0.8431,-0.8581,-0.8777,-0.9165,-0.9322,-0.9342,-0.9551,-0.9557,-0.9429,-0.9429,-0.9279,-0.9083,-0.9171,-0.9144,-0.9083,-0.9171,-0.9239,-0.9322,-0.9322,-0.9496,-0.9704,-0.9704,-0.9744,-0.9792,-0.9792,-0.9792,-0.9792,-0.9792,-0.9792,-0.9792,-0.9792,-0.9792,-0.9792,-0.9792,-0.9585,-0.9362,-0.9234,-0.8941,-0.8723,-0.8723,-0.8676,-0.8547,-0.8336,-0.8357,-0.8309,-0.804,-0.7988,-0.7988,-0.7988,-0.7988,-0.7988,-0.7988,-0.726,-0.6556,-0.6032,-0.4472,-0.3372,-0.2893,-0.1529,-0.0836,-0.0869,-0.1279,-0.1825,-0.2515,-0.3486,-0.464,-0.5835,-0.4211,-0.329,-0.2891,-0.1571,-0.0617,0.0,0.0,0.0,0.0,0.0,0.0,0.0,0.0,0.0,0.0,-2.6987,-2.6747,-2.6948,-2.8339,-2.8016,-2.7896,-2.8735,-2.8868,-2.8804,-2.8511,-2.847,-2.847,-2.847,-2.8312,-2.8179,-2.8179,-2.8179,-2.8179,-2.8179,-2.8098,-2.7831,-2.7322,-2.6894,-2.6186,-2.5104,-2.3582,-2.0776,-1.6665,-1.5317,-1.2785,-0.924,-0.8879,-0.873,-0.8777,-0.8791,-0.896,-0.9183,-0.9469,-0.9605,-0.9689,-0.9792,-0.9771,-0.9666,-0.9625,-0.9449,-0.9254,-0.9322,-0.9301,-0.926,-0.9322,-0.9403,-0.9449,-0.9449,-0.9618,-0.9792,-0.9792,-0.9792,-0.9792,-0.9792,-0.9792,-0.9792,-0.9792,-0.9792,-0.9792,-0.9792,-0.9792,-0.9778,-0.9737,-0.9557,-0.9376,-0.9267,-0.8974,-0.8784,-0.8892,-0.8818,-0.8696,-0.8478,-0.8485,-0.837,-0.8047,-0.7988,-0.7988,-0.7988,-0.7988,-0.7839,-0.7434,-0.6176,-0.5422,-0.5422,-0.3243,-0.1828,-0.1424,-0.0481,-0.0249,-0.0717,-0.1916,-0.2985,-0.3965,-0.51,-0.5651,-0.5559,-0.3444,-0.1571,0.0,0.0,0.0,0.0,0.0,0.0,0.0,0.0,0.0,0.0,0.0,0.0,0.0,-2.7402,-2.7682,-2.8056,-2.9259,-2.9459,-2.9259,-2.8698,-2.8604,-2.8497,-2.8232,-2.8192,-2.8192,-2.8192,-2.8192,-2.8179,-2.8179,-2.8179,-2.8179,-2.8179,-2.7911,-2.7575,-2.7322,-2.6747,-2.5985,-2.5141,-2.2793,-2.0061,-1.6808,-1.4782,-1.231,-0.9403,-0.9247,-0.9254,-0.9403,-0.953,-0.968,-0.9792,-0.9947,-1.0096,-1.0256,-1.0076,-0.9927,-0.9771,-0.9659,-0.951,-0.939,-0.924,-0.9281,-0.9383,-0.9233,-0.9383,-0.9605,-0.9605,-0.9707,-0.9792,-0.9792,-0.9792,-0.9792,-0.9792,-0.9792,-0.9792,-0.9792,-0.9792,-0.9792,-0.9792,-0.9792,-0.9751,-0.9639,-0.949,-0.941,-0.941,-0.9137,-0.8912,-0.8912,-0.8912,-0.875,-0.8362,-0.8417,-0.837,-0.8047,-0.7988,-0.7988,-0.7988,-0.7988,-0.7459,-0.6132,-0.4768,-0.4017,-0.4017,-0.2739,-0.1397,-0.0078,0.0,-0.0792,-0.2463,-0.2476,-0.4142,-0.7332,-0.7357,-0.7357,-0.7266,-0.3996,-0.1571,0.0,0.0,0.0,0.0,0.0,0.0,0.0,0.0,0.0,0.0,0.0,0.0,0.0,-2.8481,-2.8575,-2.8695,-2.9068,-2.9018,-2.8751,-2.8393,-2.8326,-2.8299,-2.8205,-2.8179,-2.8179,-2.8179,-2.8179,-2.8179,-2.8179,-2.8179,-2.8179,-2.8179,-2.7911,-2.7562,-2.7322,-2.6894,-2.6279,-2.5398,-2.4459,-2.1861,-1.7541,-1.6602,-1.3962,-0.9805,-0.968,-0.9632,-0.9686,-0.9734,-0.9897,-1.0134,-1.0188,-1.0236,-1.0263,-1.0082,-0.9988,-0.9927,-0.9778,-0.9666,-0.9544,-0.9591,-0.9578,-0.9544,-0.9591,-0.9673,-0.9744,-0.9846,-0.9839,-0.9792,-0.9792,-0.9792,-0.9792,-0.9792,-0.9792,-0.9792,-0.9792,-0.9792,-0.9819,-0.992,-0.9947,-0.9873,-0.9659,-0.9571,-0.9469,-0.9294,-0.9179,-0.9055,-0.8926,-0.8825,-0.8696,-0.8478,-0.8396,-0.8262,-0.804,-0.7988,-0.7988,-0.7988,-0.7185,-0.6456,-0.6032,-0.392,-0.2641,-0.2641,-0.136,-0.0433,-0.0026,-0.112,-0.1957,-0.2492,-0.4734,-0.6377,-0.7423,-0.8495,-0.7856,-0.559,-0.2308,-0.0494,0.0,0.0,0.0,0.0,0.0,0.0,0.0,0.0,0.0,0.0,0.0,0.0,0.0,-2.9135,-2.9032,-2.8868,-2.8975,-2.8698,-2.8406,-2.8219,-2.8179,-2.8179,-2.8179,-2.8179,-2.8179,-2.8179,-2.8179,-2.8179,-2.8179,-2.8179,-2.8179,-2.8179,-2.8005,-2.7724,-2.7322,-2.6296,-2.5671,-2.5493,-2.4661,-2.218,-1.8042,-1.6014,-1.3426,-1.0353,-1.0197,-1.013,-1.013,-1.013,-1.0263,-1.0446,-1.0446,-1.0446,-1.0426,-1.0191,-1.0103,-1.0082,-0.9873,-0.9737,-0.9693,-0.9697,-0.969,-0.9693,-0.9697,-0.9785,-0.9893,-0.9988,-0.9994,-0.9985,-0.9893,-0.9879,-0.9866,-0.9805,-0.9792,-0.9792,-0.9792,-0.9792,-0.9812,-0.9913,-0.9934,-0.9879,-0.9697,-0.9646,-0.9537,-0.9315,-0.922,-0.9138,-0.8933,-0.8784,-0.8655,-0.8532,-0.8389,-0.8214,-0.8033,-0.7988,-0.7988,-0.7988,-0.6781,-0.5802,-0.5297,-0.3237,-0.2002,-0.1989,-0.1243,-0.0851,-0.0925,-0.2494,-0.3642,-0.4341,-0.6389,-0.7711,-0.8313,-0.8714,-0.7484,-0.4824,-0.2156,-0.0586,0.0,0.0,0.0,0.0,0.0,0.0,0.0,0.0,0.0,0.0,0.0,0.0,0.0,-2.9392,-2.8978,-2.8671,-2.8948,-2.8537,-2.8192,-2.8219,-2.8205,-2.8179,-2.8179,-2.8179,-2.8179,-2.8179,-2.8179,-2.8179,-2.8179,-2.8179,-2.8179,-2.8179,-2.8165,-2.7856,-2.7077,-2.5059,-2.4324,-2.5059,-2.3366,-2.1007,-1.8097,-1.3618,-1.1274,-1.0941,-1.0779,-1.0704,-1.0704,-1.0691,-1.0684,-1.0684,-1.0684,-1.0684,-1.0697,-1.0412,-1.0297,-1.0295,-0.9951,-0.9805,-0.9785,-0.9673,-0.9707,-0.9771,-0.968,-0.9792,-0.999,-1.0042,-1.015,-1.0263,-1.0076,-0.9997,-0.9988,-0.9846,-0.9798,-0.9792,-0.9792,-0.9798,-0.9805,-0.9792,-0.9798,-0.9805,-0.9792,-0.9713,-0.9578,-0.9422,-0.9301,-0.9145,-0.8933,-0.8777,-0.8642,-0.8512,-0.8369,-0.8201,-0.8033,-0.7988,-0.7988,-0.7988,-0.6706,-0.5352,-0.4099,-0.2764,-0.2004,-0.2023,-0.2341,-0.2559,-0.264,-0.3987,-0.5577,-0.7383,-0.7513,-0.8324,-0.9792,-0.816,-0.6538,-0.4855,-0.3231,-0.1571,0.0,0.0,0.0,0.0,0.0,0.0,0.0,0.0,0.0,0.0,0.0,0.0,0.0,-2.9081,-2.8657,-2.846,-2.8908,-2.8537,-2.8259,-2.8457,-2.8339,-2.8179,-2.8179,-2.8179,-2.8179,-2.8179,-2.8179,-2.8179,-2.8179,-2.8179,-2.8179,-2.8179,-2.7978,-2.6924,-2.4889,-2.4097,-2.282,-2.0956,-2.0316,-1.8645,-1.5863,-1.3079,-1.1572,-1.128,-1.0982,-1.086,-1.0853,-1.0738,-1.0684,-1.0684,-1.0684,-1.0684,-1.0704,-1.0514,-1.0439,-1.0412,-1.0076,-0.9961,-0.9947,-0.9792,-0.9765,-0.9805,-0.9886,-0.9961,-1.0024,-1.0317,-1.0412,-1.0412,-1.027,-1.0109,-0.9977,-0.9974,-0.9879,-0.9792,-0.9792,-0.9879,-0.9934,-0.9819,-0.9879,-0.9934,-0.9812,-0.9765,-0.9697,-0.9585,-0.9429,-0.9239,-0.8953,-0.871,-0.8512,-0.8369,-0.8187,-0.8054,-0.802,-0.7988,-0.7988,-0.7988,-0.5872,-0.4343,-0.4022,-0.2862,-0.2157,-0.2152,-0.4475,-0.5247,-0.4059,-0.4568,-0.5672,-0.7383,-0.8618,-0.9418,-0.9792,-0.816,-0.6538,-0.4855,-0.3231,-0.1571,0.0,0.0,0.0,0.0,0.0,0.0,0.0,0.0,0.0,0.0,0.0,0.0,0.0,-2.9001,-2.8671,-2.8457,-2.8791,-2.8457,-2.8245,-2.8406,-2.8286,-2.8179,-2.8179,-2.8179,-2.8179,-2.8179,-2.8179,-2.8179,-2.8179,-2.7236,-2.7067,-2.8136,-2.6002,-2.4513,-2.401,-2.1895,-2.0283,-1.9382,-1.8412,-1.7059,-1.5266,-1.303,-1.1748,-1.1389,-1.1226,-1.1043,-1.0914,-1.0826,-1.0752,-1.0684,-1.0684,-1.0684,-1.0704,-1.0555,-1.0493,-1.0466,-1.0243,-1.0082,-0.9984,-1.0008,-0.9954,-0.992,-1.0069,-1.0163,-1.0245,-1.0439,-1.0541,-1.0582,-1.0507,-1.0371,-1.0204,-1.0143,-1.0093,-1.0032,-1.0032,-1.0008,-0.9963,-0.9913,-0.9961,-0.9963,-0.9913,-0.9893,-0.9852,-0.9704,-0.953,-0.9286,-0.896,-0.8682,-0.8457,-0.8315,-0.814,-0.804,-0.814,-0.8147,-0.8174,-0.8209,-0.6359,-0.5141,-0.514,-0.3978,-0.3539,-0.4213,-0.5293,-0.5841,-0.5682,-0.6584,-0.7514,-0.8486,-0.9351,-0.9792,-0.9792,-0.816,-0.6538,-0.4855,-0.3231,-0.1571,0.0,0.0,0.0,0.0,0.0,0.0,0.0,0.0,0.0,0.0,0.0,0.0,0.0,-2.8935,-2.8738,-2.8551,-2.8604,-2.8393,-2.8205,-2.8245,-2.8219,-2.8179,-2.8179,-2.8179,-2.8179,-2.8179,-2.8179,-2.8179,-2.8179,-2.6066,-2.5556,-2.7532,-2.3598,-2.1745,-2.2921,-1.9348,-1.7631,-1.8334,-1.6724,-1.5602,-1.5006,-1.3058,-1.1894,-1.1457,-1.1409,-1.1253,-1.0982,-1.0934,-1.084,-1.0718,-1.0698,-1.0684,-1.0677,-1.0575,-1.0527,-1.0514,-1.0365,-1.0229,-1.0103,-1.0243,-1.0195,-1.0082,-1.029,-1.0426,-1.0534,-1.0575,-1.0683,-1.0785,-1.0725,-1.0663,-1.0527,-1.0358,-1.0329,-1.0315,-1.0315,-1.0181,-1.0055,-1.0055,-1.0055,-1.0055,-1.0055,-1.0035,-0.9981,-0.9846,-0.9598,-0.9293,-0.8987,-0.8696,-0.8457,-0.8315,-0.816,-0.8108,-0.8308,-0.8328,-0.8396,-0.8533,-0.7325,-0.6531,-0.6568,-0.552,-0.5435,-0.669,-0.5923,-0.6078,-0.7434,-0.8642,-0.9433,-0.9792,-0.9792,-0.967,-0.942,-0.8069,-0.6381,-0.4487,-0.3139,-0.1571,0.0,0.0,0.0,0.0,0.0,0.0,0.0,0.0,0.0,0.0,0.0,0.0,0.0,-2.8671,-2.8473,-2.8339,-2.8564,-2.8393,-2.8272,-2.8497,-2.8353,-2.8179,-2.8179,-2.8179,-2.8179,-2.8179,-2.8179,-2.8179,-2.8179,-2.6066,-2.4861,-2.5203,-2.2697,-2.0334,-1.8397,-1.7671,-1.6341,-1.4351,-1.3786,-1.3311,-1.2816,-1.2323,-1.1996,-1.1719,-1.1504,-1.1369,-1.1314,-1.1029,-1.0901,-1.0874,-1.0738,-1.0684,-1.0684,-1.0697,-1.0683,-1.0637,-1.0514,-1.0446,-1.0412,-1.0317,-1.0263,-1.029,-1.0561,-1.0663,-1.0731,-1.1016,-1.1111,-1.1104,-1.0914,-1.086,-1.0786,-1.0534,-1.0403,-1.0315,-1.0315,-1.0295,-1.0243,-1.0243,-1.0243,-1.0243,-1.0243,-1.0109,-0.9977,-0.9988,-0.9666,-0.9349,-0.9179,-0.8791,-0.8457,-0.8315,-0.8274,-0.8315,-0.8457,-0.8478,-0.856,-0.8811,-0.7518,-0.6719,-0.6822,-0.674,-0.6796,-0.7036,-0.8172,-0.894,-0.9212,-0.8266,-0.8402,-0.9792,-0.9792,-0.911,-0.7759,-0.7515,-0.58,-0.2862,-0.2616,-0.1571,0.0,0.0,0.0,0.0,0.0,0.0,0.0,0.0,0.0,0.0,0.0,0.0,0.0,-2.8393,-2.8286,-2.8232,-2.8379,-2.8286,-2.8232,-2.8379,-2.8272,-2.8179,-2.8179,-2.8179,-2.8179,-2.8179,-2.8179,-2.7714,-2.6418,-2.4166,-2.2299,-2.1048,-1.9966,-1.8797,-1.746,-1.6124,-1.4744,-1.3329,-1.299,-1.2691,-1.2406,-1.2213,-1.1979,-1.1786,-1.1613,-1.147,-1.1389,-1.1246,-1.1063,-1.0907,-1.084,-1.0765,-1.0684,-1.0684,-1.0684,-1.0677,-1.0643,-1.0561,-1.0493,-1.0514,-1.0466,-1.0439,-1.0711,-1.0813,-1.0846,-1.1132,-1.12,-1.1186,-1.1084,-1.0914,-1.0759,-1.0656,-1.0568,-1.0521,-1.0521,-1.0453,-1.0392,-1.0392,-1.0392,-1.0392,-1.0392,-1.0337,-1.0258,-1.0258,-0.9856,-0.9483,-0.9437,-0.8907,-0.8512,-0.8506,-0.8464,-0.8498,-0.8703,-0.8825,-0.8961,-0.9157,-0.8546,-0.8185,-0.8249,-0.8318,-0.8373,-0.8455,-0.9179,-0.9646,-0.969,-0.9052,-0.9053,-0.9792,-0.8927,-0.813,-0.7388,-0.5617,-0.3965,-0.2462,-0.1571,-0.074,0.0,0.0,0.0,0.0,0.0,0.0,0.0,0.0,0.0,0.0,0.0,0.0,0.0,-2.8179,-2.8179,-2.8179,-2.8179,-2.8179,-2.8179,-2.8179,-2.8179,-2.8179,-2.8179,-2.8179,-2.8179,-2.8179,-2.7714,-2.6673,-2.4861,-2.2557,-2.0226,-1.7929,-1.7807,-1.7461,-1.6733,-1.4822,-1.36,-1.322,-1.2949,-1.2739,-1.2556,-1.2291,-1.2088,-1.1895,-1.1719,-1.1606,-1.1491,-1.1423,-1.1246,-1.0961,-1.0928,-1.0826,-1.0684,-1.0684,-1.0684,-1.0684,-1.0684,-1.0649,-1.0561,-1.0644,-1.0637,-1.0636,-1.0874,-1.0988,-1.1043,-1.1226,-1.1302,-1.1295,-1.1261,-1.1009,-1.0732,-1.0698,-1.0684,-1.0684,-1.0684,-1.0629,-1.0548,-1.0548,-1.0548,-1.0548,-1.0548,-1.0514,-1.0493,-1.0493,-1.0032,-0.9646,-0.9612,-0.9062,-0.8696,-0.875,-0.8689,-0.8737,-0.898,-0.9137,-0.9308,-0.9462,-0.9456,-0.9449,-0.9483,-0.9483,-0.9537,-0.9652,-0.9659,-0.9707,-0.9785,-0.9792,-0.9633,-0.9238,-0.8003,-0.7022,-0.6228,-0.372,-0.231,-0.1879,-0.0586,0.0,0.0,0.0,0.0,0.0,0.0,0.0,0.0,0.0,0.0,0.0,0.0,0.0,0.0,-2.8179,-2.8179,-2.8179,-2.8179,-2.8179,-2.8179,-2.8179,-2.8179,-2.8179,-2.8179,-2.8179,-2.8179,-2.8179,-2.6236,-2.4904,-2.4733,-2.2557,-2.0226,-1.7929,-1.7807,-1.6772,-1.4467,-1.3882,-1.3498,-1.322,-1.3193,-1.2996,-1.2672,-1.2549,-1.2393,-1.225,-1.1952,-1.1773,-1.1753,-1.1511,-1.1336,-1.1172,-1.0968,-1.0826,-1.0684,-1.0684,-1.0684,-1.0684,-1.0684,-1.0677,-1.0704,-1.0684,-1.0772,-1.0907,-1.1097,-1.1274,-1.1389,-1.1538,-1.1586,-1.1558,-1.1416,-1.1165,-1.0867,-1.0725,-1.0684,-1.0684,-1.0684,-1.0677,-1.0704,-1.0704,-1.0704,-1.0704,-1.0704,-1.0588,-1.0493,-1.0493,-1.0114,-0.9731,-0.9632,-0.9356,-0.909,-0.8912,-0.9028,-0.9192,-0.9356,-0.939,-0.9476,-0.9731,-0.9673,-0.9646,-0.9751,-0.9758,-0.9765,-0.9771,-0.9771,-0.9778,-0.9792,-0.9792,-0.9079,-0.7606,-0.7454,-0.5861,-0.2862,-0.2616,-0.1694,-0.0185,-0.0062,0.0,0.0,0.0,0.0,0.0,0.0,0.0,0.0,0.0,0.0,0.0,0.0,0.0,0.0,-2.8179,-2.8179,-2.8179,-2.8179,-2.8179,-2.8179,-2.8179,-2.8179,-2.8179,-2.8179,-2.6927,-2.6024,-2.6024,-2.3941,-2.1954,-2.0529,-1.9619,-1.8113,-1.5778,-1.5646,-1.5184,-1.4119,-1.3871,-1.3619,-1.3458,-1.3309,-1.3159,-1.3003,-1.2664,-1.2474,-1.2413,-1.2013,-1.1793,-1.1786,-1.1619,-1.1396,-1.1193,-1.1104,-1.0995,-1.0819,-1.0725,-1.0745,-1.0819,-1.0725,-1.0745,-1.0826,-1.0826,-1.0955,-1.1104,-1.1253,-1.1341,-1.1416,-1.1572,-1.1584,-1.1556,-1.1436,-1.1314,-1.1192,-1.1036,-1.086,-1.0684,-1.0684,-1.0684,-1.0684,-1.0684,-1.0684,-1.0684,-1.0684,-1.0677,-1.0636,-1.0636,-1.0344,-1.0086,-1.0032,-0.9641,-0.9335,-0.9318,-0.932,-0.9383,-0.9503,-0.9598,-0.97,-0.9778,-0.9744,-0.9731,-0.9785,-0.9792,-0.9792,-0.9792,-0.9792,-0.9792,-0.9792,-0.8836,-0.8003,-0.7423,-0.5372,-0.3751,-0.2493,-0.1448,-0.0617,0.0,0.0,0.0,0.0,0.0,0.0,0.0,0.0,0.0,0.0,0.0,0.0,0.0,0.0,0.0,0.0,-2.8179,-2.8179,-2.8179,-2.8179,-2.8179,-2.7968,-2.7194,-2.7096,-2.6842,-2.6096,-2.4594,-2.3598,-2.3598,-2.1523,-1.9488,-1.7929,-1.7115,-1.6034,-1.4431,-1.4299,-1.4231,-1.4125,-1.3973,-1.3781,-1.3592,-1.3424,-1.3268,-1.3214,-1.286,-1.2623,-1.2562,-1.2115,-1.1904,-1.1898,-1.1701,-1.1477,-1.1268,-1.1268,-1.1151,-1.1009,-1.09,-1.0921,-1.0968,-1.09,-1.0928,-1.0982,-1.0982,-1.1111,-1.1288,-1.1355,-1.145,-1.1545,-1.1617,-1.1651,-1.1631,-1.1558,-1.1463,-1.1369,-1.1295,-1.105,-1.0846,-1.0772,-1.0759,-1.0745,-1.0698,-1.0684,-1.0684,-1.0684,-1.0684,-1.0684,-1.0684,-1.0514,-1.0363,-1.0322,-0.9961,-0.968,-0.971,-0.97,-0.973,-0.9808,-0.9903,-0.9944,-0.9866,-0.9859,-0.9859,-0.9859,-0.9819,-0.9792,-0.9792,-0.9792,-0.9792,-0.9792,-0.8252,-0.7144,-0.6625,-0.3873,-0.2247,-0.1694,-0.0555,0.0,0.0,0.0,0.0,0.0,0.0,0.0,0.0,0.0,0.0,0.0,0.0,0.0,0.0,0.0,0.0,0.0,-2.8192,-2.8179,-2.8179,-2.8136,-2.8136,-2.7363,-2.5032,-2.4691,-2.3824,-2.148,-2.1178,-2.1178,-2.1178,-1.915,-1.7763,-1.7763,-1.5646,-1.4299,-1.4299,-1.4299,-1.4231,-1.4125,-1.4119,-1.3933,-1.3599,-1.3585,-1.3478,-1.3214,-1.3071,-1.2881,-1.2679,-1.2277,-1.2104,-1.2091,-1.1755,-1.1538,-1.1396,-1.1389,-1.1301,-1.12,-1.12,-1.12,-1.12,-1.12,-1.12,-1.12,-1.12,-1.1295,-1.1396,-1.1396,-1.1586,-1.1793,-1.1793,-1.1793,-1.1793,-1.1793,-1.1626,-1.1396,-1.1396,-1.1315,-1.1166,-1.0948,-1.0914,-1.0874,-1.0725,-1.0691,-1.0691,-1.0691,-1.0691,-1.0691,-1.0684,-1.0595,-1.0446,-1.0304,-1.0315,-1.0229,-1.0042,-1.0181,-1.0315,-1.0315,-1.0315,-1.0222,-1.0035,-0.999,-0.999,-0.999,-0.9879,-0.9792,-0.9792,-0.9792,-0.9792,-0.9792,-0.8252,-0.6599,-0.495,-0.3323,-0.1663,0.0,0.0,0.0,0.0,0.0,0.0,0.0,0.0,0.0,0.0,0.0,0.0,0.0,0.0,0.0,0.0,0.0,0.0,0.0,-2.6066,-2.5726,-2.5203,-2.3598,-2.3287,-2.303,-2.2342,-2.2256,-2.1998,-2.1307,-1.9792,-1.8802,-1.8802,-1.6729,-1.5337,-1.5337,-1.469,-1.4299,-1.4299,-1.4299,-1.4278,-1.4231,-1.4129,-1.398,-1.3741,-1.3639,-1.349,-1.3336,-1.3227,-1.3077,-1.2888,-1.2535,-1.2318,-1.2247,-1.1904,-1.1687,-1.1545,-1.1436,-1.1362,-1.1314,-1.124,-1.1261,-1.1349,-1.124,-1.1261,-1.1321,-1.1321,-1.1423,-1.1565,-1.1667,-1.1719,-1.1813,-1.1959,-1.1993,-1.1972,-1.1827,-1.1732,-1.1681,-1.1579,-1.1518,-1.1396,-1.1002,-1.0914,-1.0901,-1.086,-1.0846,-1.0846,-1.0846,-1.0846,-1.0813,-1.0704,-1.0683,-1.0602,-1.0453,-1.0426,-1.0378,-1.0229,-1.0249,-1.0315,-1.0315,-1.0315,-1.0295,-1.0215,-1.0209,-1.0209,-1.0209,-1.0035,-0.9947,-0.9947,-0.9846,-0.9839,-0.9947,-0.8297,-0.7254,-0.6936,-0.3976,-0.1663,0.0,0.0,0.0,0.0,0.0,0.0,0.0,0.0,0.0,0.0,0.0,0.0,0.0,0.0,0.0,0.0,0.0,0.0,0.0,-2.516,-2.4691,-2.3952,-2.161,-2.1221,-2.0919,-2.0009,-1.9879,-1.9532,-1.8593,-1.729,-1.6422,-1.6422,-1.5168,-1.4299,-1.4299,-1.4299,-1.4299,-1.4299,-1.4299,-1.4299,-1.4299,-1.4211,-1.4061,-1.3802,-1.3714,-1.3607,-1.3403,-1.3288,-1.3139,-1.2996,-1.2644,-1.2427,-1.2277,-1.1965,-1.1746,-1.1658,-1.1545,-1.1484,-1.147,-1.1382,-1.143,-1.1552,-1.1402,-1.1436,-1.1558,-1.1504,-1.1538,-1.1597,-1.1678,-1.1823,-1.1959,-1.2207,-1.2234,-1.2173,-1.204,-1.1965,-1.1891,-1.1705,-1.1665,-1.1577,-1.1185,-1.109,-1.1076,-1.105,-1.1029,-1.1016,-1.0928,-1.0914,-1.0867,-1.0718,-1.0684,-1.0657,-1.0595,-1.0582,-1.0555,-1.0466,-1.0453,-1.0453,-1.0453,-1.0453,-1.0432,-1.0371,-1.0397,-1.0369,-1.0315,-1.0195,-1.0109,-1.0109,-0.9967,-0.9947,-1.0103,-0.9106,-0.8296,-0.7728,-0.4942,-0.27,-0.1057,-0.034,0.0,0.0,0.0,0.0,0.0,0.0,0.0,0.0,0.0,0.0,0.0,0.0,0.0,0.0,0.0,0.0,0.0,-2.4551,-2.4081,-2.3341,-2.1005,-2.0572,-1.9879,-1.7807,-1.7501,-1.6729,-1.4557,-1.4299,-1.4299,-1.4299,-1.4299,-1.4299,-1.4299,-1.4299,-1.4299,-1.4299,-1.4299,-1.4299,-1.4299,-1.4299,-1.4163,-1.3822,-1.3802,-1.3653,-1.3403,-1.3261,-1.3159,-1.3016,-1.2678,-1.2467,-1.2318,-1.1969,-1.1834,-1.1827,-1.1685,-1.1624,-1.1624,-1.1624,-1.1735,-1.18,-1.1708,-1.1705,-1.1793,-1.1651,-1.1647,-1.166,-1.1674,-1.1857,-1.2173,-1.2413,-1.2413,-1.2305,-1.2291,-1.2189,-1.2084,-1.1891,-1.1807,-1.1732,-1.1497,-1.1423,-1.1369,-1.1254,-1.122,-1.1179,-1.0982,-1.0955,-1.0907,-1.0738,-1.0711,-1.0704,-1.0691,-1.0684,-1.0684,-1.0684,-1.0684,-1.0684,-1.0684,-1.0684,-1.0663,-1.0527,-1.0514,-1.046,-1.0331,-1.0304,-1.0329,-1.0329,-1.0123,-1.0109,-1.0297,-1.0322,-0.9519,-0.7896,-0.6047,-0.4273,-0.2667,-0.087,0.0,0.0,0.0,0.0,0.0,0.0,0.0,0.0,0.0,0.0,0.0,0.0,0.0,0.0,0.0,0.0,0.0,-1.9749,-1.9324,-1.854,-1.621,-1.5822,-1.5646,-1.5124,-1.508,-1.4866,-1.4387,-1.4299,-1.4299,-1.4299,-1.4299,-1.4299,-1.4299,-1.4299,-1.4299,-1.4299,-1.4299,-1.4299,-1.4299,-1.4299,-1.4211,-1.4027,-1.3862,-1.3653,-1.3403,-1.337,-1.3275,-1.3166,-1.2982,-1.2779,-1.2584,-1.2325,-1.2189,-1.2182,-1.2064,-1.2002,-1.2002,-1.2002,-1.2023,-1.2043,-1.2016,-1.2023,-1.1993,-1.18,-1.1864,-1.2023,-1.2108,-1.2189,-1.2271,-1.2447,-1.2481,-1.2433,-1.2325,-1.2271,-1.221,-1.2091,-1.1925,-1.178,-1.1712,-1.1617,-1.1531,-1.1375,-1.1376,-1.1335,-1.1301,-1.1294,-1.1212,-1.0914,-1.0867,-1.0826,-1.0704,-1.0684,-1.0684,-1.0684,-1.0684,-1.0684,-1.0684,-1.0684,-1.0677,-1.0677,-1.067,-1.0623,-1.0629,-1.0514,-1.0446,-1.0446,-1.031,-1.0297,-1.0439,-1.0337,-1.0211,-1.0045,-0.6749,-0.4233,-0.2536,-0.0813,0.0,0.0,0.0,0.0,0.0,0.0,0.0,0.0,0.0,0.0,0.0,0.0,0.0,0.0,0.0,0.0,0.0,-1.8235,-1.7807,-1.7071,-1.469,-1.4299,-1.4299,-1.4299,-1.4299,-1.4299,-1.4299,-1.4299,-1.4299,-1.4299,-1.4299,-1.4299,-1.4299,-1.4299,-1.4299,-1.4299,-1.4299,-1.4299,-1.4299,-1.4299,-1.4231,-1.4119,-1.3919,-1.3687,-1.3512,-1.3437,-1.3322,-1.3214,-1.3139,-1.2942,-1.2679,-1.2494,-1.2352,-1.2277,-1.2166,-1.2098,-1.2098,-1.2098,-1.2145,-1.22,-1.2125,-1.2145,-1.2149,-1.1993,-1.1993,-1.2125,-1.2237,-1.2291,-1.2318,-1.2461,-1.2501,-1.2488,-1.2413,-1.2393,-1.2359,-1.221,-1.2115,-1.2013,-1.1834,-1.1739,-1.1644,-1.1531,-1.1497,-1.1477,-1.1409,-1.1389,-1.1321,-1.109,-1.0961,-1.0887,-1.0806,-1.0732,-1.0684,-1.0684,-1.0684,-1.0684,-1.0684,-0.9948,-0.9072,-0.824,-0.8939,-0.941,-0.941,-1.0077,-1.0521,-1.0595,-1.046,-1.0453,-1.0595,-0.97,-0.9243,-0.9321,-0.5751,-0.3468,-0.2484,-0.0794,0.0,0.0,0.0,0.0,0.0,0.0,0.0,0.0,0.0,0.0,0.0,0.0,0.0,0.0,0.0,0.0,0.0,-1.7588,-1.7203,-1.6597,-1.4646,-1.4299,-1.4299,-1.4299,-1.4299,-1.4299,-1.4299,-1.4299,-1.4299,-1.4299,-1.4299,-1.4299,-1.4299,-1.4299,-1.4299,-1.4299,-1.4299,-1.4299,-1.4299,-1.4299,-1.4238,-1.4159,-1.396,-1.3754,-1.3585,-1.3478,-1.3336,-1.3214,-1.32,-1.3003,-1.272,-1.2583,-1.2433,-1.2318,-1.2227,-1.2173,-1.2173,-1.2173,-1.221,-1.2311,-1.222,-1.2254,-1.2305,-1.2193,-1.2125,-1.2125,-1.2264,-1.2311,-1.2318,-1.2461,-1.2501,-1.2501,-1.2501,-1.2501,-1.2474,-1.2359,-1.2311,-1.2223,-1.1938,-1.1813,-1.1759,-1.1617,-1.1584,-1.1586,-1.1457,-1.143,-1.1382,-1.1261,-1.1104,-1.0982,-1.0955,-1.0826,-1.0625,-1.0319,-1.0266,-1.0114,-0.9848,-0.8734,-0.7331,-0.5563,-0.7265,-0.8197,-0.7598,-0.9106,-0.9986,-0.9809,-0.9703,-0.9691,-0.9775,-0.8335,-0.7493,-0.7374,-0.4284,-0.2655,-0.2527,-0.0812,0.0,0.0,0.0,0.0,0.0,0.0,0.0,0.0,0.0,0.0,0.0,0.0,0.0,0.0,0.0,0.0,0.0,-1.4822,-1.4778,-1.469,-1.4343,-1.4299,-1.4299,-1.4299,-1.4299,-1.4299,-1.4299,-1.4299,-1.4299,-1.4299,-1.4299,-1.4299,-1.4299,-1.4299,-1.4299,-1.4299,-1.4299,-1.4299,-1.4299,-1.4299,-1.4292,-1.4272,-1.4116,-1.3905,-1.3585,-1.3478,-1.339,-1.3363,-1.3152,-1.3009,-1.2955,-1.263,-1.2488,-1.2474,-1.2447,-1.244,-1.244,-1.244,-1.2454,-1.2467,-1.2447,-1.2454,-1.2454,-1.2311,-1.2213,-1.2139,-1.2379,-1.2393,-1.2318,-1.2461,-1.2501,-1.2501,-1.2501,-1.2501,-1.2501,-1.2481,-1.2386,-1.225,-1.2111,-1.1932,-1.1759,-1.1617,-1.1584,-1.1577,-1.1592,-1.1586,-1.1545,-1.1389,-1.1348,-1.1287,-1.1193,-1.1009,-1.0333,-0.8827,-0.8466,-0.7797,-0.6297,-0.7231,-0.7331,-0.5563,-0.8407,-0.9072,-0.5997,-0.7351,-0.7683,-0.6197,-0.6086,-0.6086,-0.6131,-0.5863,-0.5759,-0.5715,-0.3713,-0.2675,-0.2637,-0.0869,0.0,0.0,0.0,0.0,0.0,0.0,0.0,0.0,0.0,0.0,0.0,0.0,0.0,0.0,0.0,0.0,0.0,-1.4299,-1.4299,-1.4299,-1.4299,-1.4299,-1.4299,-1.4299,-1.4299,-1.4299,-1.4299,-1.4299,-1.4299,-1.4299,-1.4299,-1.4299,-1.4299,-1.4299,-1.4299,-1.4299,-1.4299,-1.4299,-1.4299,-1.4299,-1.4299,-1.4299,-1.415,-1.405,-1.3878,-1.3641,-1.3485,-1.3397,-1.3268,-1.3159,-1.2996,-1.286,-1.2664,-1.2501,-1.2501,-1.2501,-1.2501,-1.2501,-1.2501,-1.2501,-1.2501,-1.2501,-1.2494,-1.2433,-1.2366,-1.2325,-1.2461,-1.2461,-1.242,-1.2481,-1.2501,-1.2501,-1.2501,-1.2501,-1.2501,-1.2501,-1.24,-1.225,-1.2139,-1.1945,-1.1759,-1.1617,-1.1584,-1.1584,-1.1584,-1.1584,-1.1563,-1.1531,-1.145,-1.1369,-1.1336,-1.1063,-1.0298,-0.8544,-0.8135,-0.7365,-0.5596,-0.5195,-0.4724,-0.3957,-0.5329,-0.5593,-0.4024,-0.5529,-0.6197,-0.5429,-0.5396,-0.5396,-0.5396,-0.4426,-0.389,-0.389,-0.2081,-0.1177,-0.1177,-0.037,0.0,0.0,0.0,0.0,0.0,0.0,0.0,0.0,0.0,0.0,0.0,0.0,0.0,0.0,0.0,0.0,0.0]},{"header":{"parameterUnit":"m.s-1","parameterCategory":1,"la1":30.6,"la2":28.766,"lo1":-90.7593,"lo2":-88.6598,"dy":0.0162,"dx":0.0183,"nx":116,"ny":114,"refTime":"2024-05-11T06:00:00:Z","depth":0,"parameterNumber":3,"parameterNumberName":"V-component_of_WINDS"},"data":[0.0,0.0,0.0,0.0,0.0,0.0,0.0,0.0,0.0,0.0,0.0,0.0,0.0,0.0,0.0,0.0,0.0,0.0,0.0,0.0,0.0,0.0,0.0,0.0,0.0,0.0,0.0,0.0,0.0,0.0,0.0,0.0,0.0,0.0,0.0,0.0,0.0,0.0,0.0,0.0,0.0,0.0,0.0,0.0,0.0,0.0,0.0,0.0,0.0,0.0,0.0,0.0,0.0,0.0,0.0,0.0,0.0,0.0,0.0,0.0,0.0,0.0,0.0,0.0,0.0,0.0,0.0,0.0,0.0,0.0,0.0,0.0,0.0,0.0,0.0,0.0,0.0,0.0,0.0,0.0,0.0,0.0,0.0,0.0,0.0,0.0,0.0,0.0,0.0,0.0,0.0,0.0,0.0,0.0,0.0,0.0,0.0,0.0,0.0,0.0,0.0,0.0,0.0,0.0,0.0,0.0,0.0,0.0,0.0,0.0,0.0,0.0,0.0,0.0,0.0,0.0,0.0,0.0,0.0,0.0,0.0,0.0,0.0,0.0,0.0,0.0,0.0,0.0,0.0,0.0,0.0,0.0,0.0,0.0,0.0,0.0,0.0,0.0,0.0,0.0,0.0,0.0,0.0,0.0,0.0,0.0,0.0,0.0,0.0,0.0,0.0,0.0,0.0,0.0,0.0,0.0,0.0,0.0,0.0,0.0,0.0,0.0,0.0,0.0,0.0,0.0,0.0,0.0,0.0,0.0,0.0,0.0,0.0,0.0,0.0,0.0,0.0,0.0,0.0,0.0,0.0,0.0,0.0,0.0,0.0,0.0,0.0,0.0,0.0,0.0,0.0,0.0,0.0,0.0,0.0,0.0,0.0,0.0,0.0,0.0,0.0,0.0,0.0,0.0,0.0,0.0,0.0,0.0,0.0,0.0,0.0,0.0,0.0,0.0,0.0,0.0,0.0,0.0,0.0,0.0,0.0,0.0,0.0,0.0,0.0,0.0,0.0,0.0,0.0,0.0,0.0,0.0,0.0,0.0,0.0,0.0,0.0,0.0,0.0,0.0,0.0,0.0,0.0,0.0,0.0,0.0,0.0,0.0,0.0,0.0,0.0,0.0,0.0,0.0,0.0,0.0,0.0,0.0,0.0,0.0,0.0,0.0,0.0,0.0,0.0,0.0,0.0,0.0,0.0,0.0,0.0,0.0,0.0,0.0,0.0,0.0,0.0,0.0,0.0,0.0,0.0,0.0,0.0,0.0,0.0,0.0,0.0,0.0,0.0,0.0,0.0,0.0,0.0,0.0,0.0,0.0,0.0,0.0,0.0,0.0,0.0,0.0,0.0,0.0,0.0,0.0,0.0,0.0,0.0,0.0,0.0,0.0,0.0,0.0,0.0,0.0,0.0,0.0,0.0,0.0,0.0,0.0,0.0,0.0,0.0,0.0,0.0,0.0,0.0,0.0,0.0,0.0,0.0,0.0,0.0,0.0,0.0,0.0,0.0,0.0,0.0,0.0,0.0,0.0,0.0,0.0,0.0,0.0,0.0,0.0,0.0,0.0,0.0,0.0,0.0,0.0,0.0,0.0,0.0,0.0,0.0,0.0,0.0,0.0,0.0,0.0,0.0,0.0,0.0,0.0,0.0,0.0,0.0,0.0,0.0,0.0,0.0,0.0,0.0,0.0,0.0,0.0,0.0,0.0,0.0,0.0,0.0,0.0,0.0,0.0,0.0,0.0,0.0,0.0,0.0,0.0,0.0,0.0,0.0,0.0,0.0,0.0,0.0,0.0,0.0,0.0,0.0,0.0,0.0,0.0,0.0,0.0,0.0,0.0,0.0,0.0,0.0,0.0,0.0,0.0,0.0,0.0,0.0,0.0,0.0,0.0,0.0,0.0,0.0,0.0,0.0,0.0,0.0,0.0,0.0,0.0,0.0,0.0,0.0,0.0,0.0,0.0,0.0,0.0,0.0,0.0,0.0,0.0,0.0,0.0,0.0,0.0,0.0,0.0,0.0,0.0,0.0,0.0,0.0,0.0,0.0,0.0,0.0,0.0,0.0,0.0,0.0,0.0,0.0,0.0,0.0,0.0,0.0,0.0,0.0,0.0,0.0,0.0,0.0,0.0,0.0,0.0,0.0,0.0,0.0,0.0,0.0,0.0,0.0,0.0,0.0,0.0,0.0,0.0,0.0,0.0,0.0,0.0,0.0,0.0,0.0,0.0,0.0,0.0,0.0,0.0,0.0,0.0,0.0,0.0,0.0,0.0,0.0,0.0,0.0,0.0,0.0,0.0,0.0,0.0,0.0,0.0,0.0,0.0,0.0,0.0,0.0,0.0,0.0,0.0,0.0,0.0,0.0,0.0,0.0,0.0,0.0,0.0,0.0,0.0,0.0,0.0,0.0,0.0,0.0,0.0,0.0,0.0,0.0,0.0,0.0,0.0,0.0,0.0,0.0,0.0,0.0,0.0,0.0,0.0,0.0,0.0,0.0,0.0,0.0,0.0,0.0,0.0,0.0,0.0,0.0,0.0,0.0,0.0,0.0,0.0,0.0,0.0,0.0,0.0,0.0,0.0,0.0,0.0,0.0,0.0,0.0,0.0,0.0,0.0,0.0,0.0,0.0,0.0,0.0,0.0,0.0,0.0,0.0,0.0,0.0,0.0,0.0,0.0,0.0,0.0,0.0,0.0,0.0,0.0,0.0,0.0,0.0,0.0,0.0,0.0,0.0,0.0,0.0,0.0,0.0,0.0,0.0,0.0,0.0,0.0,0.0,0.0,0.0,0.0,0.0,0.0,0.0,0.0,0.0,0.0,0.0,0.0,0.0,0.0,0.0,0.0,0.0,0.0,0.0,0.0,0.0,0.0,0.0,0.0,0.0,0.0,0.0,0.0,0.0,0.0,0.0,0.0,0.0,0.0,0.0,0.0,0.0,0.0,0.0,0.0,0.0,0.0,0.0,0.0,0.0,0.0,0.0,0.0,0.0,0.0,0.0,0.0,0.0,0.0,0.0,0.0,0.0,0.0,0.0,0.0,0.0,0.0,0.0,0.0,0.0,0.0,0.0,0.0,0.0,0.0,0.0,0.0,0.0,0.0,0.0,0.0,0.0,0.0,0.0,0.0,0.0,0.0,0.0,0.0,0.0,0.0,0.0,0.0,0.0,0.0,0.0,0.0,0.0,0.0,0.0,0.0,0.0,0.0,0.0,0.0,0.0,0.0,0.0,0.0,0.0,0.0,0.0,0.0,0.0,0.0,0.0,0.0,0.0,0.0,0.0,0.0,0.0,0.0,0.0,0.0,0.0,0.0,0.0,0.0,0.0,0.0,0.0,0.0,0.0,0.0,0.0,0.0,0.0,0.0,0.0,0.0,0.0,0.0,0.0,0.0,0.0,0.0,0.0,0.0,0.0,0.0,0.0,0.0,0.0,0.0,0.0,0.0,0.0,0.0,0.0,0.0,0.0,0.0,0.0,0.0,0.0,0.0,0.0,0.0,0.0,0.0,0.0,0.0,0.0,0.0,0.0,0.0,0.0,0.0,0.0,0.0,0.0,0.0,0.0,0.0,0.0,0.0,0.0,0.0,0.0,0.0,0.0,0.0,0.0,0.0,0.0,0.0,0.0,0.0,0.0,0.0,0.0,0.0,0.0,0.0,0.0,0.0,0.0,0.0,0.0,0.0,0.0,0.0,0.0,0.0,0.0,0.0,0.0,0.0,0.0,0.0,0.0,0.0,0.0,0.0,0.0,0.0,0.0,0.0,0.0,0.0,0.0,0.0,0.0,0.0,0.0,0.0,0.0,0.0,0.0,0.0,0.0,0.0,0.0,0.0,0.0,0.0,0.0,0.0,0.0,0.0,0.0,0.0,0.0,0.0,0.0,0.0,0.0,0.0,0.0,0.0,0.0,0.0,0.0,0.0,0.0,0.0,0.0,0.0,0.0,0.0,0.0,0.0,0.0,0.0,0.0,0.0,0.0,0.0,0.0,0.0,0.0,0.0,0.0,0.0,0.0,0.0,0.0,0.0,0.0,0.0,0.0,0.0,0.0,0.0,0.0,0.0,0.0,0.0,0.0,0.0,0.0,0.0,0.0,0.0,0.0,0.0,0.0,0.0,0.0,0.0,0.0,0.0,0.0,0.0,0.0,0.0,0.0,0.0,0.0,0.0,0.0,0.0,0.0,0.0,0.0,0.0,0.0,0.0,0.0,0.0,0.0,0.0,0.0,0.0,0.0,0.0,0.0,0.0,0.0,0.0,0.0,0.0,0.0,0.0,0.0,0.0,0.0,0.0,0.0,0.0,0.0,0.0,0.0,0.0,0.0,0.0,0.0,0.0,0.0,0.0,0.0,0.0,0.0,0.0,0.0,0.0,0.0,0.0,0.0,0.0,0.0,0.0,0.0,0.0,0.0,0.0,0.0,0.0,0.0,0.0,0.0,0.0,0.0,0.0,0.0,0.0,0.0,0.0,0.0,0.0,0.0,0.0,0.0,0.0,0.0,0.0,0.0,0.0,0.0,0.0,0.0,0.0,0.0,0.0,0.0,0.0,0.0,0.0,0.0,0.0,0.0,0.0,0.0,0.0,0.0,0.0,0.0,0.0,0.0,0.0,0.0,0.0,0.0,0.0,0.0,0.0,0.0,0.0,0.0,0.0,0.0,0.0,0.0,0.0,0.0,0.0,0.0,0.0,0.0,0.0,0.0,0.0,0.0,0.0,0.0,0.0,0.0,0.0,0.0,0.0,0.0,0.0,0.0,0.0,0.0,0.0,0.0,0.0,0.0,0.0,0.0,0.0,0.0,0.0,0.0,0.0,0.0,0.0,0.0,0.0,0.0,0.0,0.0,0.0,0.0,0.0,0.0,0.0,0.0,0.0,0.0,0.0,0.0,0.0,0.0,0.0,0.0,0.0,0.0,0.0,0.0,0.0,0.0,0.0,0.0,0.0,0.0,0.0,0.0,0.0,0.0,0.0,0.0,0.0,0.0,0.0,0.0,0.0,0.0,0.0,0.0,0.0,0.0,0.0,0.0,0.0,0.0,0.0,0.0,0.0,0.0,0.0,0.0,0.0,0.0,0.0,0.0,0.0,0.0,0.0,0.0,0.0,0.0,0.0,0.0,0.0,0.0,0.0,0.0,0.0,0.0,0.0,0.0,0.0,0.0,0.0,0.0,0.0,0.0,0.0,0.0,0.0,0.0,0.0,0.0,0.0,0.0,0.0,0.0,0.0,0.0,0.0,0.0,0.0,0.0,0.0,0.0,0.0,0.0,0.0,0.0,0.0,0.0,0.0,0.0,0.0,0.0,0.0,0.0,0.0,0.0,0.0,0.0,0.0,0.0,0.0,0.0,0.0,0.0,0.0,0.0,0.0,0.0,0.0,0.0,0.0,0.0,0.0,0.0,0.0,0.0,0.0,0.0,0.0,0.0,0.0,0.0,0.0,0.0,0.0,0.0,0.0,0.0,0.0,0.0,0.0,0.0,0.0,0.0,0.0,0.0,0.0,0.0,0.0,0.0,0.0,0.0,0.0,0.0,0.0,0.0,0.0,0.0,0.0,0.0,0.0,0.0,0.0,0.0,0.0,0.0,0.0,0.0,0.0,0.0,0.0,0.0,0.0,0.0,0.0,0.0,0.0,0.0,0.0,0.0,0.0,0.0,0.0,0.0,0.0,0.0,0.0,0.0,0.0,0.0,0.0,0.0,0.0,0.0,0.0,0.0,0.0,0.0,0.0,0.0,0.0,0.0,0.0,0.0,0.0,0.0,0.0,0.0,0.0,0.0,0.0,0.0,0.0,0.0,0.0,0.0,0.0,0.0,0.0,0.0,0.0,0.0,0.0,0.0,0.0,0.0,0.0,0.0,0.0,0.0,0.0,0.0,0.0,0.0,0.0,0.0,0.0,0.0,0.0,0.0,0.0,0.0,0.0,0.0,0.0,0.0,0.0,0.0,0.0,0.0,0.0,0.0,0.0,0.0,0.0,0.0,0.0,0.0,0.0,0.0,0.0,0.0,0.0,0.0,0.0,0.0,0.0,0.0,0.0,0.0,0.0,0.0,0.0,0.0,0.0,0.0,0.0,0.0,0.0,0.0,0.0,0.0,0.0,3.1077,3.0406,0.0,0.0,0.0,0.0,0.0,0.0,0.0,0.0,0.0,0.0,0.0,0.0,0.0,0.0,0.0,0.0,0.0,0.0,0.0,0.0,0.0,0.0,0.0,3.7305,3.7305,3.7305,3.8086,3.8594,3.8594,0.0,0.0,0.0,0.0,0.0,4.1211,4.1562,4.1797,4.1797,4.2187,4.2187,4.1797,4.2187,4.2148,4.1797,0.0,0.0,0.0,0.0,0.0,0.0,0.0,0.0,0.0,0.0,0.0,0.0,0.0,0.0,0.0,0.0,0.0,0.0,0.0,0.0,0.0,0.0,0.0,0.0,0.0,0.0,0.0,0.0,0.0,0.0,0.0,0.0,0.0,0.0,0.0,0.0,0.0,0.0,0.0,0.0,0.0,0.0,0.0,0.0,0.0,0.0,0.0,0.0,0.0,0.0,0.0,0.0,0.0,0.0,0.0,0.0,0.0,0.0,0.0,0.0,0.0,0.0,0.0,0.0,0.0,0.0,0.0,0.0,0.0,0.0,3.3628,3.1881,0.0,0.0,0.0,0.0,0.0,0.0,0.0,0.0,0.0,0.0,0.0,0.0,0.0,0.0,0.0,0.0,0.0,0.0,0.0,0.0,0.0,3.6289,3.6992,3.7226,3.7305,3.7305,3.8242,3.8828,3.8828,3.9648,0.0,0.0,0.0,4.1289,4.1406,4.207,4.2383,4.2383,4.2383,4.2578,4.2891,4.4336,4.4219,4.2891,4.3594,0.0,0.0,0.0,0.0,0.0,0.0,0.0,0.0,0.0,0.0,0.0,0.0,0.0,0.0,0.0,0.0,0.0,0.0,0.0,0.0,0.0,0.0,0.0,0.0,0.0,0.0,0.0,0.0,0.0,0.0,0.0,0.0,0.0,0.0,0.0,0.0,0.0,0.0,0.0,0.0,0.0,0.0,0.0,0.0,0.0,0.0,0.0,0.0,0.0,0.0,0.0,0.0,0.0,0.0,0.0,0.0,0.0,0.0,0.0,0.0,0.0,0.0,0.0,4.4146,4.4465,4.541,4.3099,4.1961,4.1679,3.7941,3.4889,3.258,3.2968,0.0,0.0,0.0,0.0,0.0,0.0,0.0,0.0,0.0,0.0,0.0,0.0,0.0,0.0,0.0,0.0,0.0,0.0,0.0,3.6055,3.6172,3.6836,3.7305,3.7305,3.8789,3.9726,3.9726,4.0547,4.1094,4.1172,4.1211,4.1523,4.2226,4.2344,4.2383,4.2383,4.2383,4.3164,4.4648,4.4883,4.4883,4.4648,4.4766,4.4414,4.3672,0.0,0.0,0.0,0.0,0.0,0.0,0.0,0.0,0.0,0.0,0.0,0.0,0.0,0.0,0.0,0.0,0.0,0.0,0.0,0.0,0.0,0.0,0.0,0.0,0.0,0.0,0.0,0.0,0.0,0.0,0.0,0.0,0.0,0.0,0.0,0.0,0.0,0.0,0.0,0.0,0.0,3.6684,3.7578,0.0,0.0,0.0,0.0,0.0,0.0,0.0,0.0,0.0,0.0,0.0,0.0,0.0,4.5508,4.6367,4.871,4.9687,4.9334,4.9921,4.9959,4.937,4.7437,4.6867,4.7315,4.5207,0.0,3.5927,3.4587,0.0,0.0,0.0,0.0,0.0,0.0,0.0,0.0,0.0,0.0,0.0,0.0,0.0,0.0,0.0,0.0,0.0,0.0,0.0,0.0,0.0,3.8099,3.8463,3.7955,3.9998,4.0898,3.9961,4.1133,4.1875,4.1875,4.1445,4.1797,4.3086,4.2656,4.2891,4.3867,4.4844,4.5703,4.6484,4.6953,4.7187,4.7187,4.7187,4.6445,4.5117,4.4101,0.0,0.0,0.0,0.0,0.0,0.0,0.0,0.0,0.0,0.0,0.0,0.0,0.0,0.0,0.0,0.0,0.0,0.0,0.0,0.0,0.0,0.0,0.0,0.0,0.0,0.0,0.0,0.0,0.0,0.0,0.0,0.0,0.0,0.0,0.0,0.0,0.0,0.0,0.0,3.7896,3.9037,3.7546,3.918,3.9768,0.0,0.0,0.0,0.0,0.0,0.0,0.0,0.0,0.0,4.7305,4.8516,4.957,5.0469,5.207,5.3164,5.3789,5.3672,5.3865,5.4322,5.2044,5.1139,5.1269,4.9455,4.6587,4.2984,3.9763,3.7623,3.6318,0.0,0.0,0.0,0.0,3.7665,3.8507,0.0,0.0,0.0,0.0,0.0,0.0,0.0,0.0,0.0,0.0,0.0,0.0,3.8542,3.9463,3.9887,3.9469,4.1247,4.1953,4.0937,4.1641,4.2187,4.2383,4.1796,4.2186,4.3672,4.3711,4.457,4.6286,4.7617,4.8359,4.8594,4.9258,4.9531,4.9531,4.9336,4.8242,4.6562,4.5234,4.5312,4.6094,0.0,0.0,0.0,0.0,0.0,0.0,0.0,0.0,0.0,0.0,0.0,0.0,0.0,0.0,0.0,0.0,0.0,0.0,0.0,0.0,0.0,0.0,0.0,0.0,0.0,0.0,0.0,0.0,0.0,0.0,0.0,0.0,0.0,0.0,0.0,0.0,0.0,4.0346,4.1429,3.8486,4.1461,4.257,0.0,0.0,0.0,0.0,0.0,0.0,4.7851,4.8984,5.0469,5.2422,5.3516,5.4336,5.5,5.5859,5.6836,5.789,5.7031,5.7224,5.8337,5.6151,5.5107,5.4866,5.3091,5.1402,4.9561,4.4739,4.1508,3.9623,3.9854,4.0089,4.0358,4.0935,4.1281,4.1743,0.0,0.0,0.0,0.0,0.0,0.0,0.0,0.0,0.0,0.0,0.0,3.7659,3.9441,4.0427,4.1268,4.2109,4.2305,4.2734,4.3476,4.2109,4.1601,4.2383,4.2287,4.2714,4.3672,4.6094,4.812,4.9761,4.9956,5.0469,5.1211,5.125,5.1289,5.125,5.0469,4.918,4.7539,4.7422,4.6992,4.6289,4.6094,0.0,0.0,0.0,0.0,0.0,0.0,0.0,0.0,0.0,0.0,0.0,0.0,0.0,0.0,0.0,0.0,0.0,0.0,0.0,0.0,0.0,0.0,0.0,0.0,0.0,0.0,0.0,0.0,0.0,0.0,0.0,0.0,0.0,0.0,0.0,0.0,0.0,0.0,4.22,4.5679,0.0,0.0,0.0,0.0,4.6055,4.8437,5.0625,5.2305,5.3984,5.6094,5.8672,6.0312,6.1211,6.125,6.2109,6.2187,6.1445,6.0547,6.0195,6.0234,5.9336,5.882,5.8536,5.6861,5.5474,5.3894,4.7906,4.4859,4.3816,4.2273,4.2196,4.2893,4.2931,4.3431,4.4128,0.0,0.0,0.0,0.0,0.0,3.5796,3.5772,3.5721,3.6207,3.7519,3.8172,3.9331,4.1627,4.2775,4.3729,4.4572,4.4793,4.4805,4.4531,4.3984,4.3748,4.3928,4.3441,4.4001,4.5917,4.7912,5.004,5.2249,5.2877,5.3598,5.442,5.442,5.442,5.4381,5.3568,5.2626,5.138,4.8122,4.6914,4.6992,4.5312,4.4766,0.0,0.0,0.0,0.0,0.0,0.0,0.0,0.0,0.0,0.0,0.0,0.0,0.0,0.0,0.0,0.0,0.0,0.0,0.0,0.0,0.0,0.0,0.0,0.0,0.0,0.0,0.0,0.0,0.0,0.0,0.0,0.0,0.0,0.0,0.0,0.0,0.0,4.8025,5.1278,0.0,5.0062,5.1209,5.2305,5.2891,5.4844,5.6719,5.8398,5.9609,6.0937,6.2422,6.3047,6.3359,6.3359,6.3672,6.3398,6.2539,6.2226,6.1797,6.1211,6.0351,5.9921,5.9797,5.8561,5.7189,5.5639,5.3369,5.082,4.836,4.7745,4.7706,4.7975,4.7975,4.8168,4.8437,0.0,0.0,0.0,3.4448,3.4951,3.5366,3.564,3.5647,3.619,3.7837,3.8775,4.0388,4.3266,4.4462,4.5527,4.6687,4.6418,4.6033,4.5759,4.494,4.4536,4.4766,4.5067,4.624,4.8331,5.0655,5.2819,5.4734,5.5653,5.6422,5.6972,5.6972,5.6972,5.6933,5.6122,5.5473,5.4769,5.0845,4.8893,4.8281,4.6289,4.5976,4.6445,0.0,0.0,0.0,0.0,0.0,0.0,0.0,0.0,0.0,0.0,0.0,0.0,0.0,0.0,0.0,0.0,0.0,0.0,0.0,0.0,0.0,0.0,0.0,0.0,0.0,0.0,0.0,0.0,0.0,0.0,0.0,0.0,0.0,0.0,5.0493,5.3533,5.3027,5.6513,5.8127,5.5884,5.7303,5.8594,5.914,6.082,6.2422,6.3828,6.4453,6.5039,6.5586,6.5625,6.5312,6.4726,6.4726,6.4297,6.3437,6.3125,6.2695,6.2109,6.125,6.0859,6.0781,5.9832,5.8758,5.7646,5.6964,5.5246,5.2854,5.1957,5.1597,5.1553,5.1553,5.1573,5.1626,0.0,3.3125,3.3435,3.4286,3.444,3.4718,3.5449,3.5545,3.6148,3.7798,3.878,4.0671,4.4134,4.5354,4.6654,4.8409,4.7026,4.6372,4.7196,4.4893,4.3878,4.4813,4.724,4.931,5.0909,5.4354,5.6569,5.7374,5.8372,5.8839,5.88,5.88,5.88,5.8722,5.7857,5.7468,5.7355,5.5635,5.3176,5.0351,4.9375,4.9453,4.9805,0.0,0.0,0.0,0.0,0.0,0.0,0.0,0.0,0.0,0.0,0.0,0.0,0.0,0.0,0.0,0.0,0.0,0.0,0.0,0.0,0.0,0.0,0.0,0.0,0.0,0.0,0.0,0.0,0.0,0.0,0.0,0.0,0.0,4.957,5.4901,5.856,5.7148,6.1309,6.3017,5.9882,6.2539,6.4453,6.4453,6.6015,6.7344,6.8203,6.8242,6.8242,6.8242,6.8203,6.7383,6.5703,6.5664,6.5195,6.4336,6.3476,6.3086,6.3008,6.2148,6.1758,6.168,6.082,6.0344,6.0068,5.8465,5.7636,5.7167,5.452,5.3413,5.3305,5.3305,5.3351,5.3462,3.1293,3.1679,3.2182,3.2413,3.2952,3.363,3.4474,3.458,3.5409,3.7707,3.9281,4.1463,4.4908,4.7251,4.9012,5.0138,4.931,4.8555,4.8175,4.6305,4.61,4.8154,4.9452,5.2019,5.6126,5.7181,5.8986,6.1621,6.1885,6.1729,6.116,6.116,6.0812,6.0195,5.9302,5.8972,5.9018,5.8033,5.6816,5.5278,5.1916,5.0025,4.9062,0.0,0.0,0.0,0.0,0.0,0.0,0.0,0.0,0.0,0.0,0.0,0.0,0.0,0.0,0.0,0.0,0.0,0.0,0.0,0.0,0.0,0.0,0.0,0.0,0.0,0.0,0.0,0.0,0.0,0.0,0.0,5.5078,5.7812,5.6562,6.0076,6.3591,6.5625,6.7108,6.7849,6.7578,6.7812,6.8008,6.8008,6.8476,6.8867,6.9062,6.9062,6.9062,6.9062,6.8515,6.7969,6.75,6.6875,6.6094,6.5234,6.5,6.4531,6.3906,6.3047,6.2656,6.2578,6.1719,6.0976,6.0308,5.984,5.8843,5.7482,5.6002,5.5407,5.5365,5.5365,5.5009,5.4608,3.05,3.0808,3.1272,3.1657,3.2083,3.2699,3.3548,3.3971,3.4972,3.7161,3.9546,4.2205,4.5287,4.764,4.9176,4.9678,4.9047,4.8222,4.734,4.733,4.8315,5.0473,5.2695,5.5434,5.8742,5.9852,6.1352,6.3314,6.3314,6.3045,6.2589,6.2589,6.232,6.182,6.1314,6.1136,6.1185,6.0895,6.0104,5.8858,5.609,5.3843,5.1953,5.0351,4.9414,4.8906,4.8203,4.7461,4.6758,4.625,0.0,0.0,0.0,0.0,0.0,0.0,0.0,0.0,0.0,0.0,0.0,0.0,0.0,0.0,0.0,0.0,0.0,0.0,0.0,0.0,0.0,0.0,0.0,0.0,6.0273,6.3984,6.4961,6.6484,6.8398,7.0742,7.1367,7.1797,7.2265,7.1562,7.1015,7.1015,7.0742,7.0547,7.0508,7.0508,7.0312,6.9961,6.9492,6.8906,6.8203,6.7695,6.6992,6.6133,6.5781,6.5312,6.4805,6.3555,6.3008,6.2969,6.207,6.1406,6.0937,6.0547,5.9763,5.8689,0.0,0.0,0.0,0.0,5.5961,5.5629,3.0385,3.0385,3.0654,3.1426,3.1542,3.1811,3.2622,3.351,3.4702,3.6465,3.9581,4.2585,4.5051,4.6894,4.7966,4.7966,4.7312,4.6663,4.6052,4.8399,5.0664,5.2544,5.6544,5.9204,6.0204,6.2429,6.3698,6.3891,6.3775,6.3737,6.3737,6.3737,6.366,6.3583,6.3583,6.3545,6.3454,6.3641,6.2847,6.1411,6.0871,5.9,5.6328,5.3906,5.2851,5.25,5.1016,4.9492,4.8164,4.8047,0.0,0.0,0.0,0.0,0.0,0.0,0.0,0.0,0.0,0.0,0.0,0.0,0.0,0.0,0.0,0.0,0.0,0.0,0.0,0.0,0.0,0.0,0.0,0.0,6.5508,7.0078,7.3437,7.3281,7.3086,7.3672,7.4258,7.4648,7.4726,7.3945,7.3437,7.3437,7.2734,7.2305,7.2305,7.2187,0.0,0.0,0.0,6.9922,6.8359,6.8242,6.7773,6.6875,6.6133,6.5742,6.5703,6.3945,6.3164,6.3086,6.2109,6.1719,6.164,6.0859,6.0508,6.0234,5.8415,5.7182,5.6409,5.6535,5.6636,5.6722,3.0385,3.0385,3.0462,3.0615,3.0654,3.0923,3.1811,3.2622,3.4007,3.6388,3.9084,4.1474,4.3393,4.5697,4.712,4.712,4.7005,4.7389,4.8591,5.1048,5.3851,5.6929,5.9825,6.2403,6.4589,6.5166,6.6051,6.743,6.6705,6.6365,6.6365,6.6365,6.6013,6.5397,6.5397,6.5013,6.4377,6.4515,6.4027,6.3132,6.3297,6.064,5.6484,5.5273,5.3906,5.2656,5.2344,5.1992,5.1601,5.0898,5.0547,5.0117,4.8437,4.7031,0.0,0.0,0.0,0.0,0.0,0.0,0.0,0.0,0.0,0.0,0.0,0.0,0.0,0.0,0.0,0.0,0.0,0.0,0.0,6.4922,7.0,7.4336,7.7109,7.789,7.7773,7.6601,7.5351,7.4883,7.5586,7.4844,7.4336,7.4336,7.418,7.4101,7.4101,7.3437,7.2969,7.2812,7.1445,7.0195,6.918,6.8515,6.7773,6.6914,6.6719,0.0,6.6601,6.4844,6.4062,6.3945,6.2383,6.1719,6.168,6.1523,6.1015,6.0234,5.8514,5.773,5.7571,5.7614,5.8045,5.8553,3.0385,3.0385,3.0385,3.0385,3.0385,3.0538,3.0962,3.1772,3.3045,3.5161,3.7665,3.9896,4.1627,4.3192,4.3977,4.355,4.4672,4.6719,4.9856,5.3626,5.7275,6.066,6.3243,6.5404,6.7128,6.7167,6.7552,6.8391,6.7975,6.7744,6.7744,6.7744,6.7552,6.7167,6.7167,6.6898,6.6493,6.6636,6.624,6.5494,6.5303,6.3475,6.0678,5.9096,5.7187,5.5312,5.5312,5.4726,5.3945,5.3516,5.3047,5.2383,5.0703,4.9531,4.8516,0.0,0.0,0.0,0.0,0.0,0.0,0.0,0.0,0.0,0.0,0.0,0.0,0.0,0.0,5.4844,5.7383,0.0,6.6211,7.0117,7.4023,7.7148,7.8867,7.9453,7.9375,7.8555,7.7695,7.7187,7.7187,7.6406,7.5703,7.5273,7.4844,7.4414,7.3984,7.3555,7.3086,7.2656,7.1797,7.0937,7.0078,6.9648,6.8828,6.7539,6.7539,6.7305,6.6875,6.5547,6.4726,6.4219,6.293,6.2109,6.1719,6.1719,6.1172,6.0312,5.9492,5.8906,5.8555,5.8555,5.8555,5.8476,3.0385,3.0385,3.0385,3.0385,3.0385,3.0385,3.0385,3.1157,3.2237,3.3741,3.6045,3.807,3.9538,4.0273,4.0416,3.9828,4.2545,4.6145,5.0561,5.5588,6.0024,6.366,6.609,6.7744,6.8622,6.8814,6.8968,6.9122,6.8968,6.9045,6.9391,6.9199,6.9122,6.9122,6.9122,6.8968,6.868,6.8778,6.8325,6.7567,6.7048,6.6312,6.533,6.3347,6.0927,5.8505,5.835,5.6983,5.5266,5.5422,5.4797,5.3703,5.2452,5.1943,5.1357,4.8975,4.8546,0.0,0.0,0.0,0.0,0.0,0.0,0.0,0.0,0.0,5.2481,5.5333,5.7838,6.0533,6.3775,6.7643,7.1393,7.4479,7.7175,7.9092,7.9801,8.0036,8.0154,8.0195,7.9922,7.9375,7.8594,7.7851,7.7109,7.6211,7.5508,7.4805,7.4101,7.375,7.3242,7.2539,7.2187,7.1562,7.0703,7.0703,6.9922,6.8437,6.8281,6.7812,6.7109,6.6055,6.5234,6.4492,6.3437,6.25,6.1719,6.1719,6.1289,6.0664,6.0664,6.0273,5.9687,5.9492,5.9101,5.8594,3.0385,3.0385,3.0385,3.0385,3.0385,3.0385,3.0385,3.1157,3.2006,3.2929,3.4657,3.6016,3.6685,3.7528,3.8199,3.8628,4.2924,4.7258,5.1149,5.6072,6.0844,6.5423,6.7321,6.866,6.9552,7.0244,7.1014,7.179,7.1014,7.1398,7.2892,7.2129,7.179,7.179,7.179,7.0937,6.9552,6.9592,6.9066,6.8283,6.8346,6.7862,6.7033,6.6192,6.3773,6.0736,5.9999,5.7673,5.5076,5.585,5.4991,5.374,5.4349,5.394,5.2912,5.1135,0.0,4.8496,4.8308,4.7763,4.7914,5.0753,5.0529,5.1325,0.0,0.0,5.8656,6.2017,6.4124,6.6186,6.8832,7.1611,7.4119,7.5991,7.8497,8.0276,8.055,8.1265,8.18,8.1992,8.0625,7.9375,7.8594,7.8398,7.8008,7.7109,7.6953,7.6875,7.6758,7.5312,7.4414,7.4297,7.2812,7.1562,7.0703,7.0703,7.0234,6.9258,6.8555,6.8164,6.8008,6.6367,6.5547,6.5351,6.3711,6.25,6.1719,6.1719,6.164,6.1562,6.1562,6.1484,6.1328,6.0547,6.0703,6.1172,3.0385,3.0385,3.0385,3.0385,3.0385,3.0385,3.0385,3.0692,3.1234,3.2083,3.2849,3.3513,3.4097,3.4595,3.5432,3.6648,4.126,4.6091,5.0788,5.6948,6.2333,6.6695,6.8789,7.0244,7.1129,7.0975,7.1591,7.2976,7.2091,7.2014,7.2745,7.2899,7.2706,7.2213,7.2213,7.2091,7.1892,7.136,7.0937,7.0566,7.0118,6.9165,6.782,6.6603,6.3637,6.0114,5.9471,5.8031,0.0,5.5675,5.5283,5.5198,5.5535,5.4705,5.3333,5.2124,5.0926,0.0,5.0583,5.0775,5.1153,5.2576,5.4181,5.6278,5.9568,6.0558,6.178,6.5298,6.7779,7.0081,7.2648,7.523,7.7346,0.0,8.0116,8.1243,8.1429,8.0895,8.0384,8.0116,7.8984,7.8711,7.9844,7.9492,7.8867,7.8008,7.75,7.6992,7.6484,7.5273,7.4375,7.3867,7.2656,7.1836,7.1445,7.1445,7.1015,7.0156,6.9805,6.914,6.8164,6.7461,6.6289,6.4765,6.3008,6.2031,6.1719,6.1719,6.1719,6.1719,6.1719,6.1719,6.164,6.1289,6.1055,6.0898,3.0385,3.0385,3.0385,3.0385,3.0385,3.0385,3.0385,3.0385,3.0615,3.1272,3.1349,3.1556,3.218,3.264,3.3404,3.4696,3.9246,4.4244,4.9333,5.5981,6.188,6.6733,6.8885,7.057,7.1822,7.1706,7.2238,7.3507,7.3091,7.3014,7.3245,7.3668,7.3469,7.2899,7.2899,7.3129,7.343,7.2552,7.2213,7.2098,7.1014,6.9699,6.8122,6.5743,6.2627,5.9375,5.8529,5.6942,5.5129,5.4089,5.4012,5.4391,5.488,5.433,5.3388,5.2748,5.1829,5.1071,5.1411,5.2414,5.3649,5.4866,5.7742,6.055,6.1576,6.3157,6.5194,6.7945,7.042,7.2762,7.5052,7.7011,7.8718,8.0098,8.085,8.1341,8.162,8.0154,7.8742,7.789,7.6797,7.6953,7.9023,7.9101,7.8789,7.8203,7.7578,7.6914,7.6289,7.543,7.457,7.3672,7.2812,7.2226,7.1992,7.1992,7.1562,7.0703,7.0469,6.9609,6.8164,6.7695,6.6328,6.4219,6.2695,6.1914,6.1719,6.1719,6.1719,6.1719,6.1719,6.1719,6.1719,6.1719,6.1289,6.0742,3.0385,3.0385,3.0385,3.0385,3.0385,3.0385,3.0385,3.0385,3.0423,3.0423,3.0423,3.066,3.1264,3.2088,3.276,3.3044,3.7305,4.193,4.6517,5.2154,5.8267,6.497,6.6833,6.8725,7.0891,7.2584,7.343,7.3507,7.4238,7.5053,7.5861,7.5053,7.4661,7.4623,7.4623,7.4199,7.343,7.2552,7.2213,7.2059,7.0398,6.9206,6.793,6.3788,6.1095,5.9281,5.7654,5.3854,4.9769,5.0543,5.0274,4.9884,5.153,5.2569,0.0,5.3184,5.1996,5.0539,4.973,5.1294,5.4255,5.8518,6.0928,6.3085,6.6404,6.8443,6.9865,7.0651,7.2195,7.3966,7.5659,7.6051,7.6986,7.9674,8.0146,8.0301,8.067,7.9254,7.7609,7.6132,7.4453,7.3789,7.4687,7.6289,7.7265,7.7226,7.7226,7.7187,7.7148,7.6328,7.5469,7.4609,7.3711,7.2851,7.1992,7.1992,7.1562,7.0703,6.9844,6.8984,6.8125,6.6445,6.5156,6.4258,6.3359,6.2461,6.1719,6.1719,6.1719,6.1719,6.1719,6.1719,6.1719,6.1719,6.168,6.164,3.0385,3.0385,3.0385,3.0385,3.0385,3.0385,3.0385,3.0385,3.0385,3.0385,3.0251,0.0,0.0,0.0,0.0,0.0,3.5662,3.9303,4.3512,4.9696,5.513,5.9578,6.3509,6.6471,6.8321,6.9507,7.093,7.2629,7.2899,7.3476,7.4353,7.4584,7.47,7.47,7.47,7.4546,7.4199,7.2783,7.1867,7.1129,6.8859,6.7128,6.5474,6.1781,5.828,5.5088,0.0,5.1361,4.9279,4.8432,4.8355,0.0,4.9894,0.0,0.0,4.9197,5.0272,5.1889,5.267,0.0,5.9325,6.253,6.5018,6.7143,6.8839,7.0149,7.105,7.1231,7.0845,7.0787,7.1896,7.256,7.3641,7.5714,7.7455,7.8661,7.8958,7.8002,7.6319,7.3632,7.2773,0.0,7.2031,7.3594,7.5586,7.789,7.6992,7.6836,7.8008,7.6133,7.4883,7.4609,7.3203,7.2305,7.1992,7.1992,7.1836,7.1562,7.0156,6.9336,6.8945,6.6055,6.457,6.4219,6.2773,6.1953,6.1719,6.1719,6.1719,6.1719,6.1719,6.1719,6.1719,6.1719,6.1719,6.1719,0.0,3.0385,3.0385,3.0385,3.0385,0.0,0.0,0.0,0.0,0.0,0.0,0.0,0.0,0.0,0.0,0.0,0.0,3.7331,4.0781,4.5825,5.0311,5.4051,5.7641,6.0502,6.266,6.3367,6.4987,6.7522,6.8249,6.9321,7.0821,7.1629,7.2168,7.243,7.243,7.243,7.2353,7.0667,6.9283,6.7975,6.5397,6.3205,6.105,5.7665,5.4472,0.0,4.9591,4.8514,4.7898,4.6817,4.6778,0.0,0.0,0.0,0.0,4.8004,5.0586,5.4077,5.6065,5.9332,6.2912,6.5835,6.8016,6.9679,7.0531,7.1185,7.1276,7.0307,6.8957,6.8045,6.8224,6.826,6.9105,7.1832,7.3642,7.5226,7.6634,7.5863,7.4472,7.2695,7.1914,7.1445,0.0,0.0,7.414,7.7344,7.6523,7.6523,7.7969,7.6445,7.5234,7.4609,7.3515,7.2617,7.1992,7.1992,7.1719,7.1094,6.9687,6.8867,6.8476,6.5937,6.4609,6.4219,6.2773,6.1992,6.1719,6.1719,6.1719,6.1719,6.1719,6.1719,6.1719,6.1719,6.1719,6.1719,0.0,0.0,3.0385,0.0,0.0,0.0,0.0,0.0,0.0,0.0,0.0,0.0,0.0,0.0,0.0,0.0,0.0,0.0,3.8381,4.0813,4.4128,4.8546,4.9709,5.1561,5.4425,5.4911,5.6352,5.8839,6.0826,6.3083,6.5513,6.6327,6.7167,6.8007,6.8007,6.8007,6.7814,6.6167,6.4474,6.2737,6.0127,5.7665,5.5208,5.1823,5.0053,4.9009,4.6552,4.5633,4.5594,0.0,0.0,0.0,0.0,0.0,0.0,0.0,5.3069,5.7096,5.9633,6.2331,6.5209,6.861,7.0066,7.0805,7.1502,7.1576,7.0725,6.7897,6.6559,6.557,0.0,0.0,6.3825,6.8232,6.9263,7.0699,7.4257,7.3398,7.2656,0.0,0.0,0.0,0.0,0.0,7.3281,7.5859,7.5937,7.6328,7.7265,7.7265,7.6406,7.4726,7.457,7.375,7.207,7.2031,7.1211,6.9609,6.8711,6.7812,6.6992,6.6055,6.5117,6.4258,6.3398,6.25,6.1719,6.1719,6.1719,6.1719,6.1719,6.1719,6.1719,6.1719,6.1719,6.1719,0.0,0.0,0.0,0.0,0.0,0.0,0.0,0.0,0.0,0.0,0.0,0.0,0.0,0.0,0.0,0.0,0.0,0.0,3.6183,3.8654,4.0856,4.2632,4.616,4.8737,5.0065,5.2064,5.3803,5.5294,5.7047,5.8737,6.0242,6.105,6.1897,6.2743,6.2743,6.2397,6.166,5.9979,5.9017,5.8286,5.4477,5.328,5.3472,5.0048,4.8625,4.8279,4.7009,4.6163,4.5594,0.0,0.0,0.0,0.0,5.055,5.2884,0.0,0.0,6.1661,6.4281,6.79,7.1279,7.2847,7.2887,7.2301,7.1207,6.9995,6.7961,6.4006,6.1501,5.9391,0.0,0.0,0.0,6.5032,6.9878,0.0,7.6211,7.7226,0.0,7.543,0.0,7.5351,7.4961,7.4922,0.0,7.7695,7.664,7.6836,7.8945,7.789,7.6719,7.5586,7.4297,7.3437,7.2969,7.2305,7.1797,7.1328,6.9805,6.8984,6.8672,6.6562,6.5117,6.4258,6.3398,6.25,6.1719,6.1719,6.1719,6.1719,6.1719,6.1719,6.1719,6.1719,6.1719,6.1719,0.0,0.0,0.0,0.0,0.0,0.0,0.0,0.0,0.0,0.0,0.0,0.0,0.0,0.0,0.0,0.0,0.0,0.0,0.0,3.6109,3.7262,3.8035,4.0204,4.1909,4.3103,4.5026,4.649,4.7562,5.0214,5.2041,5.3152,5.4473,5.5511,5.6362,5.6362,5.6093,5.5549,5.4246,5.3246,0.0,0.0,4.8783,4.9086,4.7163,4.6663,4.6932,4.6471,4.6788,0.0,0.0,0.0,5.1594,5.2798,5.4999,5.765,6.0075,0.0,6.6279,6.8897,7.1677,7.3906,7.3984,7.3086,7.1523,6.9023,6.6836,6.4101,5.9765,5.7148,0.0,5.3203,5.5469,5.8672,0.0,0.0,0.0,7.5586,7.7187,7.793,0.0,7.8008,0.0,7.7617,7.7578,7.8125,7.9492,7.8008,7.7656,7.9101,7.8281,7.7031,7.539,7.4375,7.3515,7.2734,7.2226,7.1797,7.1406,7.043,6.9609,6.8828,6.7383,6.6055,6.4805,6.3945,6.3086,6.2226,6.1875,6.1719,6.1719,6.1719,6.1719,6.1719,6.1719,6.1719,6.1719,0.0,0.0,0.0,0.0,0.0,0.0,0.0,0.0,0.0,0.0,3.0692,3.0785,3.1302,3.1986,0.0,0.0,0.0,0.0,0.0,0.0,3.4094,3.4821,3.4277,3.4651,3.6083,3.7155,3.8118,3.8944,4.2447,4.4652,4.5628,4.7427,4.874,4.9547,4.9615,4.963,4.9553,4.8731,4.7625,4.6312,4.5321,4.4667,4.4278,0.0,4.4744,4.5594,4.5629,0.0,0.0,0.0,5.3913,5.5344,5.7783,6.0605,6.3609,6.6813,6.8939,7.0781,7.3164,7.4453,7.4844,7.375,7.207,6.9726,6.6094,6.3164,5.9961,5.5547,0.0,5.1875,5.0898,5.2422,5.5312,5.9844,0.0,6.8984,7.4492,7.5937,7.7305,7.9765,8.0039,8.0039,8.0039,8.0039,8.0351,8.1133,7.9844,7.8906,7.8672,7.8672,7.7422,7.4687,7.4492,7.3633,7.2031,7.1992,7.1601,7.0859,7.0742,6.9883,6.8359,6.8242,6.7265,6.5547,6.4687,6.3828,6.293,6.207,6.1719,6.1719,6.1719,6.1719,6.1719,6.1719,6.1719,6.1719,0.0,0.0,0.0,0.0,0.0,0.0,0.0,0.0,0.0,0.0,3.2314,3.1491,0.0,0.0,0.0,0.0,0.0,0.0,0.0,0.0,0.0,3.399,3.4491,3.4931,3.5224,3.611,3.6761,3.7144,3.8565,3.9793,4.0912,4.1921,4.2811,4.3596,4.3868,4.4004,4.3975,4.3354,4.335,4.3624,4.2012,4.2551,4.4239,4.3547,0.0,0.0,0.0,0.0,0.0,0.0,5.8163,6.1564,6.3585,6.6951,7.0585,7.2616,7.3945,7.5039,7.6211,7.7148,7.7265,7.4961,7.2539,6.9414,6.457,6.0898,0.0,0.0,5.0273,4.9062,4.7461,5.0312,5.4805,6.0547,6.5117,7.0508,7.7773,7.8945,7.9726,0.0,8.1836,8.1836,8.1836,8.1836,0.0,8.207,8.1797,8.1015,7.957,7.9492,7.8008,7.4687,7.3906,7.3047,7.1992,7.1992,7.1914,7.1758,7.1055,7.0195,6.9258,6.8515,6.7265,6.5547,6.4687,6.3828,6.293,6.207,6.1719,6.1719,6.1719,6.1719,6.1719,6.1719,6.1719,6.1719,0.0,0.0,0.0,0.0,0.0,0.0,0.0,3.2314,3.2929,3.4661,3.4542,3.3965,3.3086,3.3576,3.3938,0.0,0.0,0.0,0.0,0.0,0.0,3.4424,3.438,3.4387,3.4387,3.6046,3.655,3.5836,0.0,3.905,3.8776,3.9777,4.0446,4.0823,4.1156,4.1317,4.1293,4.1187,4.1358,4.1704,4.1316,4.2162,4.3662,0.0,0.0,0.0,0.0,0.0,0.0,0.0,5.8234,6.3549,6.7109,7.0586,7.3789,7.5976,7.6601,7.6875,7.8164,7.8515,7.7773,7.4687,7.1289,6.7265,6.164,0.0,0.0,0.0,4.7851,4.7305,4.6445,4.9453,0.0,5.7695,6.1601,6.6836,7.4609,7.6094,0.0,8.1211,8.2031,8.2304,0.0,8.2304,8.2304,8.2304,8.2304,8.1523,7.9805,7.8008,7.6289,7.4648,7.332,7.2422,7.1992,7.1992,7.1992,7.1992,7.1133,7.0273,6.9453,6.8594,6.75,6.6211,6.4883,6.4062,6.3555,6.2265,6.1719,6.1719,6.1719,6.1719,6.1719,6.1719,6.1719,6.1719,0.0,0.0,0.0,0.0,0.0,0.0,3.2891,3.316,3.393,3.6042,3.6696,3.6465,3.5164,3.4645,3.4338,0.0,0.0,0.0,0.0,0.0,0.0,0.0,0.0,0.0,0.0,0.0,0.0,3.5555,3.815,0.0,0.0,0.0,0.0,0.0,3.9962,4.012,4.0134,4.0381,4.0516,0.0,0.0,4.2312,0.0,0.0,0.0,0.0,0.0,0.0,0.0,0.0,5.6404,6.1873,6.6636,7.0975,7.4726,7.6797,7.7422,7.7812,7.9297,7.9258,7.789,7.4219,6.9922,6.5039,5.8984,5.4258,0.0,0.0,4.6289,4.6289,4.6289,4.8633,5.1601,0.0,5.7695,6.25,7.082,7.2734,7.5234,0.0,8.1758,0.0,8.2304,8.2304,8.2304,8.2304,8.1953,8.1133,7.9765,7.6445,7.4609,7.4609,7.289,7.1992,7.1992,7.1797,7.1836,7.1992,7.0937,7.0078,6.9453,6.8594,6.7617,6.6523,6.4961,6.418,6.3906,6.2344,6.1719,6.1719,6.1719,6.1719,6.1719,6.1719,6.1719,6.1719,0.0,0.0,0.0,0.0,0.0,0.0,3.3702,3.4087,3.5241,3.8511,3.8315,3.7815,3.7661,3.6912,3.6025,0.0,0.0,0.0,0.0,0.0,0.0,0.0,0.0,0.0,0.0,0.0,0.0,3.7272,3.686,0.0,0.0,0.0,0.0,0.0,0.0,4.012,4.0134,4.0381,0.0,0.0,0.0,0.0,0.0,0.0,0.0,0.0,0.0,0.0,0.0,0.0,0.0,5.5275,5.8778,6.6104,7.3476,7.3711,0.0,0.0,7.9453,7.9648,7.8594,7.4336,6.9492,6.414,5.8086,0.0,0.0,4.6836,4.6289,4.6289,4.6289,4.7187,4.957,0.0,5.6211,6.0469,7.0586,7.2734,7.5234,8.039,0.0,0.0,8.2304,8.2304,8.2304,8.2304,8.082,7.9883,7.9726,7.6445,7.4609,7.4609,7.289,7.1992,7.1992,7.1211,7.1211,7.1992,7.0312,6.9492,6.9375,6.8555,6.7305,6.5664,6.4726,6.3867,6.3047,6.2109,6.1719,6.1719,6.1719,6.1719,6.1719,6.1719,6.1719,6.1719,0.0,0.0,0.0,0.0,0.0,0.0,3.3817,3.4205,3.5437,3.8857,3.9011,3.878,3.878,3.8007,3.6898,3.5473,3.5194,0.0,0.0,0.0,0.0,0.0,0.0,0.0,0.0,0.0,3.7881,3.8212,3.8865,0.0,0.0,0.0,0.0,0.0,0.0,4.0544,4.0134,4.0381,0.0,0.0,0.0,0.0,0.0,0.0,0.0,0.0,0.0,0.0,4.5521,0.0,0.0,0.0,5.0998,5.6237,0.0,0.0,7.1219,7.4139,7.7053,7.8652,7.8485,7.4186,6.8546,6.2734,5.7734,0.0,4.8203,4.6601,4.6289,4.6289,4.6289,4.6562,4.7812,5.0937,5.1289,5.4062,6.2344,6.4687,6.8242,7.5508,7.8047,0.0,0.0,8.2304,8.207,8.1562,8.039,7.9492,7.8984,7.668,7.5156,7.4609,7.3437,7.2539,7.1992,7.164,7.1406,7.1211,6.9961,6.914,6.8633,6.7812,6.7031,6.6289,6.4922,6.4101,6.3672,6.2265,6.1719,6.1719,6.1719,6.1719,6.1719,6.1719,6.1719,6.1719,0.0,0.0,0.0,0.0,0.0,3.1272,3.3817,3.4205,3.5437,3.8857,3.9281,3.9396,3.9627,3.8896,3.7892,3.6734,3.5994,0.0,0.0,0.0,0.0,0.0,0.0,0.0,0.0,0.0,3.9158,3.9415,4.0553,4.1434,0.0,0.0,4.1556,4.1162,0.0,0.0,0.0,0.0,0.0,0.0,0.0,0.0,0.0,0.0,0.0,0.0,0.0,0.0,0.0,0.0,0.0,0.0,0.0,0.0,0.0,0.0,6.6096,6.9898,7.3698,7.6418,7.7297,7.3505,6.7476,6.1427,0.0,0.0,4.7301,4.6402,4.6288,4.6289,4.6289,4.6288,4.6755,4.8281,4.8397,5.0662,5.7344,5.9726,6.3594,0.0,0.0,7.664,8.0078,8.1562,8.2031,8.1445,8.0351,7.9453,7.8906,7.6992,7.5508,7.4648,7.375,7.289,7.1992,7.1484,7.1172,7.1055,6.9453,6.8633,6.8555,6.7422,6.6758,6.6445,6.5234,6.4375,6.3828,6.2578,6.1914,6.1719,6.1719,6.1719,6.1719,6.1719,6.1719,6.1719,0.0,0.0,0.0,0.0,0.0,3.1272,3.3817,3.4205,3.5437,3.8857,3.9281,3.9588,4.04,3.9785,3.9281,3.9242,3.7696,0.0,0.0,0.0,0.0,0.0,0.0,0.0,3.8696,3.946,4.0267,4.1058,4.1095,4.186,4.3246,4.2473,4.2004,4.1804,0.0,0.0,0.0,0.0,0.0,0.0,0.0,0.0,0.0,0.0,0.0,0.0,0.0,0.0,0.0,0.0,0.0,0.0,0.0,4.4367,4.5989,0.0,6.1113,6.7028,6.9637,7.2812,7.4742,7.217,6.6373,6.0417,0.0,5.1649,4.7146,4.6286,4.6201,4.6289,4.6289,4.6198,4.642,4.746,4.8932,5.2127,5.832,6.0625,6.3633,0.0,0.0,7.2148,7.5625,7.9805,8.2304,8.2304,8.0664,7.9687,7.9687,7.7265,7.5508,7.4648,7.375,7.289,7.1992,7.0273,7.0273,7.1953,6.8555,6.7812,6.9414,6.7695,6.6445,6.5625,6.5586,6.4609,6.3008,6.3008,6.2461,6.1719,6.1719,6.1719,6.1719,6.1719,6.1719,6.1719,0.0,0.0,0.0,0.0,0.0,0.0,3.2275,3.2968,3.4122,3.6427,3.7196,3.7853,3.8703,3.8546,3.8665,3.9242,3.8238,0.0,0.0,0.0,0.0,0.0,0.0,0.0,3.9784,4.0401,4.1103,4.1919,4.247,4.3256,4.4183,4.3926,4.3694,4.347,4.2931,4.22,0.0,0.0,0.0,0.0,0.0,0.0,4.4628,0.0,0.0,0.0,0.0,0.0,0.0,0.0,0.0,0.0,0.0,0.0,0.0,4.8203,5.3772,5.9648,6.2235,6.5041,6.6672,6.4136,5.9766,5.5495,5.3224,4.9424,4.6284,4.601,4.5993,4.6067,4.6146,4.6067,4.6854,4.9608,5.042,5.2039,0.0,0.0,0.0,6.8086,7.4531,7.9062,8.0156,8.1484,8.1797,8.0625,8.0,7.9219,7.8047,7.7226,7.6133,7.4648,7.375,7.289,7.1992,7.1445,7.1133,7.1094,7.0,6.918,6.8594,6.8047,6.7305,6.6406,6.5234,6.4414,6.3789,6.2617,6.1953,6.1719,6.1719,6.1719,6.1719,6.1719,6.1719,6.1719,0.0,0.0,0.0,0.0,0.0,0.0,3.158,3.2122,3.3196,3.5231,3.5923,3.6811,3.8315,3.8473,3.8969,4.0123,3.9738,0.0,0.0,0.0,0.0,0.0,0.0,0.0,4.0288,4.094,4.178,4.2763,4.3579,4.4324,4.5045,4.5045,4.4791,4.4239,4.347,4.2624,0.0,0.0,0.0,0.0,0.0,0.0,4.4201,0.0,0.0,0.0,0.0,0.0,0.0,0.0,0.0,0.0,0.0,0.0,0.0,0.0,4.786,5.2241,5.6088,5.9295,6.1143,5.9229,5.5862,5.2673,5.1267,4.8305,4.5849,4.5849,4.5889,4.5942,4.6001,4.5933,4.6589,4.883,4.9922,5.1426,0.0,0.0,0.0,6.8593,0.0,8.0,8.0351,8.125,8.1367,8.0273,7.9609,7.8789,7.7734,7.6758,7.5703,7.4648,7.4062,7.3203,7.1992,7.168,7.1406,7.1172,7.0234,6.9375,6.8672,6.8008,6.7422,6.6836,6.5742,6.4922,0.0,6.3125,6.2305,6.1719,6.1719,6.1719,6.1719,6.1719,6.1719,6.1719,0.0,0.0,0.0,0.0,0.0,0.0,0.0,3.1648,3.2526,3.4983,3.5318,3.6276,3.8704,3.91,3.9838,4.1445,4.1765,0.0,0.0,0.0,0.0,0.0,0.0,4.0284,4.0527,4.1313,4.2336,4.3558,4.4275,4.5036,4.5704,4.5704,4.5229,4.4355,4.347,4.2624,0.0,0.0,0.0,0.0,4.5167,4.4975,0.0,0.0,0.0,0.0,0.0,0.0,0.0,0.0,0.0,0.0,0.0,0.0,0.0,0.0,0.0,0.0,0.0,5.4851,5.7126,5.6285,5.3703,5.1197,5.0476,4.7981,0.0,4.5802,4.5845,4.5935,4.606,4.5911,4.5896,4.6273,4.8269,5.0742,0.0,5.8706,0.0,0.0,7.4258,7.6601,7.7305,7.957,8.0976,8.0898,7.9414,7.8476,7.8398,7.6055,7.4648,7.4609,7.4531,7.3711,7.2031,7.1211,7.1211,7.1953,6.9531,6.8789,6.9453,6.7773,6.6914,6.6797,6.6758,6.5742,6.4219,6.414,6.3164,6.1719,6.1719,6.1719,6.1719,6.1719,6.1719,6.1719,0.0,0.0,0.0,0.0,0.0,0.0,0.0,0.0,0.0,0.0,3.3612,3.439,3.5633,3.7107,3.8439,0.0,0.0,0.0,0.0,0.0,0.0,0.0,4.1495,4.1622,4.2957,4.2919,4.3212,4.3889,4.4066,4.4401,4.4863,4.4863,4.503,4.5244,4.3739,4.2624,0.0,0.0,0.0,0.0,4.4513,4.4124,0.0,0.0,0.0,0.0,4.0896,4.1935,0.0,0.0,0.0,0.0,0.0,0.0,0.0,0.0,4.2701,4.3701,4.5086,0.0,4.7548,4.736,4.6663,4.6201,0.0,4.6211,4.5632,4.5632,0.0,4.6097,4.7466,4.6576,4.6742,5.009,5.1039,5.2356,5.5247,0.0,0.0,7.5117,7.8711,8.0351,7.9219,8.0273,8.0703,8.0078,7.9062,7.8203,7.7539,7.6289,7.5273,7.4609,7.3945,7.3086,7.1992,7.1797,7.1797,7.1992,7.0703,6.9883,6.9453,6.8398,6.7187,6.5859,6.5195,6.4297,6.3242,6.2578,6.207,6.1719,6.1719,6.1719,6.1719,6.1719,6.1719,6.1719,0.0,0.0,0.0,0.0,0.0,0.0,0.0,0.0,0.0,0.0,3.2982,3.3883,3.5118,3.6518,3.8075,0.0,0.0,0.0,0.0,0.0,0.0,4.3085,4.2474,4.2647,4.3765,4.3622,4.3977,4.4816,4.4816,4.5006,4.5393,4.5393,4.5464,4.5556,4.4244,4.3162,0.0,0.0,0.0,0.0,4.4733,0.0,0.0,0.0,0.0,0.0,4.0734,4.1571,0.0,4.1897,4.3166,4.4667,0.0,0.0,0.0,0.0,4.1854,4.1974,4.2393,4.3393,4.4316,4.4316,4.459,4.4936,4.4975,0.0,0.0,0.0,0.0,4.5898,4.6897,4.6591,4.7092,4.9826,5.1584,0.0,0.0,0.0,7.1601,7.7148,7.9414,8.0508,8.0312,8.0351,8.0039,7.9219,7.8398,7.7539,7.664,7.5781,7.4883,7.4023,7.2773,7.207,7.1992,7.1992,7.1992,7.1992,7.0703,6.9883,6.9453,6.8164,6.6875,6.5586,6.5117,6.418,6.2969,6.25,6.207,6.1719,6.1719,6.1719,6.1719,6.1719,6.1719,6.1719,0.0,0.0,0.0,0.0,0.0,0.0,0.0,0.0,0.0,0.0,0.0,0.0,0.0,0.0,0.0,0.0,0.0,0.0,0.0,0.0,4.4201,4.3508,4.3355,4.3528,4.4067,4.4062,4.4597,4.5708,4.5708,4.5855,4.6123,4.6123,4.5865,4.5398,4.4858,4.4072,4.3256,0.0,0.0,0.0,4.5153,0.0,0.0,0.0,0.0,0.0,0.0,0.0,0.0,4.242,4.3368,4.4239,4.3859,0.0,0.0,0.0,0.0,0.0,4.1893,4.3393,4.4624,4.4355,4.4975,4.5398,4.4667,0.0,0.0,0.0,0.0,0.0,0.0,4.6855,0.0,4.8889,0.0,0.0,6.6207,6.8543,7.164,7.7773,7.8828,7.9531,8.0703,8.0117,7.9414,7.8711,7.7773,7.6836,7.5937,7.5078,7.4219,7.332,7.1601,7.1055,7.1797,7.168,7.1601,7.1562,6.9961,6.9258,6.9258,6.7617,6.6367,6.539,6.539,6.4414,6.2812,6.2812,6.2383,6.1719,6.1719,6.1719,6.1719,6.1719,6.1719,6.1719,0.0,0.0,0.0,0.0,0.0,0.0,0.0,0.0,0.0,0.0,0.0,0.0,0.0,0.0,0.0,0.0,0.0,0.0,0.0,4.5323,4.5359,4.5205,4.4513,4.4496,4.5306,4.5306,4.5294,4.5196,4.5196,4.5218,4.5263,4.5263,4.4995,4.4543,4.5556,4.5142,4.3736,4.4297,0.0,4.4763,4.4707,0.0,0.0,0.0,0.0,0.0,0.0,0.0,0.0,4.0755,4.2238,4.3936,4.1743,0.0,0.0,0.0,0.0,0.0,4.3278,4.5163,4.6158,4.4662,4.4975,4.5556,4.5436,0.0,0.0,0.0,0.0,0.0,0.0,4.9437,5.001,0.0,0.0,6.2572,6.9774,7.3054,7.5664,7.8203,8.039,8.125,8.0039,7.9765,7.9648,7.9531,7.8086,7.6836,7.5937,7.5078,7.4219,7.332,7.1601,7.0742,7.0898,7.0234,6.9844,6.9805,6.8828,6.8398,6.8359,6.7344,6.6015,6.4492,6.4492,6.3515,6.1914,6.1914,6.1836,6.1719,6.1719,6.1719,6.1719,6.1719,6.1719,6.1719,0.0,0.0,0.0,0.0,0.0,0.0,0.0,0.0,0.0,0.0,0.0,0.0,0.0,0.0,0.0,0.0,0.0,0.0,0.0,4.5155,4.5821,4.6278,4.5475,4.5205,4.5594,4.6052,4.6224,4.6066,4.6492,4.6378,4.5731,4.5109,4.4452,4.3809,4.4902,4.4679,4.3587,4.4291,4.4612,4.4592,0.0,0.0,0.0,0.0,0.0,0.0,0.0,0.0,0.0,0.0,4.1782,4.3101,4.1449,0.0,0.0,0.0,0.0,0.0,4.3089,4.4547,4.574,4.6778,4.8048,4.8548,4.6701,4.7014,0.0,0.0,0.0,0.0,0.0,0.0,5.526,6.0604,6.3231,6.6242,7.0934,7.2363,7.4128,7.7422,7.8828,7.9609,7.9687,7.9687,7.9336,7.8437,7.7187,7.6133,7.5234,7.4375,7.3281,7.1953,7.0703,6.9844,6.9336,6.8515,6.8515,6.9375,6.8594,6.8203,6.8164,6.6797,6.5508,6.4258,6.3789,6.289,6.1719,6.1719,6.1719,6.1719,6.1719,6.1719,6.1719,6.1719,6.1719,6.1719,0.0,0.0,0.0,0.0,0.0,0.0,0.0,0.0,0.0,0.0,0.0,0.0,0.0,0.0,0.0,0.0,0.0,0.0,0.0,4.4844,4.584,4.6543,4.6163,4.5975,4.6167,4.6663,4.7081,4.7505,4.7889,4.7572,4.6559,4.5597,4.4712,4.3931,4.4513,4.4291,4.3505,4.4083,4.4355,4.4334,0.0,0.0,0.0,0.0,0.0,0.0,0.0,0.0,0.0,0.0,0.0,0.0,0.0,0.0,0.0,4.1512,4.0973,4.1281,4.3393,4.4432,4.5624,4.8663,5.0082,5.0428,4.9236,4.951,0.0,0.0,0.0,0.0,0.0,5.6049,0.0,6.6344,6.8052,6.9649,7.2734,7.2639,7.3708,7.7617,7.8086,7.8515,7.9609,7.9687,7.8984,7.7344,7.6406,7.543,7.4336,7.3672,7.2578,7.1055,7.0039,6.918,6.8476,6.7422,6.7539,6.8828,6.8203,6.7773,6.7539,6.6211,6.5,6.3945,6.3281,6.25,6.1719,6.1719,6.1719,6.1719,6.1719,6.1719,6.1719,6.1719,6.1719,6.1719,0.0,0.0,0.0,0.0,0.0,0.0,0.0,0.0,0.0,0.0,0.0,0.0,0.0,0.0,0.0,0.0,0.0,0.0,4.3284,4.446,4.5301,4.5697,4.6394,4.7158,4.7889,4.7235,4.7658,4.9202,4.8471,4.7864,4.7401,4.7016,4.6396,4.5608,4.5349,4.4774,4.3931,4.3664,4.3572,4.3563,4.3538,0.0,0.0,0.0,0.0,0.0,0.0,0.0,0.0,0.0,0.0,0.0,0.0,0.0,4.3085,4.2931,4.2354,4.2427,4.5735,4.6658,4.7158,4.8933,4.8317,4.862,5.3857,5.3318,0.0,5.5708,0.0,0.0,0.0,6.005,6.3788,6.666,6.9938,7.3399,7.6947,7.756,7.8398,8.0468,8.0742,8.0469,7.9765,7.9687,7.8984,7.7344,7.6406,7.5156,7.3476,7.332,7.2851,7.1953,7.0351,6.9453,6.9297,6.7695,6.6953,6.707,6.7031,6.6562,6.5781,6.5664,6.4687,6.3086,6.3047,6.25,6.1719,6.1719,6.1719,6.1719,6.1719,6.1719,6.1719,6.1719,6.1719,6.1719,0.0,0.0,0.0,0.0,0.0,0.0,0.0,0.0,0.0,0.0,0.0,0.0,0.0,0.0,0.0,0.0,0.0,0.0,4.2187,4.3347,4.4612,4.6,4.5852,4.6502,4.8082,4.8856,4.9817,5.0966,4.9671,4.8428,4.722,4.6113,4.5151,4.4363,4.4256,4.3997,4.3669,4.3538,4.3506,4.3506,4.3506,4.2543,0.0,0.0,0.0,0.0,0.0,0.0,0.0,0.0,4.0404,4.1666,4.0929,4.2163,4.3624,4.2581,4.2427,4.3008,4.4816,4.6428,4.8043,4.9784,5.0125,0.0,0.0,5.6588,5.7973,5.9787,6.0748,0.0,0.0,0.0,6.6859,7.0475,7.2668,7.48,7.7478,7.7465,7.7745,7.9256,7.9453,7.9336,7.8984,7.8476,7.7656,7.6484,7.5078,7.3984,7.3359,7.2265,7.1289,7.0469,6.9297,6.8437,6.7851,6.7226,6.664,6.6094,6.664,6.6445,6.5586,6.5039,6.414,6.2969,6.2422,6.1992,6.1719,6.1719,6.1719,6.1719,6.1719,6.1719,6.1719,6.1719,6.1719,6.1719,0.0,0.0,0.0,0.0,0.0,0.0,0.0,0.0,0.0,0.0,0.0,0.0,0.0,0.0,0.0,0.0,0.0,0.0,4.1194,4.2445,4.3788,4.5291,4.542,4.6249,4.7889,4.9745,5.1087,5.1885,5.0856,4.9379,4.7456,4.6079,4.503,4.424,4.3975,4.3864,4.3873,4.3616,4.3506,4.3506,4.3506,4.269,0.0,0.0,0.0,0.0,0.0,0.0,0.0,0.0,4.0088,4.1195,4.0567,4.2006,4.3739,4.285,4.3008,4.3662,4.4474,4.5778,4.7394,4.9399,0.0,0.0,5.7203,5.9896,6.2281,6.4788,6.5327,6.5474,6.5827,0.0,6.825,7.1738,7.3661,7.5427,7.7536,7.689,7.6671,7.7928,7.7851,7.7695,7.7695,7.7148,7.6445,7.5547,7.414,7.3047,7.25,7.1367,7.0312,6.9531,6.8633,6.789,6.7305,6.6758,6.6172,6.5586,6.5937,6.5625,6.4765,6.414,6.3398,6.2578,6.1953,6.1719,6.1719,6.1719,6.1719,6.1719,6.1719,6.1719,6.1719,6.1719,6.1719,6.1719,0.0,0.0,0.0,0.0,0.0,0.0,0.0,0.0,3.9987,3.962,3.9994,0.0,0.0,0.0,0.0,0.0,0.0,0.0,4.0354,4.1896,4.2925,4.3284,4.5197,4.669,4.7547,4.9621,5.1087,5.1885,5.1939,5.0725,4.828,4.747,4.6645,4.5847,4.503,4.47,4.4626,4.3836,4.3506,4.3506,4.3506,4.3029,4.2213,0.0,0.0,0.0,0.0,0.0,0.0,0.0,3.9763,3.9882,4.1542,4.2567,4.3278,4.4047,4.4316,4.4513,4.5359,4.4975,4.497,4.7505,0.0,0.0,6.1775,6.3314,6.5045,7.1014,6.952,6.6904,6.6096,6.6596,6.7673,6.9436,7.2514,7.5433,7.7548,7.6388,7.5769,7.7029,7.6406,7.5898,7.5898,7.5898,7.5508,7.4648,7.3789,7.2539,7.0781,7.0664,7.0312,6.9492,6.8633,6.8164,6.8164,6.6445,6.5586,6.5547,6.4687,6.3828,6.3008,6.3008,6.2539,6.1719,6.1719,6.1719,6.1719,6.1719,6.1719,6.1719,6.1719,6.1719,6.1719,6.1719,6.1719,6.1719,0.0,0.0,0.0,0.0,0.0,0.0,0.0,0.0,3.9987,3.962,3.952,0.0,0.0,0.0,0.0,0.0,0.0,0.0,3.9984,4.0508,4.1401,4.2873,4.353,4.4344,4.5451,4.7491,4.9339,5.1048,5.1122,4.9561,4.653,4.6359,4.5516,4.424,4.4553,4.4378,4.3836,4.3616,4.3506,4.3506,4.3506,4.3029,4.2213,0.0,0.0,0.0,0.0,0.0,0.0,0.0,0.0,0.0,4.0659,4.2188,4.3893,4.3547,4.4282,4.5282,4.5518,4.6706,0.0,5.0274,0.0,0.0,0.0,6.5551,0.0,0.0,7.1745,6.9706,6.9475,6.9167,6.909,6.9629,7.1514,7.3458,7.4935,7.4711,7.4642,7.5271,7.5156,7.5,7.5,7.4414,7.3711,7.2851,7.1953,7.0976,6.9844,6.9258,6.8828,6.8594,6.7734,6.6992,6.6367,6.5859,6.4961,6.3789,6.3515,6.3242,6.3008,6.3008,6.2539,6.1719,6.1719,6.1719,6.1719,6.1719,6.1719,6.1719,6.1719,6.1719,6.1719,6.1719,6.1719,6.1719,0.0,0.0,0.0,0.0,0.0,0.0,0.0,0.0,4.0143,3.9835,3.9603,3.9346,0.0,0.0,0.0,0.0,0.0,0.0,3.9835,4.0194,4.0901,4.2089,4.285,4.383,4.5058,4.7034,4.8351,4.8948,4.9651,4.8544,4.5813,4.6347,4.5842,4.4497,4.5626,4.5516,4.4461,4.4461,4.4093,4.3506,4.3506,4.3029,4.2213,0.0,0.0,0.0,0.0,0.0,0.0,0.0,0.0,0.0,4.0185,4.1598,4.3278,4.3124,4.4051,4.5244,4.5936,4.7702,0.0,5.2736,5.7011,6.182,6.6744,0.0,0.0,0.0,7.3937,7.1822,7.1475,7.0475,6.9821,7.0129,7.1321,7.2604,7.3764,7.3618,7.3535,7.3925,7.3661,7.3627,7.4023,7.2969,7.2187,7.1992,7.0898,6.9844,6.8984,6.8476,6.8047,6.7695,6.6836,6.6133,6.5625,6.4922,6.4023,6.3008,6.2656,6.2461,6.2461,6.2461,6.2187,6.1719,6.1719,6.1719,6.1719,6.1719,6.1719,6.1719,6.1719,6.1719,6.1719,6.1719,6.1719,6.1719,0.0,0.0,3.9281,3.9281,0.0,0.0,0.0,0.0,4.0397,4.0153,4.012,3.9835,0.0,0.0,0.0,3.9829,0.0,0.0,0.0,4.0589,4.1022,4.1095,4.2992,4.4603,4.5786,4.7568,4.7747,4.6264,4.7882,4.7662,4.5737,4.6995,4.6935,4.5847,4.7388,4.7205,4.5663,4.559,4.4681,4.3286,4.3286,4.2837,4.2103,4.1287,0.0,0.0,0.0,0.0,0.0,0.0,0.0,0.0,4.0144,4.0883,4.1966,4.2854,4.3662,4.4701,4.662,4.8317,5.0592,5.5054,5.9633,0.0,7.0206,7.3745,7.6284,7.7753,7.5745,7.3437,7.2476,7.0937,7.0014,7.0667,7.1398,7.2225,7.3286,7.2698,7.2302,7.2723,7.2003,7.1878,7.2851,7.1523,7.0898,7.1601,7.0234,6.8984,6.8008,6.7969,6.7578,6.668,6.5898,6.543,6.5351,6.3789,6.2969,6.2851,6.207,6.1719,6.1719,6.1719,6.1719,6.1719,6.1719,6.1719,6.1719,6.1719,6.1719,6.1719,6.1719,6.1719,6.1719,6.1719,6.1719,6.1719,0.0,0.0,3.9281,3.9281,0.0,0.0,0.0,0.0,4.0397,4.0153,4.012,3.9835,3.9166,3.9087,0.0,3.9829,3.9166,0.0,0.0,4.0047,4.0451,4.1058,4.3326,4.4974,4.5853,4.5945,4.5958,4.5898,4.7216,4.685,4.4869,4.6098,4.6045,4.4993,4.5993,4.5516,4.3983,4.3351,4.2506,4.1617,4.1617,4.1507,4.1287,4.0451,4.0055,0.0,0.0,0.0,0.0,0.0,0.0,0.0,4.0351,4.1049,4.1966,4.2854,4.3662,4.497,4.8048,4.963,5.19,5.8171,6.4903,7.1059,7.5022,7.5438,7.4892,7.463,7.5053,7.5014,7.3514,7.1822,7.0475,7.0014,6.9552,6.956,7.0604,7.0031,6.9903,7.0926,7.0288,6.9888,7.0273,6.9922,6.9492,6.9062,6.8672,6.7812,6.625,6.6172,6.5742,6.4883,6.4687,6.4258,6.3555,6.3203,6.2656,6.1992,6.1797,6.1719,6.1719,6.1719,6.1719,6.1719,6.1719,6.1719,6.1719,6.1719,6.1719,6.1719,6.1719,6.1719,6.1719,6.1719,6.1719,6.1719,0.0,0.0,0.0,0.0,0.0,0.0,0.0,0.0,4.0929,4.0355,4.064,4.0578,3.969,3.9094,0.0,0.0,3.8876,3.8799,4.0377,4.0487,4.1001,4.2213,4.3819,4.4709,4.4754,4.5033,4.5095,4.492,4.5929,4.5887,4.4875,4.6255,4.642,4.5574,4.695,4.6368,4.4289,4.4037,4.3007,4.1534,4.1392,4.1102,4.0665,4.0126,3.9651,3.9307,3.9017,0.0,0.0,0.0,0.0,0.0,0.0,0.0,4.1354,4.2239,4.3085,4.447,4.7855,5.0625,5.4439,6.2435,0.0,7.2245,7.4861,7.4784,7.3892,7.3053,7.3899,7.4276,7.2584,7.1514,7.0514,6.9276,6.8699,6.8572,6.9096,6.8811,6.8835,6.9629,6.9312,6.9181,6.9452,6.9101,6.8476,6.7656,6.7187,6.6367,6.5039,6.4961,6.4765,6.4297,6.3906,6.3476,6.3008,6.2578,6.2148,6.1719,6.1719,6.1719,6.1719,6.1719,6.1719,6.1719,6.1719,6.1719,6.1719,6.1719,6.1719,6.1719,6.1719,6.1719,6.1719,6.1719,6.1719,6.1719,0.0,0.0,0.0,0.0,0.0,0.0,0.0,0.0,0.0,4.0781,4.1239,4.123,4.0416,3.9325,3.9139,0.0,0.0,0.0,4.0956,4.125,4.2029,4.3653,4.4342,4.4452,4.3947,4.4708,4.4806,4.4213,4.4688,4.5205,4.5769,4.6961,4.7123,4.6581,4.81,4.7312,4.4878,4.4848,4.3584,4.1582,4.1353,4.0826,4.0164,3.9934,3.9445,3.8899,3.911,3.9219,3.9352,3.9893,0.0,0.0,0.0,0.0,4.0666,4.1542,4.2427,4.3816,4.7197,5.1664,5.7396,6.5853,6.9244,0.0,7.2853,7.3046,7.2661,7.2091,7.2552,7.2584,7.0975,7.0437,6.9783,6.8391,6.8045,6.7968,6.7968,6.7853,6.7905,6.8409,6.8219,6.822,6.8788,6.8047,6.7226,6.6523,6.5781,6.5,6.4101,6.4062,6.4023,6.3867,6.3164,6.2773,6.2773,6.207,6.1719,6.1719,6.1719,6.1719,6.1719,6.1719,6.1719,6.1719,6.1719,6.1719,6.1719,6.1719,6.1719,6.1719,6.1719,6.1719,6.1719,6.1719,6.1719,6.1719,0.0,0.0,0.0,0.0,0.0,0.0,0.0,0.0,0.0,0.0,4.1085,4.0777,4.1112,4.04,3.9997,4.0269,3.9442,3.9533,4.1009,0.0,0.0,4.448,4.4626,4.4993,4.5553,4.5056,4.4875,4.5025,4.4431,4.5601,4.838,4.7768,4.7296,4.6899,4.6475,4.5255,4.3439,4.2046,4.0865,3.9914,3.9867,3.9817,3.9698,3.9656,3.9569,3.95,3.9504,3.9731,3.9987,4.0057,4.0264,0.0,0.0,0.0,4.0666,4.1542,4.2427,4.3816,4.7197,5.3356,6.0012,6.4974,6.7475,6.9353,0.0,7.1245,7.036,7.0937,7.1168,7.0975,7.0014,6.8629,6.752,6.7321,6.6712,6.6244,6.6244,6.559,6.5517,6.662,6.5414,6.4907,6.6014,6.5312,6.4765,6.4648,6.4531,6.4101,6.3203,6.3164,6.2812,6.207,6.1914,6.1875,6.1875,6.1758,6.1719,6.1719,6.1719,6.1719,6.1719,6.1719,6.1719,6.1719,6.1719,6.1719,6.1719,6.1719,6.1719,6.1719,6.1719,6.1719,6.1719,6.1719,6.1719,6.1719,0.0,0.0,0.0,0.0,0.0,0.0,0.0,0.0,0.0,0.0,0.0,4.1126,4.088,3.9994,3.9622,4.0134,3.9286,3.9256,4.0578,4.188,4.2811,4.3314,4.3791,4.3975,4.3901,4.3534,4.3444,4.357,4.3407,4.5359,4.9296,4.906,4.9364,5.0081,4.8498,4.6748,4.4866,4.291,4.1308,4.0082,3.9929,4.0138,4.0469,3.9838,3.9894,4.0245,3.9775,3.9703,3.984,4.0032,4.0196,4.0308,4.0438,0.0,0.0,0.0,4.17,4.3504,4.8812,5.339,5.7934,6.3166,6.5359,6.6821,6.8866,6.9167,6.8936,6.8783,6.8398,6.7975,6.7628,6.6551,6.5551,6.5051,6.4666,6.4436,6.4436,6.4193,6.4251,6.488,6.4356,6.4226,6.4804,6.4531,6.4101,6.3594,6.3555,6.3203,6.2305,6.2265,6.2109,6.1719,6.1719,6.1719,6.1719,6.1719,6.1719,6.1719,6.1719,6.1719,6.1719,6.1719,6.1719,6.1719,6.1719,6.1719,6.1719,6.1719,6.1719,6.1719,6.1719,6.1719,6.1719,6.1719,6.1719,6.1719,0.0,0.0,0.0,0.0,0.0,0.0,0.0,0.0,0.0,0.0,0.0,4.1316,4.0896,0.0,0.0,0.0,3.934,3.9305,4.0364,4.1732,4.2484,4.2415,4.2933,4.2919,4.2323,4.2286,4.2213,4.1984,4.2551,4.5265,4.9917,5.0063,5.1493,5.3904,5.1001,4.8518,4.6325,4.4041,4.2474,4.1423,4.0789,4.0754,4.1046,4.0657,4.0621,4.074,4.0312,4.004,3.9882,4.0115,4.0214,4.0251,4.0426,4.0516,0.0,0.0,0.0,4.3043,4.8735,5.1548,5.4203,5.9698,6.2044,6.3551,6.5667,6.6628,6.6968,6.6551,6.5634,6.4942,6.4942,6.4551,6.4045,6.3429,6.3314,6.3237,6.3006,6.3125,6.3295,6.3482,6.3443,6.354,6.3945,6.3789,6.3359,6.2734,6.2656,6.2383,6.1719,6.1719,6.1719,6.1719,6.1719,6.1719,6.1719,6.1719,6.1719,6.1719,6.1719,6.1562,6.1367,6.1601,6.1562,6.1367,6.1601,6.1719,6.1719,6.1719,6.1719,6.1719,6.1719,6.1719,6.1719,6.1719,6.1719,6.1719,0.0,0.0,0.0,0.0,0.0,0.0,0.0,0.0,0.0,0.0,0.0,4.0858,4.1658,4.0966,4.0338,4.0101,4.0067,4.024,4.0746,4.1326,4.2017,4.2761,4.2521,0.0,4.2286,4.2286,4.1911,4.1168,4.2254,4.5549,5.0806,5.0342,5.2912,5.7796,5.2856,4.9236,4.6717,4.4154,4.347,4.397,4.2376,4.1223,4.0727,4.233,4.1903,4.0634,4.1395,4.1168,4.0446,4.0458,4.05,4.0462,4.0512,4.0516,4.0516,0.0,0.0,0.0,4.5167,4.7163,4.9471,5.3857,5.6819,5.9467,6.2737,6.3545,6.3775,6.4589,6.3441,6.2287,6.2287,6.2897,6.3352,6.3314,6.3314,6.3051,6.2287,6.219,6.2295,6.262,6.196,6.187,6.2968,6.2305,6.1836,6.1758,6.1758,6.1758,6.1719,6.1719,6.1719,6.1719,6.1719,6.1719,6.1719,6.1719,6.1719,6.1719,6.1719,6.1289,6.0508,6.1328,6.125,6.0508,6.1328,6.1719,6.1719,6.1719,6.1719,6.1719,6.1719,6.1719,6.1719,6.1719,6.1719,6.1719,0.0,0.0,0.0,0.0,0.0,0.0,0.0,0.0,0.0,0.0,0.0,0.0,0.0,4.0704,4.0672,4.1166,4.1195,4.1169,4.113,4.18,4.2479,4.3096,4.3535,4.3509,4.2948,4.2448,4.1917,4.1423,4.1475,4.391,4.8479,4.9067,5.1069,5.4082,5.1746,4.9899,4.8279,4.4624,4.2931,4.2581,4.1431,4.1435,4.2128,4.1627,4.1743,4.2051,4.1243,4.0743,4.0516,4.0516,4.0516,0.0,0.0,0.0,0.0,0.0,4.0704,4.1512,4.409,4.5201,4.6701,5.0976,5.3972,5.6472,5.8748,6.0935,6.2474,6.2204,6.2133,6.1941,6.1364,6.1512,6.1704,6.1704,6.1704,6.1396,6.055,6.0987,6.1264,6.0963,6.1218,6.1621,6.2109,6.1875,6.1719,6.1719,6.1719,6.1719,6.1719,6.1719,6.1719,6.1719,6.1719,6.1719,6.1719,6.1719,6.1406,6.0859,6.0859,6.0703,6.039,6.0703,6.1015,6.1211,6.0976,6.1172,6.1719,6.1719,6.1719,6.164,6.1094,6.1211,6.164,6.1055,6.1211,6.1719,0.0,0.0,0.0,0.0,0.0,4.1358,4.1358,4.1854,4.2047,4.1435,0.0,0.0,0.0,0.0,4.1627,4.2196,4.2235,4.2138,4.191,4.2311,4.2667,4.3001,4.3769,4.3788,4.2913,4.2372,4.18,4.1201,4.1029,4.2796,4.6302,4.7327,4.912,5.1428,4.9745,4.9283,4.9591,4.5932,4.4043,4.3427,4.2243,4.232,4.3085,4.3051,4.3089,4.3008,4.2435,4.1666,4.0896,4.0593,4.0516,4.0516,0.0,0.0,0.0,0.0,0.0,0.0,4.2551,0.0,0.0,4.8745,5.1087,5.301,5.5593,5.8132,5.9787,5.9209,6.0248,6.0979,6.0127,6.0165,6.0358,6.0358,6.0358,6.0089,5.9204,5.968,5.9968,5.9526,6.0105,6.0672,6.1104,6.1148,6.127,6.1594,6.1634,6.1637,6.1719,6.1719,6.1719,6.1719,6.1719,6.1562,6.1289,6.125,6.0859,6.0,6.0,5.9844,5.957,5.9844,6.0156,6.039,6.0117,6.0469,6.125,6.0976,6.1015,6.1211,6.0625,6.0937,6.164,6.1055,6.1211,6.1719,0.0,0.0,4.4047,4.3278,4.3124,4.3085,4.3085,4.3124,4.3124,4.3085,0.0,0.0,0.0,0.0,0.0,4.3085,4.3124,4.3124,4.3124,4.2848,4.2629,4.2598,4.3106,4.2982,4.2208,4.217,4.1606,4.046,4.1021,4.2422,4.4625,4.5231,4.7321,5.0399,4.7095,4.7437,5.0361,4.7855,4.6812,4.6735,4.497,4.3855,4.3585,4.6735,4.597,4.3431,4.5013,4.397,4.1773,4.0896,4.0593,4.0593,0.0,0.0,0.0,0.0,0.0,0.0,0.0,0.0,0.0,4.6889,4.7966,4.9086,5.3318,5.4939,5.5555,5.567,5.7665,5.9165,5.8429,5.8934,5.9435,5.9435,5.9435,5.9165,5.8396,5.8275,5.8351,5.8463,5.8492,5.889,5.9885,5.998,6.0385,6.1342,6.1426,6.1494,6.164,6.164,6.164,6.164,6.164,6.1211,6.0351,6.0351,5.9961,5.914,5.914,5.8711,5.793,5.8789,5.8711,5.7969,5.8828,5.9609,6.0312,5.9531,5.9687,6.039,6.039,6.0937,6.1719,6.168,6.168,6.1719,0.0,4.4744,4.4239,4.4008,4.347,4.3085,4.3085,4.3585,4.3778,0.0,0.0,0.0,4.3162,4.3624,4.3739,4.3162,4.3624,4.397,4.397,4.388,4.4113,4.4723,4.4892,4.4858,4.4628,4.4006,4.3123,4.1982,4.1772,4.1876,4.2253,4.3305,4.4936,4.698,4.6018,4.6133,4.6898,4.497,4.5235,4.6697,4.4355,4.4739,4.6543,4.5047,4.5047,4.5735,4.4932,4.4628,4.4436,4.3551,4.3243,4.3051,0.0,0.0,0.0,0.0,0.0,0.0,4.0516,0.0,0.0,0.0,0.0,0.0,4.8428,5.0587,5.2592,5.4439,5.5857,5.7088,5.8127,5.7973,5.7709,5.7709,5.8204,5.8319,5.7478,5.7896,5.8119,5.7615,5.8105,5.8657,5.9035,5.9051,5.9219,5.9589,5.9632,5.9934,6.0703,6.0742,6.0742,6.0742,6.0195,5.9765,5.9531,5.9531,5.9101,5.8242,5.8242,5.8125,5.789,5.8164,5.8476,5.8828,5.8437,5.875,5.957,5.9922,6.0195,6.039,6.039,6.0937,6.1601,6.0976,6.1172,6.1719,4.5518,4.5205,4.4859,4.4859,4.4436,4.4128,4.4128,4.4551,4.4667,0.0,0.0,0.0,4.4205,4.5201,4.5393,4.4244,4.459,4.4859,4.4859,4.4859,4.4898,4.5051,4.5398,4.5436,4.5051,4.4551,4.3908,4.313,4.2594,4.2163,4.1861,4.2713,4.3624,4.4551,4.4167,4.4205,4.4466,4.3328,4.3994,4.5769,4.5208,4.6225,4.8043,4.7509,4.7817,4.8355,4.7321,4.7052,4.6898,4.4936,4.4085,4.3508,0.0,0.0,0.0,0.0,0.0,0.0,0.0,0.0,0.0,4.247,0.0,0.0,4.5893,4.7514,4.9091,5.0933,5.2549,5.3939,5.4934,5.528,5.5285,5.4934,5.5588,5.6242,5.6439,5.6896,5.7076,5.6627,5.7032,5.7516,5.7963,5.7975,5.8207,5.8714,5.8725,5.9014,5.9649,5.9749,5.9756,5.9756,5.9413,5.9023,5.8672,5.8672,5.8203,5.7344,5.7344,5.7344,5.7344,5.7344,5.7617,5.8086,5.7578,5.7656,5.8203,5.9414,6.0117,6.039,6.039,6.0937,6.164,6.1133,6.125,6.1719,0.0,4.5594,4.5633,4.5744,4.5744,4.5782,4.5859,4.5782,4.5821,0.0,4.6095,4.6133,4.6013,4.7278,4.7509,4.6013,4.571,4.5594,4.5594,4.5594,4.5244,4.4474,4.5205,4.5244,4.4474,4.4436,4.4267,4.3945,4.3456,4.3029,4.2674,4.2957,4.3085,4.3047,4.2196,4.2273,4.3069,4.2631,4.3119,4.4447,4.6648,4.787,4.8725,5.1643,5.1951,5.0804,5.0612,5.0133,4.912,4.5846,4.4124,4.3085,4.1435,4.1316,0.0,0.0,4.0627,0.0,0.0,0.0,0.0,0.0,4.3047,0.0,4.4705,4.5321,4.5706,4.6581,4.8625,5.0322,5.0515,5.1779,5.2544,5.189,5.2428,5.3549,5.5324,5.5555,5.5593,5.5708,5.5708,5.6016,5.6786,5.6863,5.7215,5.8127,5.8319,5.8418,5.8537,5.8681,5.8724,5.8724,5.8817,5.8515,5.7734,5.7734,5.7383,5.6601,5.6601,5.6601,5.6601,5.6601,5.6601,5.6601,5.6601,5.664,5.6875,5.8515,5.9609,6.0273,6.0469,6.1015,6.1719,6.1719,6.1719,6.1719,4.5556,4.5594,4.5821,4.6509,4.6658,4.6851,4.7509,4.7048,4.7124,4.8471,4.9283,4.9437,4.8745,4.8317,4.7966,4.7625,4.6398,4.5594,4.5594,4.5594,4.5518,4.5359,4.5518,4.5518,4.5359,4.5359,4.4996,4.4221,4.4107,4.368,4.2988,4.3064,4.3085,4.3047,4.2196,4.2273,4.3056,4.2368,4.2805,4.409,4.6241,4.8397,5.0251,5.0196,5.0795,5.1497,5.0127,5.0215,5.0562,4.8159,4.6355,4.4936,4.3897,4.2739,4.1773,4.1581,0.0,0.0,0.0,0.0,0.0,0.0,4.3047,0.0,4.2739,4.3585,4.4782,4.5667,4.6817,4.8048,4.9394,4.9933,5.0317,5.0861,5.1092,5.2015,5.4395,5.4741,5.4972,5.5631,5.5708,5.5785,5.5939,5.5939,5.6092,5.6372,5.7165,5.7612,5.7642,5.7668,5.768,5.768,5.7193,5.6878,5.6683,5.6793,5.6758,5.6601,5.6601,5.6601,5.6601,5.6601,5.6601,5.6601,5.6601,5.6992,5.7734,5.8789,5.9297,5.957,6.0937,6.1562,6.1719,6.1719,6.1719,6.1719,4.5594,4.5594,4.6013,4.7274,4.7158,4.7466,4.9125,4.8702,4.8586,4.9899,5.0779,5.0818,4.9548,4.9009,4.8394,4.7582,4.636,4.5594,4.5594,4.5594,4.5594,4.5594,4.5594,4.5594,4.5594,4.5594,4.5398,4.4936,4.4936,4.4744,4.4359,4.4359,4.3897,4.3085,4.3047,4.271,4.2221,4.2503,4.2894,4.3566,4.6711,4.8844,5.0258,5.1503,5.222,5.2394,5.1134,5.0434,4.9836,4.8528,4.7278,4.5932,4.4239,4.3393,4.2889,4.2043,4.1812,4.1812,0.0,0.0,0.0,4.2466,4.3085,0.0,0.0,4.3085,4.3932,4.4782,4.5316,4.5855,4.6701,4.7586,4.8163,4.8168,4.886,5.001,5.1702,5.3049,5.401,5.4395,5.4434,5.4434,5.4434,5.4857,5.5299,5.5779,5.6257,5.6555,5.6555,5.6611,5.6469,5.6087,5.6283,5.5962,5.5106,5.6088,5.6367,5.5976,5.6406,5.6601,5.6601,5.6601,5.6601,5.6601,5.6601,5.6836,5.7305,5.8203,5.8555,5.875,6.0898,6.1719,6.1719,6.1719,6.1719,6.1719,4.5594,4.5594,4.609,4.7582,4.7466,4.7889,5.0091,4.9861,4.9779,5.0784,5.1779,5.1928,5.0741,5.0053,4.9433,4.8894,4.686,4.5936,4.6744,4.6052,4.5518,4.5359,4.5518,4.5518,4.5359,4.5513,4.5594,4.5594,4.5594,4.5594,4.5594,4.5594,4.4898,4.3585,4.3932,4.3366,4.2181,4.2879,4.3255,4.3699,4.7383,4.884,4.9175,5.2411,5.3193,5.2422,5.1855,5.0457,4.8831,4.8217,4.7616,4.6735,4.4316,4.3893,4.4047,4.2696,4.2389,0.0,0.0,4.2658,4.3043,4.3278,4.3701,4.3893,0.0,0.0,0.0,4.4008,4.4201,4.4316,4.4316,4.5586,4.6355,4.5475,4.6778,4.8048,4.8586,5.0702,5.239,5.289,5.2813,5.2856,5.3159,5.3664,5.4395,5.5401,5.5318,5.5357,5.567,5.5677,5.532,5.4671,5.5416,5.5145,5.376,5.5456,5.5976,5.5312,5.6172,5.6601,5.6601,5.6601,5.6601,5.6601,5.6601,5.6601,5.668,5.7539,5.789,5.8125,6.0351,6.1211,6.125,6.1406,6.1445,6.1484,4.5594,4.5594,4.5898,4.6851,4.7543,4.8317,4.9394,4.9471,4.9971,5.1543,5.3203,5.4395,5.4939,5.2323,5.1977,5.5555,4.9553,4.7206,5.0928,4.7663,4.5244,4.4474,4.5205,4.5244,4.4474,4.5205,4.5594,4.5594,4.5594,4.5594,4.5594,4.5594,4.5518,4.5244,4.3855,4.3919,4.4999,4.3309,4.3719,4.5636,4.7532,4.7487,4.6614,4.95,5.0331,5.0026,5.0244,4.9923,4.9232,4.8007,4.7721,4.7658,4.5898,4.4859,4.4239,4.4085,4.4551,4.5013,4.4239,4.5663,4.6851,4.4701,4.5855,4.6735,4.3778,0.0,4.4936,4.3508,0.0,4.4316,4.4316,0.0,0.0,4.459,4.5893,4.6812,4.6129,4.7548,4.9505,5.1774,5.1433,5.1553,5.3044,5.2582,5.2851,5.4511,5.3933,5.4126,5.5631,5.5042,5.4634,5.4524,5.4025,5.3715,5.3607,5.4734,5.5297,5.5312,5.6172,5.6601,5.6601,5.6601,5.6601,5.6601,5.6601,5.6601,5.668,5.7539,5.789,5.8008,5.9062,5.9492,5.957,6.0273,6.0547,6.0664,4.5564,4.5594,4.6013,4.7351,4.7505,4.8107,5.0183,5.1769,5.3019,5.399,5.517,5.6439,5.7742,5.5324,5.4516,0.0,5.2702,5.0356,5.1164,4.8586,4.6894,4.6509,4.5936,4.5667,4.5817,4.5667,4.5594,4.5594,4.5594,4.5594,4.5594,4.5594,4.5321,4.4859,4.4628,4.4549,4.4551,4.4668,4.4858,4.5233,4.6914,4.6882,4.6246,4.98,5.0603,4.9861,4.9508,4.9447,4.9358,4.8529,4.8198,4.7889,4.674,4.5744,4.4936,4.4436,4.4551,4.4782,4.4397,4.5817,4.7043,4.5436,4.6586,4.7471,4.509,4.509,4.5398,4.4705,0.0,0.0,0.0,0.0,0.0,0.0,4.4893,4.5278,4.4898,4.5047,4.6312,4.9351,4.9394,4.9663,5.0894,5.0664,5.0971,5.2207,5.2395,5.2967,5.4164,5.3933,5.3741,5.3741,5.3537,5.3187,5.2748,5.4303,5.5121,5.5215,5.6131,5.6601,5.6601,5.6601,5.6601,5.6601,5.6601,5.6601,5.664,5.6992,5.7148,5.7187,5.7539,5.832,5.9258,5.957,5.9687,5.9765,4.5273,4.5313,4.5754,4.705,4.6886,4.757,5.0361,5.2359,5.4096,5.5497,5.6149,5.7468,6.0072,5.8383,5.8011,0.0,5.7082,5.4511,5.3515,5.0741,4.862,4.7471,4.6706,4.624,4.6197,4.6047,4.5821,4.5594,4.5594,4.5594,4.5594,4.5594,4.5244,4.4667,4.5321,4.526,4.4725,4.5959,4.6182,4.5855,4.7188,4.7491,4.7422,4.9946,5.0575,5.002,4.9316,4.9326,4.958,4.8985,4.8662,4.8274,4.7235,4.6471,4.5782,4.4898,4.497,4.524,4.4782,4.6086,4.7278,4.5936,4.6701,4.7394,4.5936,4.5782,4.5898,4.5629,4.5782,0.0,0.0,0.0,4.5321,4.4436,0.0,4.4201,4.4008,4.347,4.4162,4.7086,4.7817,4.8274,4.8663,4.8702,4.9163,5.0245,5.0664,5.1428,5.2774,5.2851,5.2851,5.2851,5.2927,5.2609,5.1812,5.3453,5.4442,5.4748,5.5729,5.6324,5.6558,5.6562,5.6601,5.6601,5.6601,5.6601,5.6601,5.6601,5.6601,5.6601,5.6601,5.7383,5.8515,5.875,5.8828,5.8867,4.4644,4.4644,4.4745,4.5121,4.5538,4.6677,4.9178,4.9631,5.1141,5.5187,5.5394,5.7035,6.1963,6.1396,6.2974,6.8783,6.3166,5.9627,6.0441,5.5005,4.9966,4.5859,4.7163,4.6894,4.4432,4.6004,4.6432,4.5594,4.5594,4.5594,4.5594,4.5594,4.5594,4.5556,4.5594,4.6047,4.6799,4.6876,4.7566,4.87,4.9151,4.9798,5.0402,4.8972,4.9134,5.0038,4.961,4.9721,4.9947,4.9102,4.9045,4.9086,4.7428,4.6889,4.6697,4.5821,4.6706,4.7625,4.6013,4.7398,4.8702,4.6206,4.6278,4.6697,4.5782,4.624,4.662,4.5782,4.6278,4.6581,4.5706,4.5594,4.5321,4.4436,4.4316,0.0,0.0,4.3124,4.3739,4.5475,4.7124,4.7812,4.7043,4.6966,4.7658,4.9317,4.8663,4.9312,5.1808,5.1923,5.1923,5.1923,5.1933,5.17,5.112,5.1852,5.2752,5.3848,5.472,5.558,5.6395,5.6558,5.6601,5.6601,5.6601,5.6601,5.6601,5.6601,5.6601,5.6601,5.6601,5.664,5.6797,5.7617,5.793,5.8047,4.5331,4.5013,4.4676,4.4751,4.4915,4.5995,4.897,5.1134,5.4144,5.9022,6.051,6.3034,6.8006,6.8531,6.9357,7.1369,6.8311,6.5397,6.3435,5.8813,5.5241,5.3246,5.1015,4.9663,4.9351,4.8274,4.7274,4.6471,4.5898,4.5594,4.5594,4.5594,4.5594,4.5633,4.6201,4.662,4.7005,4.8702,4.9346,4.9266,4.9976,5.0741,5.1355,5.0009,4.941,4.918,4.8792,4.8546,4.841,4.8721,4.8701,4.8548,4.8548,4.8163,4.762,4.7355,4.8048,4.8856,4.8283,4.9971,5.1318,4.8745,4.8783,4.8894,4.6894,4.7081,4.7317,4.5898,4.6701,4.7278,4.5859,4.5594,4.5513,4.5205,4.4667,4.4008,0.0,4.3085,4.3316,4.3893,4.4932,4.547,4.5201,4.5701,4.6052,4.6009,4.6817,4.7928,4.9312,4.9928,5.051,5.1087,5.1206,5.1428,5.1751,5.2051,5.271,5.3684,5.4069,5.4681,5.5539,5.5594,5.5913,5.6458,5.6377,5.6353,5.6356,5.6445,5.646,5.6463,5.6561,5.6601,5.664,5.6914,5.7031,5.707,4.5879,4.5465,4.5054,4.4861,4.5184,4.6494,4.9459,5.3256,5.7303,6.1543,6.4433,6.7669,7.1779,7.3009,7.3637,7.3942,7.2809,7.0087,6.5472,6.3118,6.0281,5.667,5.4785,5.3203,0.0,5.0582,4.8928,4.6889,4.6624,4.6167,4.5594,4.5594,4.5594,4.5633,4.6509,4.7043,4.7466,4.9745,5.0553,5.0356,5.0894,5.1279,5.1336,5.0276,4.9701,4.9367,4.847,4.8181,4.8269,4.881,4.9015,4.9086,4.9317,4.9009,4.8548,4.8548,4.9163,4.9861,4.9861,5.1279,5.2274,5.0356,5.0284,5.0091,4.7851,4.7966,4.8163,4.6783,4.7124,4.7625,4.7437,4.6441,4.5706,4.6013,4.4816,4.347,0.0,4.2431,4.2739,4.3047,4.409,4.4744,4.4744,4.5282,4.5359,4.4782,4.5817,4.6817,4.762,4.8779,4.9668,5.0207,5.0935,5.146,5.1758,5.1828,5.248,5.3686,5.3757,5.4394,5.5496,5.5559,5.5828,5.6303,5.623,5.6194,5.6205,5.6356,5.639,5.6397,5.6559,5.6601,5.6601,5.6601,5.6601,5.6601,4.6324,4.6104,4.5982,4.5555,4.6418,4.8039,5.0572,5.5673,6.015,6.2756,6.7037,7.0847,7.3378,7.4806,7.5886,7.6708,7.6531,7.3618,6.7068,6.7828,6.4834,5.6648,5.8433,5.7324,5.2398,0.0,0.0,0.0,4.7735,4.724,4.5667,4.5633,4.5594,4.5633,4.6547,4.7351,4.8159,4.9976,5.1202,5.1885,5.1962,5.1471,5.0668,4.9745,4.9899,5.0399,4.8663,4.8586,4.9279,4.9317,4.9899,5.0515,4.9707,4.9471,4.9471,4.9471,5.013,5.0822,5.0822,5.1433,5.189,5.1092,5.0861,5.0399,4.8663,4.8971,4.9317,4.8432,4.7658,4.7851,5.0168,4.786,4.5936,4.6697,4.4778,4.2585,4.0939,4.1393,4.2235,4.3047,4.459,4.5594,4.5556,4.5556,4.5594,4.5556,4.5594,4.5975,4.6774,4.8432,4.9356,4.9394,5.1141,5.1751,5.1157,5.1133,5.1972,5.3687,5.3696,5.4554,5.608,5.6225,5.6254,5.6181,5.6175,5.6172,5.6183,5.6347,5.6385,5.6393,5.6558,5.6601,5.6601,5.6601,5.664,5.664,4.7792,4.871,4.951,4.9378,4.8603,4.9214,5.2894,5.6737,6.1178,6.6609,7.097,7.4505,7.7002,7.8499,7.8919,7.7987,7.7641,7.622,7.3246,7.1072,6.8376,6.4922,6.2801,6.0542,5.7978,5.5443,5.301,5.0615,4.8312,4.7005,4.6547,4.5898,4.5594,4.5667,4.7124,4.7582,4.7389,5.0351,5.1697,5.1962,5.262,5.2351,5.1428,4.9971,4.9553,4.9514,4.7812,4.7351,4.762,4.8235,4.9009,4.9822,5.0245,5.0361,5.0361,5.0361,5.1399,5.2549,5.2549,5.3626,5.4511,5.3746,5.3049,5.2279,5.1159,5.1582,5.1818,5.0322,5.0356,5.0236,4.9009,4.7548,4.6432,4.6013,4.4859,4.3855,4.3397,4.3508,4.3739,4.397,4.4936,4.5359,4.4705,4.5205,4.5321,4.4667,4.5244,4.5706,4.5936,4.7509,4.874,4.9394,5.0657,5.1504,5.1847,5.141,5.1385,5.1799,5.2384,5.3224,5.4282,5.486,5.5454,5.5954,5.587,5.5836,5.5868,5.6141,5.6244,5.6264,5.6512,5.6601,5.6601,5.6601,5.6992,5.7461,4.9544,5.1279,5.2894,5.2894,5.3555,5.4876,5.7189,5.9722,6.3282,6.8715,7.2936,7.5689,7.6387,7.878,7.966,7.7994,7.7984,7.7029,7.4595,7.3635,7.1735,6.8546,6.6503,6.4065,6.1172,5.7976,0.0,5.1885,4.9274,4.762,4.6889,4.6013,4.5594,4.5671,4.6971,4.7505,4.762,5.062,5.2351,5.3005,5.2736,5.2351,0.0,4.962,4.8817,4.8625,4.6932,4.6817,4.7505,4.7966,4.8933,5.013,5.0971,5.1202,5.1356,5.213,5.301,5.3857,5.4203,5.4972,5.5593,5.5131,5.4664,5.3972,5.2736,5.2851,5.2933,5.1972,5.1279,5.0697,5.0389,4.8466,4.6504,4.5244,4.4321,4.3778,4.3778,4.4085,4.4316,4.4316,4.5051,4.5398,4.4936,4.5321,4.5398,4.4898,4.5321,4.5594,4.5594,4.6855,4.7966,4.8817,5.0583,5.1764,5.2172,5.2653,5.2717,5.2399,5.3137,5.3749,5.4196,5.4918,5.5432,5.5802,5.5733,5.5708,5.5712,5.6057,5.6194,5.622,5.6508,5.6601,5.6601,5.6601,5.6914,5.7305,5.1536,5.3849,5.6025,5.5805,5.9183,6.212,6.2622,6.4213,6.6709,7.0403,7.4294,7.6166,7.4676,7.7577,7.8993,7.7436,7.7817,7.6915,7.3922,7.5558,7.4567,6.9899,6.9504,6.7342,6.2979,6.0114,5.6574,0.0,5.024,4.8432,4.6889,4.6013,4.5594,4.5633,4.6509,4.7351,4.8274,5.0697,5.2544,5.3703,5.2428,5.1851,5.1505,4.9274,4.8355,4.8086,4.6629,4.6971,4.8082,4.8082,4.924,5.0822,5.1505,5.1813,5.2197,5.3703,5.4318,5.4664,5.5362,5.5631,5.5708,5.5708,5.5708,5.5318,5.3857,5.3549,5.3549,5.3549,5.1664,5.0664,5.2659,4.9659,4.6351,4.4739,4.3893,4.3431,4.3431,4.4047,0.0,4.4474,4.5128,0.0,4.5594,4.5594,4.5594,4.5594,4.5594,4.5594,4.5594,4.6432,4.7312,4.8235,5.0697,5.2195,5.2591,5.4165,5.4663,5.414,5.4775,5.5016,5.4933,5.5581,5.5834,5.5708,5.5707,5.5722,5.5763,5.6094,5.623,5.6267,5.6512,5.6601,5.6601,5.6601,5.668,5.6875,5.3812,5.6381,5.8132,5.6811,6.0493,6.48,6.8091,7.055,7.2753,7.4771,7.8038,7.9764,7.8825,7.8772,7.8405,7.7399,7.7411,7.7229,7.6596,7.6368,7.5224,7.2982,7.1391,6.8747,6.4983,6.0831,5.7192,5.4049,5.0202,4.7851,4.6889,4.6013,4.5594,4.5633,4.6509,4.7351,4.8235,5.0125,5.0668,5.0394,5.1467,5.1505,5.0861,5.0399,4.9784,4.9125,4.886,4.8471,4.8082,4.8082,4.924,5.0707,5.0861,5.1356,5.1962,5.2274,5.3351,5.4511,5.4664,5.5203,5.5708,5.5708,5.5708,5.5631,5.5318,5.5241,5.5241,5.5241,5.4395,5.3318,5.2313,4.9274,4.6543,4.5552,4.5244,4.5167,4.5167,4.5282,4.5359,0.0,4.5518,4.5594,4.5594,4.5594,4.5594,4.5594,4.5594,4.5594,4.5594,4.6432,4.7582,4.9125,5.0536,5.2236,5.4262,5.4201,5.4445,5.4891,5.5031,5.5016,5.4933,5.5581,5.5834,5.5719,5.5816,5.5861,5.5895,5.6244,5.6445,5.6518,5.6562,5.6601,5.6601,5.6601,5.707,5.7695,5.8033,5.9391,6.075,6.1667,6.5154,6.9045,7.2642,7.5983,7.7635,7.6276,7.7121,7.7524,7.6732,7.7818,7.8259,7.7399,7.7289,7.7289,7.7289,7.6555,7.5579,7.4368,7.224,6.9582,6.6394,6.1684,5.7978,5.5382,5.0757,4.8123,4.7505,4.6206,4.5594,4.5633,4.6509,4.7582,4.8856,5.0168,5.0976,5.1433,5.2236,5.2351,5.1895,5.1015,5.0168,4.9356,4.8894,4.874,4.8779,4.8779,4.9894,5.1395,5.1856,5.2587,5.3313,5.3741,5.4472,5.5126,5.5126,5.5401,5.5708,5.5708,5.5708,5.5708,5.5708,5.5708,5.5708,5.5708,5.5054,5.3857,5.1664,4.8889,4.6889,4.6894,4.6547,4.6278,4.6278,4.6278,4.6129,4.5667,0.0,0.0,4.5594,4.5594,4.5594,4.5594,4.5594,4.5594,4.5594,4.6046,4.7105,4.877,5.0718,5.2546,5.4229,5.5338,5.5649,5.5224,5.5588,5.5486,5.4936,5.5682,5.5971,5.5807,5.5993,5.6074,5.6055,5.6297,5.6464,5.6601,5.6601,5.6601,5.6601,5.6601,5.7148,5.789,6.2181,6.2805,6.4016,6.6769,7.0206,7.3325,7.5506,7.9323,8.0791,7.7561,7.646,7.5616,7.4808,7.69,7.8075,7.7362,7.7289,7.7289,7.7289,7.6555,7.5726,7.494,7.2591,7.0015,6.7265,6.2592,5.8709,5.566,5.149,4.881,4.7548,4.6398,4.5782,4.5633,4.6701,4.7889,4.9202,5.0438,5.1702,5.2928,5.3121,5.3082,5.2774,5.1471,5.0438,4.9591,4.8894,4.9086,4.9668,4.9668,5.0664,5.2,5.2697,5.3664,5.4626,5.5247,5.5555,5.5708,5.5708,5.5708,5.5708,5.5708,5.5708,5.5708,5.5708,5.5708,5.5708,5.5708,5.4895,5.3549,5.1361,4.9009,4.7582,4.8043,4.7582,4.7043,4.6658,4.6774,4.6586,4.5706,0.0,0.0,4.5594,4.5594,4.5594,4.5594,4.5594,4.5612,4.5624,4.574,4.6494,4.8002,5.0483,5.2462,5.3783,5.6014,5.6658,5.5817,5.6219,5.5944,5.5124,5.5864,5.6107,5.5893,5.6122,5.6251,5.6281,5.639,5.6511,5.6601,5.6601,5.6601,5.6601,5.6601,5.7265,5.8164,6.4628,6.6719,6.8531,6.9596,7.3619,7.6371,7.5197,7.8463,8.0975,8.0608,7.9837,7.9045,7.8222,7.7693,7.7399,7.7326,7.7289,7.7289,7.7289,7.6555,7.5726,7.494,7.2591,7.0015,6.7265,6.3474,5.9021,5.3933,5.2378,4.9635,4.5859,4.6471,4.6355,4.5671,4.7278,4.8082,4.8389,5.0774,5.189,5.2077,5.289,5.2736,5.2,5.1851,5.1279,5.0553,5.0476,5.0515,5.0592,5.0592,5.1164,5.1923,5.2,5.3159,5.4511,5.4587,5.5131,5.5708,5.5708,5.5708,5.5708,5.5708,5.5708,5.5708,5.5708,5.5708,5.5708,5.5708,5.4434,5.3005,5.1967,5.0351,4.8933,4.8235,4.8043,4.7471,4.5936,4.6394,4.6586,4.5706,4.5594,0.0,4.5594,4.5594,4.5594,4.5594,4.5594,4.5644,4.5785,4.577,4.6275,4.7255,4.9205,5.1357,5.3783,5.4953,5.6164,5.7456,5.6745,5.6175,5.5839,5.609,5.6107,5.5901,5.6258,5.6454,5.6561,5.6562,5.6601,5.6601,5.6601,5.6601,5.6601,5.6601,5.7656,5.8984,7.022,7.033,7.1197,7.3949,7.4808,7.5763,7.7561,7.9213,8.0094,7.9617,7.9286,7.8956,7.8626,7.7803,7.7289,7.7289,7.7289,7.7289,7.7289,7.6995,7.6261,7.494,7.3523,7.1323,6.8301,6.4902,6.1127,5.6989,5.4547,5.1985,4.9356,4.8159,4.7428,4.7124,4.7817,4.8663,4.9779,5.1813,5.2697,5.2813,5.4164,5.4203,5.3472,5.3472,5.2626,5.151,5.201,5.1856,5.151,5.201,5.2395,5.2697,5.2697,5.3857,5.5208,5.5208,5.5439,5.5708,5.5708,5.5708,5.5708,5.5708,5.5708,5.5708,5.5708,5.5708,5.5708,5.5708,5.4357,5.2928,5.2038,5.0543,4.9471,4.963,4.9202,4.8471,4.7278,4.7394,4.7124,4.5744,4.5594,4.5594,4.5594,4.5594,4.5594,4.5594,4.5677,4.5743,4.5815,4.5915,4.6401,4.7294,4.9156,5.1087,5.3118,5.4516,5.5751,5.6897,5.6494,5.6215,5.6104,5.6249,5.631,5.6332,5.6462,5.6559,5.6601,5.6601,5.6601,5.6601,5.6601,5.6601,5.664,5.7187,5.8164,5.914,7.4147,7.3487,7.3913,7.7729,7.6974,7.6644,7.9082,7.9449,7.914,7.8332,7.8222,7.8222,7.8222,7.7656,7.7289,7.7289,7.7289,7.7289,7.7289,7.7069,7.6335,7.494,7.3891,7.1945,6.8972,6.6364,6.3237,5.9588,5.7163,5.4697,5.2236,5.0197,4.9351,4.962,4.9856,5.0818,5.2246,5.3703,5.4472,5.4775,5.5708,5.5593,5.4818,5.4587,5.3587,5.2313,5.2697,5.2582,5.2351,5.2697,5.3159,5.3587,5.3587,5.4549,5.5708,5.5708,5.5708,5.5708,5.5708,5.5708,5.5708,5.5708,5.5708,5.5708,5.5708,5.5708,5.5631,5.5401,5.4203,5.3005,5.239,5.0894,4.9976,5.0592,5.0168,4.9317,4.7928,4.7966,4.7471,4.5782,4.5594,4.5594,4.5594,4.5594,4.562,4.5648,4.5757,4.5813,4.5813,4.6019,4.6526,4.7439,4.8982,5.0741,5.2612,5.4028,5.5232,5.6267,5.6175,5.6122,5.6131,5.6301,5.6462,5.6601,5.6601,5.6601,5.6601,5.6601,5.6601,5.6601,5.6601,5.6601,5.6719,5.7578,5.8437,5.9219,7.5285,7.6056,7.7084,8.0388,8.0938,8.0388,7.8846,7.8589,7.8295,7.7436,7.7326,7.7326,7.7326,7.7326,7.7289,7.7289,7.7289,7.7289,7.7289,7.6555,7.5763,7.494,7.3362,7.1394,6.8958,6.7753,6.4982,6.0481,6.0124,5.7605,5.3159,5.2274,5.2313,5.3159,5.4049,5.4895,5.5708,5.6593,5.744,5.8165,5.7324,5.6478,5.5593,5.478,5.3933,5.3082,5.2236,5.2467,5.3044,5.2197,5.3044,5.4472,5.4472,5.5049,5.5708,5.5708,5.5708,5.5708,5.5708,5.5708,5.5708,5.5708,5.5708,5.5708,5.5708,5.5708,5.5478,5.4664,5.3818,5.3197,5.3197,5.1818,5.0707,5.0707,5.0707,4.9784,4.7274,4.7582,4.7471,4.5782,4.5594,4.5594,4.5594,4.5594,4.5644,4.5802,4.5846,4.5918,4.5918,4.6012,4.6541,4.7578,4.8437,5.0072,5.2481,5.338,5.453,5.5928,5.5885,5.5885,5.5897,5.6264,5.6462,5.6601,5.6601,5.6601,5.6601,5.6601,5.6601,5.6601,5.6601,5.6601,5.6719,5.7578,5.8437,5.9297,7.8384,7.8641,7.8972,8.0,7.9727,7.8993,7.7876,7.7693,7.7619,7.7362,7.7289,7.7289,7.7289,7.7289,7.7289,7.7289,7.7289,7.7289,7.7289,7.6555,7.5726,7.494,7.3891,7.2202,6.9779,6.883,6.691,6.3926,6.2642,5.9878,5.5785,5.4895,5.4626,5.4934,5.5203,5.6126,5.7473,5.778,5.805,5.8204,5.7363,5.6824,5.6478,5.5631,5.4818,5.4126,5.4395,5.4318,5.4126,5.4395,5.4857,5.5439,5.6016,5.5978,5.5708,5.5708,5.5708,5.5708,5.5708,5.5708,5.5708,5.5708,5.5708,5.5862,5.6439,5.6593,5.617,5.478,5.428,5.3703,5.2544,5.189,5.1356,5.0784,5.0207,4.9317,4.7928,4.7466,4.6855,4.5744,4.5594,4.5594,4.5594,4.5688,4.5758,4.5815,4.5966,4.6057,4.6057,4.6152,4.6678,4.7578,4.8893,5.0509,5.248,5.3776,5.4904,5.5915,5.5802,5.5896,5.6128,5.6398,5.656,5.6601,5.6601,5.6601,5.6601,5.6601,5.6601,5.664,5.7265,5.75,5.7656,5.9062,5.9765,6.0156,8.0183,7.9764,7.9449,7.9743,7.8846,7.7913,7.7399,7.7289,7.7289,7.7289,7.7289,7.7289,7.7289,7.7289,7.7289,7.7289,7.7289,7.7289,7.7289,7.6812,7.6041,7.494,7.4644,7.3125,7.016,7.0126,6.8901,6.6462,6.4527,6.2,5.8902,5.8017,5.7632,5.7632,5.7632,5.8204,5.9242,5.9242,5.9242,5.9127,5.7978,5.7478,5.7363,5.617,5.5401,5.4972,5.517,5.5131,5.4972,5.517,5.567,5.6285,5.6824,5.6863,5.6626,5.6285,5.6209,5.6132,5.5785,5.5708,5.5708,5.5708,5.5708,5.5824,5.6401,5.6516,5.6209,5.517,5.4703,5.4087,5.2659,5.212,5.1659,5.0822,4.9976,4.9086,4.8235,4.7428,4.6586,4.5706,4.5594,4.5594,4.5594,4.5711,4.5806,4.5828,4.6293,4.6441,4.6129,4.6507,4.7258,4.8429,4.9664,5.1277,5.33,5.4234,5.5088,5.583,5.5808,5.5907,5.6199,5.6443,5.6559,5.6601,5.6601,5.6601,5.6601,5.6601,5.6601,5.668,5.7578,5.789,5.8086,5.9765,6.039,6.0508,8.0755,7.9617,7.8772,7.9669,7.8405,7.7326,7.7399,7.7362,7.7289,7.7289,7.7289,7.7289,7.7289,7.7289,7.7289,7.7289,7.7289,7.7289,7.7289,7.7252,7.6533,7.5029,7.5439,7.4036,7.0399,7.1514,7.0776,6.7984,6.5833,6.3935,6.2249,6.1325,6.0902,6.0902,6.0825,6.0787,6.0787,6.0787,6.0787,6.0666,5.905,5.8396,5.8198,5.6434,5.5785,5.567,5.4857,5.5049,5.5593,5.4895,5.5708,5.7022,5.7132,5.7747,5.8204,5.7324,5.706,5.6824,5.6016,5.5747,5.5708,5.5708,5.5747,5.5785,5.5708,5.5747,5.5785,5.5708,5.5088,5.4318,5.3433,5.2582,5.1697,5.0822,4.9938,4.9009,4.812,4.7312,4.6509,4.5706,4.5594,4.5594,4.5594,4.5722,4.5861,4.5989,4.6872,4.7067,4.6323,4.7129,4.8331,4.9852,5.0664,5.2242,5.4699,5.476,5.5078,5.5708,5.5852,5.6026,5.6197,5.6353,5.6462,5.6601,5.6601,5.6601,5.6601,5.6601,5.6601,5.668,5.7617,5.8008,5.8203,5.9883,6.0508,6.0625,8.0036,7.8736,7.806,7.9559,7.8405,7.7509,7.8185,7.7729,7.7289,7.7289,7.7289,7.7289,7.7289,7.7289,7.7289,7.7289,7.7289,7.7289,7.7289,7.6738,7.6162,7.5618,7.5137,7.4064,7.2338,7.2034,7.0506,6.7697,6.6897,6.5628,6.3974,6.248,6.1787,6.1749,6.1095,6.0787,6.0787,6.0787,6.0787,6.0704,5.9627,5.9204,5.905,5.7324,5.667,5.6593,5.5708,5.5555,5.5785,5.6247,5.667,5.7214,5.8511,5.905,5.905,5.8242,5.7517,5.6945,5.6747,5.6209,5.5708,5.5708,5.6209,5.6516,5.5862,5.6209,5.6516,5.5824,5.5555,5.517,5.4357,5.3472,5.2395,5.0938,4.9394,4.812,4.7312,4.6432,4.5821,4.5629,4.5594,4.5594,4.5594,4.5757,4.6163,4.6859,4.7218,4.7607,4.8077,4.9289,4.992,4.9835,5.1242,5.286,5.4699,5.519,5.5535,5.5708,5.5852,5.6026,5.6197,5.6353,5.6462,5.6601,5.6601,5.6601,5.6601,5.6601,5.6601,5.6758,5.8281,5.8906,5.9101,6.0781,6.1406,6.1406,7.9816,7.8772,7.8185,7.9103,7.8185,7.7472,7.7913,7.7582,7.7289,7.7289,7.7289,7.7289,7.7289,7.7289,7.7289,7.7289,7.7585,7.7644,7.7304,7.743,7.7013,7.5861,7.5889,7.488,7.2493,7.2664,7.1228,6.8155,6.7822,6.6628,6.4589,6.3666,6.2826,6.2095,6.1595,6.1172,6.0787,6.0787,6.0787,6.0704,5.9858,5.9511,5.9358,5.8088,5.7363,5.6983,5.694,5.6632,5.6439,5.7286,5.7824,5.8286,5.9204,5.9781,6.0012,5.9588,5.8819,5.8055,5.7709,5.7242,5.6896,5.6896,5.694,5.6868,5.6401,5.667,5.6868,5.6401,5.6285,5.6055,5.5208,5.4049,5.2664,5.0976,4.924,4.7812,4.7005,4.6163,4.5744,4.6163,4.6201,4.6355,4.6706,4.6915,4.7182,4.7653,4.8195,4.87,4.9077,5.0622,5.127,5.0855,5.244,5.3893,5.5132,5.5507,5.5708,5.5708,5.5852,5.6026,5.6197,5.6353,5.6462,5.6601,5.6601,5.6601,5.6601,5.6601,5.6836,5.7344,5.8672,5.9414,5.9922,6.1211,6.1719,6.1719,7.9633,7.8956,7.8442,7.8589,7.7876,7.7362,7.7472,7.7399,7.7289,7.7289,7.7289,7.7289,7.7289,7.7289,7.7289,7.7289,7.7903,7.8072,7.748,7.8563,7.8245,7.6157,7.7061,7.5989,7.2523,7.3352,7.224,6.8932,6.8572,6.7237,6.4974,6.4705,6.382,6.248,6.221,6.1672,6.0979,6.0864,6.0787,6.0748,5.9973,5.9704,5.9627,5.8781,5.8011,5.7478,5.8088,5.7819,5.7363,5.8357,5.9127,5.9742,5.9973,6.0589,6.1166,6.1018,6.0473,5.9704,5.8742,5.839,5.8313,5.8313,5.7742,5.7209,5.7209,5.7209,5.7209,5.7209,5.7093,5.6786,5.6016,5.4434,5.2702,5.113,4.9317,4.7812,4.7005,4.6278,4.6129,4.6966,4.7081,4.7466,4.8394,4.8473,4.8586,4.8857,4.9655,5.0136,5.0181,5.1732,5.2579,5.2484,5.3802,5.4898,5.5708,5.5708,5.573,5.5733,5.5865,5.6005,5.6227,5.6358,5.6462,5.6601,5.6601,5.6601,5.6601,5.6601,5.7109,5.8008,5.8867,5.9687,6.0508,6.1367,6.1719,6.1719,7.8772,7.8096,7.7729,7.8479,7.7876,7.7546,7.8295,7.7766,7.7289,7.7289,7.7289,7.7289,7.7289,7.7289,7.7289,7.7289,7.7903,7.8255,7.8146,7.8829,7.8624,7.7374,7.7503,7.6876,7.5364,7.4159,7.2261,6.9571,6.8788,6.7814,6.6673,6.5243,6.4474,6.4166,6.2749,6.2018,6.1864,6.1095,6.0787,6.0787,6.0666,6.0589,6.0517,5.9627,5.9242,5.905,5.8511,5.8204,5.8357,5.9896,6.0473,6.0858,6.2275,6.2814,6.2775,6.2095,6.1787,6.1364,5.9742,5.8813,5.8313,5.8313,5.8198,5.8088,5.8088,5.8088,5.8088,5.8088,5.7517,5.6945,5.6824,5.4818,5.2851,5.189,4.9697,4.7812,4.7005,4.6774,4.7005,4.7812,4.7928,4.8548,5.013,4.9748,4.998,5.1385,5.1632,5.2058,5.2775,5.3678,5.415,5.4144,5.4494,5.4987,5.5708,5.5708,5.5745,5.587,5.5903,5.6068,5.6373,5.6385,5.6462,5.6601,5.6601,5.6601,5.6601,5.6601,5.7109,5.8008,5.8867,5.9687,6.0508,6.1367,6.1719,6.1719,7.7876,7.7582,7.7436,7.7839,7.7582,7.7436,7.7839,7.7546,7.7289,7.7289,7.7289,7.7289,7.7289,7.7289,7.7457,7.7826,7.8432,7.8901,7.9244,7.9524,7.9246,7.8351,7.8159,7.7198,7.5353,7.3668,7.1975,7.036,6.9045,6.7936,6.7058,6.5859,6.5051,6.4589,6.3782,6.2941,6.2056,6.1672,6.1248,6.0787,6.0787,6.0787,6.0748,6.0358,5.9896,5.9511,5.9627,5.9358,5.9204,6.0941,6.1518,6.171,6.2929,6.3314,6.3237,6.2858,6.2095,6.121,6.0435,5.9935,5.9665,5.9665,5.9281,5.8934,5.8934,5.8934,5.8934,5.8934,5.8627,5.8363,5.8363,5.5895,5.378,5.3351,5.0351,4.812,4.824,4.7851,4.8043,4.9356,4.9889,5.0659,5.1933,5.176,5.1858,5.2639,5.2707,5.3054,5.3951,5.4308,5.4703,5.5131,5.52,5.5398,5.5708,5.5774,5.5857,5.5881,5.6087,5.6267,5.6391,5.6462,5.6558,5.6601,5.6601,5.6601,5.6601,5.6601,5.7109,5.8008,5.8867,5.9687,6.0508,6.1367,6.1719,6.1719,7.7289,7.7289,7.7289,7.7289,7.7289,7.7289,7.7289,7.7289,7.7289,7.7289,7.7289,7.7289,7.7289,7.7457,7.7739,7.8255,7.8828,7.9458,8.0048,8.0115,7.9791,7.9149,7.8535,7.713,7.4738,7.3437,7.2245,7.1206,6.9706,6.8552,6.7673,6.6673,6.582,6.5166,6.4782,6.3782,6.2364,6.2172,6.1595,6.0787,6.0787,6.0787,6.0787,6.0787,6.0396,5.9896,6.0556,6.0517,6.0319,6.1864,6.2518,6.2826,6.3666,6.3891,6.3852,6.366,6.2435,6.1056,6.0864,6.0787,6.0787,6.0787,6.0281,5.9819,5.9819,5.9819,5.9819,5.9819,5.9627,5.9511,5.9511,5.6896,5.4703,5.4511,5.1395,4.9159,4.9625,4.9279,4.9548,5.1092,5.1818,5.262,5.3664,5.3626,5.3587,5.378,5.378,5.4087,5.4741,5.478,5.5049,5.567,5.5708,5.5696,5.5763,5.5836,5.5928,5.6022,5.6283,5.6437,5.6453,5.6559,5.6601,5.6601,5.6601,5.6601,5.6601,5.6601,5.7226,5.8281,5.8945,5.9805,6.0781,6.1445,6.1719,6.1719,7.7289,7.7289,7.7289,7.7289,7.7289,7.7289,7.7289,7.7289,7.7289,7.7289,7.7289,7.7289,7.7289,7.7846,7.8241,7.8295,7.8828,7.9458,8.0048,8.0115,7.9979,7.9753,7.8231,7.6553,7.4738,7.4584,7.3707,7.2098,7.1168,7.0283,6.9475,6.7782,6.6981,6.6865,6.5282,6.4083,6.316,6.2403,6.1595,6.0787,6.0787,6.0787,6.0787,6.0787,6.0748,6.0704,6.0787,6.1287,6.2056,6.2935,6.3737,6.4589,6.5436,6.5705,6.5551,6.4743,6.332,6.1826,6.1018,6.0787,6.0787,6.0787,6.0748,6.0704,6.0704,6.0704,6.0704,6.0704,6.005,5.9511,5.9511,5.7357,5.5362,5.4626,5.289,5.139,5.0707,5.1202,5.1967,5.289,5.3082,5.3741,5.5362,5.4857,5.4703,5.5478,5.5516,5.5555,5.5593,5.5593,5.5631,5.5708,5.5708,5.575,5.5891,5.5911,5.6061,5.6373,5.6385,5.6459,5.6601,5.6601,5.6601,5.6601,5.6601,5.6601,5.6601,5.6601,5.7578,5.9101,5.918,6.0195,6.1601,6.168,6.1719,6.1719,7.7289,7.7289,7.7289,7.7289,7.7289,7.7289,7.7289,7.7289,7.7289,7.7289,7.7651,7.7917,7.7917,7.846,7.8998,7.938,7.961,8.0046,8.0698,8.0724,8.0455,7.9815,7.8669,7.7484,7.6322,7.5238,7.4392,7.3745,7.1822,7.0744,7.0398,6.8129,6.7096,6.7058,6.5897,6.4628,6.3275,6.2974,6.2358,6.1556,6.1018,6.1133,6.1556,6.1018,6.1133,6.1595,6.1595,6.2127,6.2974,6.382,6.432,6.4743,6.5628,6.5904,6.575,6.4859,6.4166,6.3474,6.2589,6.1589,6.0787,6.0787,6.0787,6.0787,6.0787,6.0787,6.0787,6.0787,6.055,6.0319,6.0319,5.8665,5.7203,5.6896,5.4505,5.2774,5.3015,5.2856,5.3044,5.3895,5.4434,5.5011,5.5631,5.5439,5.5362,5.567,5.5708,5.5708,5.5708,5.5708,5.5708,5.5708,5.5789,5.5836,5.5915,5.611,5.6281,5.639,5.6466,5.6559,5.6601,5.6601,5.6601,5.6601,5.6601,5.6601,5.6601,5.6601,5.7305,5.8437,5.8984,5.9883,6.0976,6.1484,6.1719,6.1719,7.7289,7.7289,7.7289,7.7289,7.7289,7.7365,7.7599,7.7592,7.768,7.7852,7.8299,7.8563,7.8563,7.9117,7.9642,8.0048,8.0306,8.0608,8.1069,8.1093,8.0708,7.9854,7.9246,7.8407,7.733,7.613,7.5245,7.47,7.2699,7.1591,7.1245,6.8706,6.7513,6.7475,6.6359,6.5089,6.3698,6.3698,6.3243,6.2435,6.182,6.1935,6.2403,6.182,6.1973,6.248,6.248,6.3012,6.3814,6.4397,6.4936,6.5474,6.6096,6.6288,6.6173,6.5551,6.5013,6.4474,6.3852,6.2666,6.1512,6.1287,6.121,6.1133,6.0864,6.0787,6.0787,6.0787,6.0787,6.0787,6.0787,5.9627,5.8583,5.8352,5.6313,5.4895,5.5247,5.5011,5.5005,5.5626,5.6165,5.6395,5.6132,5.6093,5.6093,5.6093,5.5862,5.5708,5.5708,5.5708,5.5708,5.5708,5.5839,5.5913,5.5976,5.6273,5.64,5.6459,5.656,5.6601,5.6601,5.6601,5.6758,5.6992,5.6719,5.6914,5.7383,5.7109,5.7656,5.875,5.9336,6.0078,6.0898,6.1484,6.1719,6.1719,7.7326,7.7289,7.7289,7.7304,7.7304,7.754,7.82,7.8309,7.8536,7.9128,7.921,7.921,7.921,7.9765,8.0125,8.0125,8.0724,8.1093,8.1093,8.1093,8.0708,7.9854,7.9815,7.9015,7.7369,7.7292,7.6438,7.47,7.3892,7.3053,7.2136,6.9629,6.843,6.8353,6.6667,6.5436,6.4628,6.4589,6.4089,6.3314,6.3314,6.3314,6.3314,6.3314,6.3314,6.3314,6.3314,6.3852,6.4628,6.4628,6.5705,6.7096,6.7096,6.7096,6.7096,6.7096,6.5936,6.4628,6.4628,6.3968,6.3121,6.2287,6.2095,6.1864,6.1018,6.0825,6.0825,6.0825,6.0825,6.0825,6.0787,6.0089,5.9242,5.8434,5.8313,5.8011,5.7132,5.7742,5.8313,5.8313,5.8313,5.7973,5.7093,5.7022,5.7022,5.7022,5.6209,5.5708,5.5708,5.5708,5.5708,5.5708,5.5839,5.6019,5.6228,5.6347,5.646,5.6601,5.6601,5.6601,5.6601,5.6601,5.707,5.7851,5.6992,5.7617,5.914,5.8281,5.8906,6.039,6.039,6.0937,6.1719,6.1719,6.1719,6.1719,7.7903,7.8016,7.8146,7.8563,7.8616,7.8691,7.8889,7.8914,7.8986,7.9175,7.9567,7.9847,7.9847,8.0427,8.0783,8.0783,8.0983,8.1093,8.1093,8.1093,8.0977,8.0708,8.0131,7.9285,7.8176,7.7599,7.6753,7.563,7.4776,7.393,7.3091,7.1091,6.986,6.9237,6.7513,6.6282,6.5474,6.4859,6.4436,6.4166,6.3545,6.366,6.416,6.3545,6.366,6.4205,6.4205,6.4782,6.559,6.6167,6.6673,6.7212,6.7821,6.8013,6.7898,6.7289,6.675,6.6244,6.5667,6.532,6.4628,6.2595,6.2095,6.2018,6.1787,6.171,6.171,6.171,6.171,6.1518,6.0902,6.0589,6.0127,5.9281,5.9127,5.8858,5.8011,5.8127,5.8313,5.8313,5.8313,5.8198,5.7934,5.7896,5.7896,5.7896,5.7093,5.6593,5.6593,5.6016,5.5978,5.6593,5.6148,5.6529,5.7788,5.6853,5.646,5.6601,5.6601,5.6601,5.6601,5.7226,5.7656,5.793,5.8281,5.8711,5.918,5.8906,5.9453,6.039,6.039,6.0937,6.1719,6.1719,6.1719,6.1719,7.8159,7.8309,7.8497,7.9093,7.9198,7.9279,7.9513,7.9546,7.9632,7.9936,8.0268,8.049,8.049,8.0855,8.1093,8.1093,8.1093,8.1093,8.1093,8.1093,8.1093,8.1093,8.0592,7.9746,7.8523,7.8023,7.7169,7.6015,7.5123,7.4276,7.3469,7.1706,7.0475,6.9629,6.7859,6.6827,6.6327,6.5474,6.5128,6.5051,6.4551,6.482,6.5513,6.4666,6.4859,6.5551,6.5243,6.5436,6.5981,6.6442,6.7051,6.7821,6.9007,6.9161,6.8814,6.8282,6.7859,6.7436,6.6596,6.6365,6.5865,6.3634,6.3095,6.3018,6.2666,6.2551,6.2474,6.2172,6.2095,6.1826,6.0979,6.0787,6.0633,6.0089,6.0012,5.9858,5.9358,5.9281,5.9281,5.9281,5.9281,5.9165,5.8819,5.8775,5.8621,5.8313,5.7819,5.7517,5.7517,5.6709,5.6593,5.7478,5.7091,5.7214,5.7964,5.7209,5.685,5.6982,5.6718,5.6601,5.664,5.75,5.8086,5.8437,5.8984,5.957,6.0156,5.9805,6.0156,6.0898,6.0898,6.125,6.1719,6.1719,6.1719,6.1719,7.8312,7.8458,7.864,7.9256,7.9369,7.9546,8.0115,8.0182,8.0427,8.1007,8.1093,8.1093,8.1093,8.1093,8.1093,8.1093,8.1093,8.1093,8.1093,8.1093,8.1093,8.1093,8.1093,8.0323,7.8638,7.8523,7.7676,7.6015,7.5207,7.4392,7.3584,7.1898,7.0706,6.986,6.8097,6.7327,6.7289,6.6481,6.6134,6.6134,6.6134,6.6551,6.7135,6.6397,6.6596,6.7096,6.6288,6.6051,6.6128,6.6205,6.7244,6.8814,7.0398,7.0398,6.9783,6.9706,6.9129,6.8314,6.7436,6.7173,6.675,6.5205,6.4782,6.4474,6.3622,6.3429,6.3198,6.248,6.2326,6.2056,6.1095,6.0941,6.0902,6.0825,6.0787,6.0787,6.0787,6.0787,6.0787,6.0787,6.0787,6.0473,5.9704,5.9627,5.9319,5.8588,5.8434,5.839,5.839,5.7594,5.7517,5.8396,5.8352,5.8053,5.7547,5.7535,5.7498,5.7477,5.6946,5.6719,5.6758,5.7695,5.8555,5.9297,5.9375,6.0273,6.164,6.0859,6.0976,6.1719,6.1719,6.1719,6.1719,6.1719,6.1719,6.1719,7.9578,7.9723,7.9908,8.0573,8.069,8.0724,8.0863,8.0871,8.0951,8.1077,8.1093,8.1093,8.1093,8.1093,8.1093,8.1093,8.1093,8.1093,8.1093,8.1093,8.1093,8.1093,8.1093,8.0592,7.9554,7.8869,7.7676,7.6015,7.5822,7.5284,7.443,7.3392,7.2476,7.1598,6.9898,6.9129,6.909,6.8199,6.7853,6.7853,6.7853,6.7968,6.8084,6.793,6.7968,6.8013,6.7135,6.7282,6.7968,6.8667,6.9129,6.959,7.0591,7.0783,7.0514,6.9898,6.959,6.9244,6.8353,6.7628,6.7019,6.6635,6.6096,6.5397,6.4512,6.4314,6.4282,6.4089,6.4051,6.3589,6.2095,6.1826,6.1595,6.0902,6.0787,6.0787,6.0787,6.0787,6.0787,6.0787,6.0787,6.0748,6.055,6.0512,6.0441,6.0281,5.9627,5.9242,5.9242,5.8473,5.8396,5.9204,5.8627,5.8847,6.0025,5.8951,5.7814,5.6662,5.7299,5.7617,5.7656,5.918,5.9961,6.0195,6.0859,6.1367,6.168,6.1484,6.1523,6.1719,6.1719,6.1719,6.1719,6.1719,6.1719,6.1719,7.9979,8.0115,8.0315,8.0983,8.1093,8.1093,8.1093,8.1093,8.1093,8.1093,8.1093,8.1093,8.1093,8.1093,8.1093,8.1093,8.1093,8.1093,8.1093,8.1093,8.1093,8.1093,8.1093,8.0708,7.9815,7.8938,7.7869,7.663,7.6207,7.5553,7.47,7.4276,7.3399,7.2136,7.086,7.0052,6.9629,6.8776,6.8391,6.8391,6.8391,6.866,6.8968,6.8545,6.866,6.8898,6.8013,6.8013,6.8545,6.9398,6.9706,6.986,7.0667,7.0898,7.0821,7.0398,7.0283,7.009,6.9244,6.8706,6.8129,6.7327,6.6789,6.625,6.5397,6.5205,6.5089,6.4705,6.4589,6.4205,6.2897,6.2364,6.1941,6.1479,6.1056,6.0787,6.0787,6.0787,6.0787,6.0787,6.0872,6.093,6.1048,6.0949,6.0918,6.0918,6.0019,5.9665,6.0089,5.9319,5.9281,6.0089,5.9765,5.9837,6.0339,5.9724,5.8804,5.7603,5.8237,5.8515,5.8555,5.9844,6.039,6.0469,6.1328,6.1719,6.1719,6.1719,6.1719,6.1719,6.1719,6.1719,6.1719,6.1719,6.1719,6.1719,8.0163,8.0287,8.0454,8.0991,8.1093,8.1093,8.1093,8.1093,8.1093,8.1093,8.1093,8.1093,8.1093,8.1093,8.1093,8.1093,8.1093,8.1093,8.1093,8.1093,8.1093,8.1093,8.1093,8.0746,8.0046,7.9169,7.8253,7.7292,7.6438,7.563,7.4938,7.4623,7.3745,7.2367,7.136,7.0514,6.986,6.9122,6.8814,6.8814,6.8814,6.9244,6.9821,6.9084,6.9276,6.9783,6.893,6.8545,6.8545,6.9552,6.9821,6.986,7.0667,7.0898,7.0898,7.0898,7.0898,7.0744,7.009,6.9821,6.9321,6.7705,6.7212,6.6904,6.6096,6.5904,6.5705,6.4974,6.482,6.4551,6.366,6.2974,6.248,6.2326,6.1595,6.1035,6.1048,6.0938,6.0845,6.0888,6.094,6.1085,6.1271,6.1093,6.0975,6.1052,6.0253,6.0074,6.0855,6.0199,6.0122,6.086,6.0996,6.075,6.0057,6.0317,6.0058,5.936,5.9526,5.9531,5.9414,6.0234,6.0625,6.0664,6.1406,6.1719,6.1719,6.1719,6.1719,6.1719,6.1719,6.1719,6.1719,6.1719,6.1719,6.1719,8.0959,8.0967,8.0983,8.1085,8.1093,8.1093,8.1093,8.1093,8.1093,8.1093,8.1093,8.1093,8.1093,8.1093,8.1093,8.1093,8.1093,8.1093,8.1093,8.1093,8.1093,8.1093,8.1093,8.1054,8.0939,8.0054,7.8861,7.7292,7.6438,7.5938,7.5784,7.4353,7.3546,7.3238,7.1629,7.0821,7.0744,7.0591,7.0552,7.0552,7.0552,7.0629,7.0706,7.0591,7.0629,7.0629,6.9821,6.9045,6.8622,7.0206,7.0283,6.986,7.0667,7.0898,7.0898,7.0898,7.0898,7.0898,7.0783,7.0244,6.9475,6.8468,6.7667,6.6904,6.6096,6.5904,6.5865,6.5743,6.5705,6.5474,6.4589,6.4359,6.4012,6.3275,6.2435,6.1957,6.2071,6.1451,6.1027,6.12,6.1097,6.1085,6.1271,6.1025,6.093,6.123,6.0965,6.0924,6.121,6.1104,6.1104,6.1217,6.1243,6.1214,6.11,6.1255,6.127,6.1154,6.1283,6.0976,6.0273,6.1133,6.1523,6.1523,6.164,6.1719,6.1719,6.1719,6.1719,6.1719,6.1719,6.1719,6.1719,6.1719,6.1719,6.1719,8.1093,8.1093,8.1093,8.1093,8.1093,8.1093,8.1093,8.1093,8.1093,8.1093,8.1093,8.1093,8.1093,8.1093,8.1093,8.1093,8.1093,8.1093,8.1093,8.1093,8.1093,8.1093,8.1093,8.1093,8.1093,8.0246,7.9431,7.8707,7.7361,7.6476,7.5976,7.5245,7.4392,7.3469,7.2699,7.1822,7.0898,7.0898,7.0898,7.0898,7.0898,7.0898,7.0898,7.0898,7.0898,7.086,7.0514,7.0129,6.9898,7.0667,7.0667,7.0437,7.0783,7.0898,7.0898,7.0898,7.0898,7.0898,7.0898,7.0321,6.9475,6.8622,6.7744,6.6904,6.6096,6.5904,6.5904,6.5904,6.5904,6.5788,6.5397,6.4936,6.4474,6.4083,6.2941,6.216,6.2268,6.1535,6.1081,6.1268,6.1304,6.1303,6.1396,6.1292,6.1229,6.1392,6.1274,6.121,6.1283,6.1286,6.1286,6.1286,6.1364,6.14,6.14,6.1527,6.1629,6.1629,6.1678,6.1484,6.1133,6.1523,6.1719,6.1719,6.1719,6.1719,6.1719,6.1719,6.1719,6.1719,6.1719,6.1719,6.1719,6.1719,6.1719,6.1719]}]]